[[{"header":{"parameterUnit":"m.s-1","parameterCategory":1,"la1":30.6,"la2":28.766,"lo1":-90.7593,"lo2":-88.6598,"dy":0.0162,"dx":0.0183,"nx":116,"ny":114,"refTime":"2024-05-14T06:00:00:Z","depth":0,"parameterNumber":2,"parameterNumberName":"U-component_of_WINDS"},"data":[0.0,0.0,0.0,0.0,0.0,0.0,0.0,0.0,0.0,0.0,0.0,0.0,0.0,0.0,0.0,0.0,0.0,0.0,0.0,0.0,0.0,0.0,0.0,0.0,0.0,0.0,0.0,0.0,0.0,0.0,0.0,0.0,0.0,0.0,0.0,0.0,0.0,0.0,0.0,0.0,0.0,0.0,0.0,0.0,0.0,0.0,0.0,0.0,0.0,0.0,0.0,0.0,0.0,0.0,0.0,0.0,0.0,0.0,0.0,0.0,0.0,0.0,0.0,0.0,0.0,0.0,0.0,0.0,0.0,0.0,0.0,0.0,0.0,0.0,0.0,0.0,0.0,0.0,0.0,0.0,0.0,0.0,0.0,0.0,0.0,0.0,0.0,0.0,0.0,0.0,0.0,0.0,0.0,0.0,0.0,0.0,0.0,0.0,0.0,0.0,0.0,0.0,0.0,0.0,0.0,0.0,0.0,0.0,0.0,0.0,0.0,0.0,0.0,0.0,0.0,0.0,0.0,0.0,0.0,0.0,0.0,0.0,0.0,0.0,0.0,0.0,0.0,0.0,0.0,0.0,0.0,0.0,0.0,0.0,0.0,0.0,0.0,0.0,0.0,0.0,0.0,0.0,0.0,0.0,0.0,0.0,0.0,0.0,0.0,0.0,0.0,0.0,0.0,0.0,0.0,0.0,0.0,0.0,0.0,0.0,0.0,0.0,0.0,0.0,0.0,0.0,0.0,0.0,0.0,0.0,0.0,0.0,0.0,0.0,0.0,0.0,0.0,0.0,0.0,0.0,0.0,0.0,0.0,0.0,0.0,0.0,0.0,0.0,0.0,0.0,0.0,0.0,0.0,0.0,0.0,0.0,0.0,0.0,0.0,0.0,0.0,0.0,0.0,0.0,0.0,0.0,0.0,0.0,0.0,0.0,0.0,0.0,0.0,0.0,0.0,0.0,0.0,0.0,0.0,0.0,0.0,0.0,0.0,0.0,0.0,0.0,0.0,0.0,0.0,0.0,0.0,0.0,0.0,0.0,0.0,0.0,0.0,0.0,0.0,0.0,0.0,0.0,0.0,0.0,0.0,0.0,0.0,0.0,0.0,0.0,0.0,0.0,0.0,0.0,0.0,0.0,0.0,0.0,0.0,0.0,0.0,0.0,0.0,0.0,0.0,0.0,0.0,0.0,0.0,0.0,0.0,0.0,0.0,0.0,0.0,0.0,0.0,0.0,0.0,0.0,0.0,0.0,0.0,0.0,0.0,0.0,0.0,0.0,0.0,0.0,0.0,0.0,0.0,0.0,0.0,0.0,0.0,0.0,0.0,0.0,0.0,0.0,0.0,0.0,0.0,0.0,0.0,0.0,0.0,0.0,0.0,0.0,0.0,0.0,0.0,0.0,0.0,0.0,0.0,0.0,0.0,0.0,0.0,0.0,0.0,0.0,0.0,0.0,0.0,0.0,0.0,0.0,0.0,0.0,0.0,0.0,0.0,0.0,0.0,0.0,0.0,0.0,0.0,0.0,0.0,0.0,0.0,0.0,0.0,0.0,0.0,0.0,0.0,0.0,0.0,0.0,0.0,0.0,0.0,0.0,0.0,0.0,0.0,0.0,0.0,0.0,0.0,0.0,0.0,0.0,0.0,0.0,0.0,0.0,0.0,0.0,0.0,0.0,0.0,0.0,0.0,0.0,0.0,0.0,0.0,0.0,0.0,0.0,0.0,0.0,0.0,0.0,0.0,0.0,0.0,0.0,0.0,0.0,0.0,0.0,0.0,0.0,0.0,0.0,0.0,0.0,0.0,0.0,0.0,0.0,0.0,0.0,0.0,0.0,0.0,0.0,0.0,0.0,0.0,0.0,0.0,0.0,0.0,0.0,0.0,0.0,0.0,0.0,0.0,0.0,0.0,0.0,0.0,0.0,0.0,0.0,0.0,0.0,0.0,0.0,0.0,0.0,0.0,0.0,0.0,0.0,0.0,0.0,0.0,0.0,0.0,0.0,0.0,0.0,0.0,0.0,0.0,0.0,0.0,0.0,0.0,0.0,0.0,0.0,0.0,0.0,0.0,0.0,0.0,0.0,0.0,0.0,0.0,0.0,0.0,0.0,0.0,0.0,0.0,0.0,0.0,0.0,0.0,0.0,0.0,0.0,0.0,0.0,0.0,0.0,0.0,0.0,0.0,0.0,0.0,0.0,0.0,0.0,0.0,0.0,0.0,0.0,0.0,0.0,0.0,0.0,0.0,0.0,0.0,0.0,0.0,0.0,0.0,0.0,0.0,0.0,0.0,0.0,0.0,0.0,0.0,0.0,0.0,0.0,0.0,0.0,0.0,0.0,0.0,0.0,0.0,0.0,0.0,0.0,0.0,0.0,0.0,0.0,0.0,0.0,0.0,0.0,0.0,0.0,0.0,0.0,0.0,0.0,0.0,0.0,0.0,0.0,0.0,0.0,0.0,0.0,0.0,0.0,0.0,0.0,0.0,0.0,0.0,0.0,0.0,0.0,0.0,0.0,0.0,0.0,0.0,0.0,0.0,0.0,0.0,0.0,0.0,0.0,0.0,0.0,0.0,0.0,0.0,0.0,0.0,0.0,0.0,0.0,0.0,0.0,0.0,0.0,0.0,0.0,0.0,0.0,0.0,0.0,0.0,0.0,0.0,0.0,0.0,0.0,0.0,0.0,0.0,0.0,0.0,0.0,0.0,0.0,0.0,0.0,0.0,0.0,0.0,0.0,0.0,0.0,0.0,0.0,0.0,0.0,0.0,0.0,0.0,0.0,0.0,0.0,0.0,0.0,0.0,0.0,0.0,0.0,0.0,0.0,0.0,0.0,0.0,0.0,0.0,0.0,0.0,0.0,0.0,0.0,0.0,0.0,0.0,0.0,0.0,0.0,0.0,0.0,0.0,0.0,0.0,0.0,0.0,0.0,0.0,0.0,0.0,0.0,0.0,0.0,0.0,0.0,0.0,0.0,0.0,0.0,0.0,0.0,0.0,0.0,0.0,0.0,0.0,0.0,0.0,0.0,0.0,0.0,0.0,0.0,0.0,0.0,0.0,0.0,0.0,0.0,0.0,0.0,0.0,0.0,0.0,0.0,0.0,0.0,0.0,0.0,0.0,0.0,0.0,0.0,0.0,0.0,0.0,0.0,0.0,0.0,0.0,0.0,0.0,0.0,0.0,0.0,0.0,0.0,0.0,0.0,0.0,0.0,0.0,0.0,0.0,0.0,0.0,0.0,0.0,0.0,0.0,0.0,0.0,0.0,0.0,0.0,0.0,0.0,0.0,0.0,0.0,0.0,0.0,0.0,0.0,0.0,0.0,0.0,0.0,0.0,0.0,0.0,0.0,0.0,0.0,0.0,0.0,0.0,0.0,0.0,0.0,0.0,0.0,0.0,0.0,0.0,0.0,0.0,0.0,0.0,0.0,0.0,0.0,0.0,0.0,0.0,0.0,0.0,0.0,0.0,0.0,0.0,0.0,0.0,0.0,0.0,0.0,0.0,0.0,0.0,0.0,0.0,0.0,0.0,0.0,0.0,0.0,0.0,0.0,0.0,0.0,0.0,0.0,0.0,0.0,0.0,0.0,0.0,0.0,0.0,0.0,0.0,0.0,0.0,0.0,0.0,0.0,0.0,0.0,0.0,0.0,0.0,0.0,0.0,0.0,0.0,0.0,0.0,0.0,0.0,0.0,0.0,0.0,0.0,0.0,0.0,0.0,0.0,0.0,0.0,0.0,0.0,0.0,0.0,0.0,0.0,0.0,0.0,0.0,0.0,0.0,0.0,0.0,0.0,0.0,0.0,0.0,0.0,0.0,0.0,0.0,0.0,0.0,0.0,0.0,0.0,0.0,0.0,0.0,0.0,0.0,0.0,0.0,0.0,0.0,0.0,0.0,0.0,0.0,0.0,0.0,0.0,0.0,0.0,0.0,0.0,0.0,0.0,0.0,0.0,0.0,0.0,0.0,0.0,0.0,0.0,0.0,0.0,0.0,0.0,0.0,0.0,0.0,0.0,0.0,0.0,0.0,0.0,0.0,0.0,0.0,0.0,0.0,0.0,0.0,0.0,0.0,0.0,0.0,0.0,0.0,0.0,0.0,0.0,0.0,0.0,0.0,0.0,0.0,0.0,0.0,0.0,0.0,0.0,0.0,0.0,0.0,0.0,0.0,0.0,0.0,0.0,0.0,0.0,0.0,0.0,0.0,0.0,0.0,0.0,0.0,0.0,0.0,0.0,0.0,0.0,0.0,0.0,0.0,0.0,0.0,0.0,0.0,0.0,0.0,0.0,0.0,0.0,0.0,0.0,0.0,0.0,0.0,0.0,0.0,0.0,0.0,0.0,0.0,0.0,0.0,0.0,0.0,0.0,0.0,0.0,0.0,0.0,0.0,0.0,0.0,0.0,0.0,0.0,0.0,0.0,0.0,0.0,0.0,0.0,0.0,0.0,0.0,0.0,0.0,0.0,0.0,0.0,0.0,0.0,0.0,0.0,0.0,0.0,0.0,0.0,0.0,0.0,0.0,0.0,0.0,0.0,0.0,0.0,0.0,0.0,0.0,0.0,0.0,0.0,0.0,0.0,0.0,0.0,0.0,0.0,0.0,0.0,0.0,0.0,0.0,0.0,0.0,0.0,0.0,0.0,0.0,0.0,0.0,0.0,0.0,0.0,0.0,0.0,0.0,0.0,0.0,0.0,0.0,0.0,0.0,0.0,0.0,0.0,0.0,0.0,0.0,0.0,0.0,0.0,0.0,0.0,0.0,0.0,0.0,0.0,0.0,0.0,0.0,0.0,0.0,0.0,0.0,0.0,0.0,0.0,0.0,0.0,0.0,0.0,0.0,0.0,0.0,0.0,0.0,0.0,0.0,0.0,0.0,0.0,0.0,0.0,0.0,0.0,0.0,0.0,0.0,0.0,0.0,0.0,0.0,0.0,0.0,0.0,0.0,0.0,0.0,0.0,0.0,0.0,0.0,0.0,0.0,0.0,0.0,0.0,0.0,0.0,0.0,0.0,0.0,0.0,0.0,0.0,0.0,0.0,0.0,0.0,0.0,0.0,0.0,0.0,0.0,0.0,0.0,0.0,0.0,0.0,0.0,0.0,0.0,0.0,0.0,0.0,0.0,0.0,0.0,0.0,0.0,0.0,0.0,0.0,0.0,0.0,0.0,0.0,0.0,0.0,0.0,0.0,0.0,0.0,0.0,0.0,0.0,0.0,0.0,0.0,0.0,0.0,0.0,0.0,0.0,0.0,0.0,0.0,0.0,0.0,0.0,0.0,0.0,0.0,0.0,0.0,0.0,0.0,0.0,0.0,0.0,0.0,0.0,0.0,0.0,0.0,0.0,0.0,0.0,0.0,0.0,0.0,0.0,0.0,0.0,0.0,0.0,0.0,0.0,0.0,0.0,0.0,0.0,0.0,0.0,0.0,0.0,0.0,0.0,0.0,0.0,0.0,0.0,0.0,0.0,0.0,0.0,0.0,0.0,0.0,0.0,0.0,0.0,0.0,0.0,0.0,0.0,0.0,0.0,0.0,0.0,0.0,0.0,0.0,0.0,0.0,0.0,0.0,0.0,0.0,0.0,0.0,0.0,0.0,0.0,0.0,0.0,0.0,0.0,0.0,0.0,0.0,0.0,0.0,0.0,0.0,0.0,0.0,0.0,0.0,0.0,0.0,0.0,0.0,0.0,0.0,0.0,0.0,0.0,0.0,0.0,0.0,0.0,0.0,0.0,0.0,0.0,0.0,0.0,0.0,0.0,0.0,0.0,0.0,0.0,0.0,0.0,0.0,0.0,0.0,0.0,0.0,0.0,0.0,0.0,0.0,0.0,0.0,0.0,0.0,0.0,0.0,0.0,0.0,0.0,0.0,0.0,0.0,0.0,0.0,0.0,0.0,0.0,0.0,0.0,0.0,0.0,0.0,0.0,0.0,0.0,0.0,0.0,0.0,0.0,0.0,0.0,0.0,0.0,0.0,0.0,0.0,0.0,0.0,0.0,0.0,0.0,0.0,0.0,0.0,0.0,0.0,0.0,0.0,0.0,0.0,0.0,0.0,0.0,0.0,0.0,0.0,0.0,0.0,0.0,0.0,0.0,0.0,0.9313,0.0,0.0,0.0,0.0,0.0,0.0,0.0,0.0,0.0,0.0,0.0,0.0,0.0,0.0,0.0,0.0,0.0,0.0,0.0,0.0,0.0,0.0,0.0,0.0,1.4877,1.486,1.4841,1.4832,1.4794,1.4804,0.0,0.0,0.0,0.0,0.0,0.0,0.0,1.9945,2.0394,1.9989,1.9333,1.8504,1.9753,2.0584,2.1083,0.0,0.0,0.0,0.0,0.0,0.0,0.0,0.0,0.0,0.0,0.0,0.0,0.0,0.0,0.0,0.0,0.0,0.0,0.0,0.0,0.0,0.0,0.0,0.0,0.0,0.0,0.0,0.0,0.0,0.0,0.0,0.0,0.0,0.0,0.0,0.0,0.0,0.0,0.0,0.0,0.0,0.0,0.0,0.0,0.0,0.0,0.0,0.0,0.0,0.0,0.0,0.0,0.0,0.0,0.0,0.0,0.0,0.0,0.0,0.0,0.0,0.0,0.0,0.0,0.0,0.0,0.0,0.0,0.0,0.0,0.0,0.8842,0.0,0.0,0.0,0.0,0.0,0.0,0.0,0.0,0.0,0.0,0.0,0.0,0.0,0.0,0.0,0.0,0.0,0.0,0.0,0.0,0.0,1.4776,1.4894,1.486,1.4832,1.4886,1.485,1.4794,1.4794,1.5736,0.0,0.0,0.0,1.9412,2.0158,2.0313,2.0338,2.0161,1.93,1.8504,1.7817,1.951,2.0302,2.0379,2.2027,0.0,0.0,0.0,0.0,0.0,0.0,0.0,0.0,0.0,0.0,0.0,0.0,0.0,0.0,0.0,0.0,0.0,0.0,0.0,0.0,0.0,0.0,0.0,0.0,0.0,0.0,0.0,0.0,0.0,0.0,0.0,0.0,0.0,0.0,0.0,0.0,0.0,0.0,0.0,0.0,0.0,0.0,0.0,0.0,0.0,0.0,0.0,0.0,0.0,0.0,0.0,0.0,0.0,0.0,0.0,0.0,0.0,0.0,0.0,0.0,0.0,0.0,0.0,1.0963,1.053,1.0387,0.9707,0.8789,0.7572,0.725,0.6666,0.5895,0.6486,0.0,0.0,0.0,0.0,0.0,0.0,0.0,0.0,0.0,0.0,0.0,0.0,0.0,0.0,0.0,0.0,0.0,0.0,0.0,1.484,1.4957,1.4875,1.4832,1.4896,1.4841,1.4794,1.4794,1.5696,1.6293,1.6456,1.809,1.9079,1.9269,2.0009,2.0028,1.9264,1.8393,1.7875,1.7761,1.954,2.0352,2.034,2.1332,2.1828,2.1861,0.0,0.0,0.0,0.0,0.0,0.0,0.0,0.0,0.0,0.0,0.0,0.0,0.0,0.0,0.0,0.0,0.0,0.0,0.0,0.0,0.0,0.0,0.0,0.0,0.0,0.0,0.0,0.0,0.0,0.0,0.0,0.0,0.0,0.0,0.0,0.0,0.0,0.0,0.0,0.0,0.0,0.9274,0.8872,0.0,0.0,0.0,0.0,0.0,0.0,0.0,0.0,0.0,0.0,0.0,0.0,0.0,1.2014,1.2702,1.1861,1.1368,1.1311,0.982,0.8806,0.8236,0.7025,0.5968,0.5124,0.4671,0.0,0.6373,0.6196,0.0,0.0,0.0,0.0,0.0,0.0,0.0,0.0,0.0,0.0,0.0,0.0,0.0,0.0,0.0,0.0,0.0,0.0,0.0,0.0,0.0,1.5158,1.5047,1.5536,1.5555,1.532,1.4823,1.6092,1.693,1.7038,1.8294,1.9265,1.9812,1.9726,1.9213,1.8313,1.8416,1.8461,1.8467,1.9748,2.0598,2.1056,2.1385,2.1591,2.1701,2.1658,0.0,0.0,0.0,0.0,0.0,0.0,0.0,0.0,0.0,0.0,0.0,0.0,0.0,0.0,0.0,0.0,0.0,0.0,0.0,0.0,0.0,0.0,0.0,0.0,0.0,0.0,0.0,0.0,0.0,0.0,0.0,0.0,0.0,0.0,0.0,0.0,0.0,0.0,0.0,0.9677,1.0066,0.9807,1.1594,1.3078,0.0,0.0,0.0,0.0,0.0,0.0,0.0,0.0,0.0,1.1023,1.0905,1.0927,1.1023,1.0599,1.0364,1.03,0.916,0.8303,0.756,0.6163,0.5251,0.4768,0.4463,0.4578,0.4929,0.4827,0.4746,0.4731,0.0,0.0,0.0,0.0,0.3363,0.2734,0.0,0.0,0.0,0.0,0.0,0.0,0.0,0.0,0.0,0.0,0.0,0.0,1.6036,1.5537,1.5311,1.5734,1.5772,1.5584,1.516,1.6347,1.7321,1.7879,1.8797,1.961,2.0357,1.9491,1.8615,1.7696,1.8563,1.9104,1.938,2.0244,2.114,2.1978,2.1912,2.1823,2.1655,2.1378,2.1172,2.0993,0.0,0.0,0.0,0.0,0.0,0.0,0.0,0.0,0.0,0.0,0.0,0.0,0.0,0.0,0.0,0.0,0.0,0.0,0.0,0.0,0.0,0.0,0.0,0.0,0.0,0.0,0.0,0.0,0.0,0.0,0.0,0.0,0.0,0.0,0.0,0.0,0.0,0.9522,1.0257,1.0388,1.1588,1.2822,0.0,0.0,0.0,0.0,0.0,0.0,1.232,1.2035,1.1345,1.0185,1.0099,0.9848,0.9317,0.9317,0.929,0.9142,0.8522,0.7731,0.6985,0.5672,0.4815,0.4284,0.4154,0.36,0.2949,0.356,0.3495,0.2999,0.3803,0.3823,0.3209,0.2115,0.0819,-0.035,0.0,0.0,0.0,0.0,0.0,0.0,0.0,0.0,0.0,0.0,0.0,1.5224,1.6098,1.5986,1.5586,1.4916,1.4869,1.5198,1.5977,1.6119,1.6943,1.8654,1.9579,2.0126,2.0308,1.94,1.8505,1.769,1.8505,1.9384,2.0349,2.121,2.2142,2.3013,2.2959,2.2423,2.1545,2.0725,1.992,1.9305,2.0072,0.0,0.0,0.0,0.0,0.0,0.0,0.0,0.0,0.0,0.0,0.0,0.0,0.0,0.0,0.0,0.0,0.0,0.0,0.0,0.0,0.0,0.0,0.0,0.0,0.0,0.0,0.0,0.0,0.0,0.0,0.0,0.0,0.0,0.0,0.0,0.0,0.0,0.0,0.9741,1.1074,0.0,0.0,0.0,0.0,1.34,1.2735,1.2287,1.2113,1.1241,1.035,0.9413,0.9213,0.8989,0.8531,0.8537,0.8484,0.8254,0.7613,0.6837,0.592,0.5014,0.4023,0.2956,0.2751,0.1878,0.0802,0.289,0.3007,0.1869,0.1928,0.131,0.0305,0.0237,-0.0703,-0.2165,0.0,0.0,0.0,0.0,0.0,1.4954,1.5043,1.5587,1.6077,1.6368,1.658,1.6982,1.7719,1.682,1.6224,1.639,1.597,1.5583,1.5329,1.6826,1.7803,1.8024,1.9316,1.982,1.9342,1.955,1.9531,1.9235,2.0655,2.1853,2.2849,2.3201,2.3839,2.4657,2.4663,2.4161,2.318,2.1736,2.0669,1.991,1.9659,1.9735,0.0,0.0,0.0,0.0,0.0,0.0,0.0,0.0,0.0,0.0,0.0,0.0,0.0,0.0,0.0,0.0,0.0,0.0,0.0,0.0,0.0,0.0,0.0,0.0,0.0,0.0,0.0,0.0,0.0,0.0,0.0,0.0,0.0,0.0,0.0,0.0,0.0,1.0974,1.1608,0.0,1.2351,1.2147,1.19,1.1599,1.154,1.1366,1.0925,1.0386,0.9807,0.9136,0.8611,0.8324,0.8151,0.8151,0.7687,0.6702,0.6318,0.5529,0.4345,0.3618,0.2614,0.1475,0.0336,-0.0268,-0.0536,-0.0196,-0.0191,-0.0435,-0.0608,-0.1106,-0.1768,-0.2501,-0.3117,-0.3613,0.0,0.0,0.0,1.478,1.4949,1.5197,1.5548,1.6126,1.6611,1.6806,1.7333,1.7857,1.8241,1.7312,1.6706,1.6872,1.5923,1.5449,1.5761,1.6781,1.77,1.8417,1.9497,1.9668,1.8844,1.9907,2.0489,2.0535,2.1972,2.3185,2.4193,2.4241,2.4724,2.5549,2.559,2.5277,2.4574,2.3143,2.1704,2.0354,1.9808,1.994,2.0429,0.0,0.0,0.0,0.0,0.0,0.0,0.0,0.0,0.0,0.0,0.0,0.0,0.0,0.0,0.0,0.0,0.0,0.0,0.0,0.0,0.0,0.0,0.0,0.0,0.0,0.0,0.0,0.0,0.0,0.0,0.0,0.0,0.0,0.0,0.0,0.9969,1.1661,1.1559,1.158,1.2118,1.1684,1.1096,1.0532,1.0589,1.0407,0.9893,0.9425,0.8925,0.827,0.7827,0.7307,0.678,0.699,0.6461,0.5203,0.4935,0.4008,0.2546,0.2078,0.1273,0.0067,-0.1276,-0.2014,-0.2214,-0.2684,-0.2722,-0.2543,-0.2748,-0.3017,-0.3329,-0.4121,-0.4449,-0.4505,0.0,1.4701,1.4806,1.5124,1.519,1.5511,1.6421,1.6609,1.6872,1.7547,1.7725,1.7716,1.7519,1.7375,1.6995,1.6206,1.4602,1.4695,1.7302,1.5946,1.6548,1.9955,2.0086,1.9728,1.8989,2.0439,2.1304,2.1493,2.2286,2.3218,2.4244,2.4238,2.4734,2.5601,2.5675,2.5664,2.5546,2.477,2.2932,2.0515,2.0502,2.0504,2.0484,0.0,0.0,0.0,0.0,0.0,0.0,0.0,0.0,0.0,0.0,0.0,0.0,0.0,0.0,0.0,0.0,0.0,0.0,0.0,0.0,0.0,0.0,0.0,0.0,0.0,0.0,0.0,0.0,0.0,0.0,0.0,0.0,0.0,0.7799,0.8481,0.9501,1.1375,1.0785,1.0599,1.1603,1.1176,1.0632,1.0133,0.9866,0.9562,0.9168,0.8388,0.7502,0.6654,0.6588,0.5862,0.4287,0.4967,0.4837,0.3758,0.3351,0.221,0.0603,0.0603,-0.0067,-0.1206,-0.2147,-0.3226,-0.4314,-0.4306,-0.43,-0.43,-0.4311,-0.4308,-0.4367,-0.464,-0.47,-0.4691,1.4136,1.4474,1.4736,1.4882,1.5105,1.5353,1.5624,1.6776,1.7226,1.6107,1.8082,1.9051,1.7659,1.7472,1.735,1.7132,1.5047,1.4592,1.6558,1.6261,1.7189,1.9839,1.8288,1.8355,2.044,2.106,2.1981,2.3284,2.4186,2.483,2.5214,2.5231,2.5357,2.5609,2.5662,2.5662,2.56,2.5414,2.4548,2.3141,2.1263,2.0494,2.0429,0.0,0.0,0.0,0.0,0.0,0.0,0.0,0.0,0.0,0.0,0.0,0.0,0.0,0.0,0.0,0.0,0.0,0.0,0.0,0.0,0.0,0.0,0.0,0.0,0.0,0.0,0.0,0.0,0.0,0.0,0.0,0.5634,0.6002,0.7183,0.7393,0.7871,0.8958,0.8905,0.8922,0.9235,0.8974,0.8714,0.8466,0.8458,0.8132,0.733,0.6633,0.5858,0.5001,0.4472,0.4082,0.4025,0.4228,0.3351,0.1339,0.1205,0.0402,-0.1005,-0.1408,-0.1942,-0.2546,-0.3422,-0.3966,-0.4306,-0.4303,-0.4498,-0.4891,-0.4894,-0.509,-0.5481,-0.5815,-0.6137,-0.6544,1.3975,1.4401,1.4718,1.4793,1.5074,1.5431,1.5791,1.676,1.6939,1.5495,1.761,1.8565,1.6747,1.6502,1.6638,1.7011,1.5057,1.4679,1.6758,1.7236,1.7761,1.8438,1.777,1.8439,2.0676,2.1168,2.2249,2.4005,2.4576,2.5101,2.5556,2.5595,2.5613,2.5658,2.6025,2.6188,2.6142,2.6151,2.5876,2.5203,2.2971,2.2076,2.1947,2.0671,2.0334,2.0407,1.9418,1.8798,1.8385,1.7754,0.0,0.0,0.0,0.0,0.0,0.0,0.0,0.0,0.0,0.0,0.0,0.0,0.0,0.0,0.0,0.0,0.0,0.0,0.0,0.0,0.0,0.0,0.0,0.0,0.4286,0.4466,0.5222,0.6081,0.6866,0.7383,0.7627,0.7764,0.7757,0.7422,0.7082,0.6722,0.6573,0.611,0.5252,0.48,0.4475,0.4148,0.3145,0.2626,0.245,0.2423,0.1548,-0.0273,-0.1146,-0.1945,-0.275,-0.3088,-0.3487,-0.3882,-0.4161,-0.4564,-0.4964,-0.4694,-0.5024,0.0,0.0,0.0,0.0,0.0,-0.7225,-0.7648,1.3828,1.4268,1.4578,1.4738,1.5062,1.5559,1.6324,1.659,1.6282,1.5154,1.654,1.6987,1.5234,1.4999,1.5343,1.6329,1.4801,1.4852,1.732,1.8106,1.8006,1.6958,1.8095,1.9287,2.0446,2.1185,2.2374,2.4005,2.4191,2.4694,2.5518,2.5576,2.5636,2.572,2.6424,2.6796,2.6877,2.6729,2.6707,2.6638,2.4984,2.4302,2.4088,2.2429,2.2015,2.2113,2.0306,1.9087,1.818,1.74,0.0,0.0,0.0,0.0,0.0,0.0,0.0,0.0,0.0,0.0,0.0,0.0,0.0,0.0,0.0,0.0,0.0,0.0,0.0,0.0,0.0,0.0,0.0,0.0,0.2677,0.2609,0.2759,0.461,0.6009,0.6176,0.6516,0.6735,0.6754,0.6237,0.568,0.5045,0.4596,0.3939,0.3013,0.0,0.0,0.0,0.0,0.1021,0.014,0.0068,-0.0476,-0.1536,-0.3485,-0.4456,-0.4434,-0.4498,-0.4824,-0.5286,-0.4843,-0.5183,-0.6047,-0.5596,-0.5929,-0.6655,-0.6109,-0.6312,-0.6875,-0.7648,-0.8107,-0.8418,1.2841,1.332,1.3726,1.4437,1.4919,1.5294,1.5517,1.6168,1.5802,1.3501,1.5279,1.6088,1.4335,1.4093,1.4699,1.6253,1.4864,1.4718,1.6678,1.6236,1.6971,1.9304,1.8409,1.9207,2.2066,2.2448,2.3097,2.407,2.4902,2.5409,2.5582,2.5658,2.5661,2.5624,2.5779,2.6208,2.6773,2.6058,2.6082,2.6553,2.5562,2.4753,2.4011,2.2748,2.1882,2.1202,1.9916,1.8956,1.8146,1.7067,1.6536,1.5973,1.3974,1.3087,0.0,0.0,0.0,0.0,0.0,0.0,0.0,0.0,0.0,0.0,0.0,0.0,0.0,0.0,0.0,0.0,0.0,0.0,0.0,0.1654,0.1885,0.2121,0.2143,0.298,0.3752,0.4253,0.448,0.4735,0.5108,0.4705,0.438,0.4209,0.3744,0.2945,0.1742,0.1298,0.0691,-0.0277,-0.0831,-0.1404,-0.2092,-0.2249,-0.2851,-0.3848,0.0,0.0,-0.5352,-0.5811,-0.6203,-0.6539,-0.6684,-0.6814,-0.7035,-0.7181,-0.7729,-0.8477,-0.817,-0.8487,-0.922,-0.9604,-0.9858,-0.9933,1.2221,1.2781,1.3236,1.4128,1.4696,1.5068,1.5226,1.5657,1.5323,1.3571,1.4812,1.5342,1.4043,1.3875,1.438,1.5687,1.5429,1.5777,1.7107,1.6599,1.7186,1.9316,1.8982,1.9945,2.2481,2.2782,2.3308,2.4141,2.4645,2.5143,2.5609,2.5609,2.5595,2.5625,2.5995,2.6618,2.7369,2.6872,2.6803,2.6929,2.6097,2.5171,2.4208,2.3339,2.2284,2.1136,1.9914,1.8202,1.6396,1.5336,1.4242,1.3137,1.205,1.1382,1.0565,0.0,0.0,0.0,0.0,0.0,0.0,0.0,0.0,0.0,0.0,0.0,0.0,0.0,0.0,0.0702,0.0793,0.0,0.0614,0.0648,0.0708,0.0822,0.078,0.1062,0.1585,0.2512,0.2988,0.3062,0.2617,0.2375,0.2207,0.2004,0.1562,0.1021,0.0403,-0.007,-0.092,-0.2097,-0.2686,-0.3224,-0.3715,-0.4446,-0.4812,-0.4893,-0.5728,-0.6116,-0.6009,-0.6622,-0.7065,-0.7479,-0.7473,-0.784,-0.8339,-0.8658,-0.9198,-0.983,-0.985,-1.0024,-1.0249,-1.0455,-1.0695,-1.0948,1.1664,1.2274,1.2811,1.3849,1.4406,1.4802,1.5083,1.5204,1.4958,1.4099,1.4548,1.4672,1.3986,1.3759,1.4139,1.5349,1.5644,1.6319,1.7646,1.7145,1.7454,1.8897,1.9725,2.0993,2.2783,2.3036,2.3507,2.421,2.4374,2.4851,2.5607,2.5567,2.5562,2.5623,2.6213,2.6931,2.766,2.7369,2.7179,2.6986,2.6136,2.5078,2.397,2.3356,2.2442,2.1242,1.9654,1.7448,1.5076,1.399,1.2184,1.0443,1.0545,0.9542,0.7757,0.4989,0.3137,0.0,0.0,0.0,0.0,0.0,0.0,0.0,0.0,0.0361,0.0092,-0.0095,-0.0384,-0.054,-0.0471,-0.0637,-0.0699,-0.0557,-0.0728,-0.084,-0.0728,-0.0728,-0.034,0.0701,0.1547,0.1632,0.0507,0.0439,0.0381,-0.0,-0.048,-0.0825,-0.0941,-0.1623,-0.2445,-0.3523,-0.4321,-0.4832,-0.5173,-0.6085,-0.6197,-0.562,-0.6553,-0.6937,-0.6854,-0.7518,-0.8157,-0.8711,-0.8564,-0.9021,-0.9846,-1.0073,-1.0528,-1.1041,-1.1413,-1.1502,-1.1455,-1.1028,-1.1232,-1.1606,1.0841,1.1492,1.2157,1.3506,1.4125,1.4547,1.4803,1.5008,1.4823,1.4021,1.3997,1.4017,1.3918,1.3215,1.371,1.6133,1.4375,1.435,1.7251,1.5959,1.6506,1.9707,2.0632,2.1981,2.3972,2.4034,2.4096,2.4197,2.5026,2.5498,2.5609,2.5655,2.5644,2.5598,2.5698,2.6018,2.6447,2.5654,2.5541,2.5811,2.501,2.3763,2.2288,2.1693,2.141,2.0992,1.8535,1.7279,1.6607,1.4939,1.2955,1.1175,1.1175,0.8228,0.4377,0.2432,0.1029,-0.0194,-0.1603,-0.1623,-0.1251,-0.1278,-0.0921,-0.0594,0.0,-0.085,-0.1142,-0.1647,-0.2,-0.2379,-0.2997,-0.3124,-0.2946,-0.2498,-0.2508,-0.245,-0.1896,-0.1949,-0.1916,-0.175,-0.0467,0.0415,0.0493,0.0316,0.013,-0.0,-0.0942,-0.1748,-0.241,-0.3727,-0.4764,-0.5474,-0.6127,-0.6506,-0.6656,-0.6663,-0.6722,-0.6762,-0.7573,-0.8108,-0.8405,-0.9129,-1.0008,-1.0861,-1.131,-1.152,-1.1581,-1.1666,-1.2091,-1.2687,-1.3144,-1.3663,-1.3944,-1.2327,-1.1823,-1.1878,0.9904,1.0506,1.1,1.1702,1.3032,1.4176,1.4718,1.4868,1.4853,1.4637,1.4593,1.4607,1.4607,1.4279,1.4701,1.6366,1.4607,1.459,1.7383,1.6276,1.702,2.0439,2.1381,2.2648,2.4397,2.4733,2.4869,2.4775,2.5299,2.5549,2.5531,2.5561,2.5563,2.5541,2.5541,2.582,2.6274,2.5868,2.517,2.4292,2.3648,2.2676,2.139,1.9866,1.7559,1.4995,1.394,1.26,0.0,0.8651,0.7005,0.5828,0.5246,0.3788,0.1811,-0.0545,-0.173,-0.2328,-0.2564,-0.2673,-0.2677,-0.251,-0.2425,-0.2407,-0.2555,-0.2642,-0.277,-0.3039,-0.3208,-0.3404,-0.3737,-0.3818,-0.3727,0.0,-0.3508,-0.345,-0.3174,-0.312,-0.3044,-0.3037,-0.2487,-0.1991,-0.1645,-0.1649,-0.1926,-0.2408,-0.2918,-0.3413,-0.3744,-0.5047,-0.5941,-0.6209,-0.7186,-0.7763,-0.7874,-0.8114,-0.8392,-0.8744,-0.9421,-1.0013,-1.035,-1.1064,-1.1799,-1.2497,-1.2928,-1.3249,-1.3482,-1.3482,-1.3894,-1.4518,-1.4677,-1.5033,-1.5233,-1.3684,-1.3121,-1.3185,0.9172,0.9724,1.0057,1.012,1.1448,1.2801,1.372,1.4022,1.4176,1.4304,1.4381,1.4488,1.4717,1.4435,1.4599,1.5498,1.3456,1.3234,1.5841,1.4998,1.6063,1.9825,2.1003,2.2445,2.4316,2.4972,2.5215,2.5088,2.5252,2.5325,2.5335,2.5342,2.5347,2.5311,2.5038,2.5221,2.5755,2.5361,2.4541,2.346,2.31,2.1053,1.7989,1.5597,1.2094,0.85,0.8646,0.7107,0.4641,0.2637,0.129,0.035,-0.0629,-0.082,-0.112,-0.3339,-0.4171,-0.4243,-0.3724,-0.3817,-0.4065,-0.3988,-0.4018,-0.4109,-0.4352,-0.4285,-0.425,-0.4362,-0.425,-0.4151,-0.4368,-0.4389,-0.4334,-0.4168,-0.4368,-0.4505,-0.4498,-0.4428,-0.44,-0.4488,-0.4561,-0.4469,-0.4136,-0.365,-0.3602,-0.4212,-0.4699,-0.5094,-0.5262,-0.666,-0.7393,-0.7396,-0.8438,-0.9016,-0.926,-0.9552,-0.9997,-1.0526,-1.1112,-1.1579,-1.2019,-1.2777,-1.3326,-1.3677,-1.4216,-1.4604,-1.4843,-1.4914,-1.5359,-1.5989,-1.6244,-1.654,-1.6627,-1.5591,-1.5116,-1.4825,0.8745,0.9294,0.954,0.929,0.9343,0.9898,1.1299,1.2053,1.2455,1.2399,1.2552,1.2965,1.3742,1.2796,1.2389,1.3141,0.9829,0.8856,1.1601,1.0904,1.2487,1.7212,1.8939,2.1013,2.3675,2.4574,2.4943,2.4812,2.4886,2.4918,2.4913,2.4985,2.4972,2.4878,2.3827,2.3773,2.4376,2.3209,2.3129,2.3791,2.3773,1.8565,1.0528,0.7643,0.5036,0.2975,0.3302,0.1668,-0.0702,-0.0915,-0.211,-0.3677,-0.447,-0.4716,-0.4903,-0.5772,-0.5867,-0.5732,-0.5641,-0.5417,-0.5416,-0.603,-0.5799,-0.5513,-0.5851,-0.5584,-0.5354,-0.5575,-0.5067,-0.4752,-0.534,-0.5453,-0.5236,-0.4651,-0.523,-0.5727,-0.5642,-0.5914,-0.6224,-0.6455,-0.6722,-0.6851,0.0,-0.5088,-0.4201,-0.446,-0.5735,-0.6696,-0.708,-0.8634,-0.9577,-0.9699,-0.9902,-1.0289,-1.0808,-1.0826,-1.119,-1.183,-1.2118,-1.2478,-1.3018,-1.4182,-1.4567,-1.4303,-1.537,-1.564,-1.544,-1.5823,-1.6324,-1.7049,-1.7896,-1.8413,-1.8575,-1.8499,-1.7603,-1.6407,0.6917,0.7382,0.7158,0.528,0.6507,0.7523,0.6747,0.9423,1.1764,1.2403,1.0783,0.0,0.0,0.0,0.0,0.0,0.7659,0.7387,0.7105,0.7741,0.8977,1.0855,1.1162,1.1678,1.252,1.5504,1.6982,1.6893,2.071,2.2846,2.3379,2.3358,2.1106,1.7055,1.6697,1.4209,1.0315,1.1204,1.0955,1.003,1.1202,0.9192,0.5336,0.3704,0.0475,-0.3217,0.0,-0.4251,-0.5368,-0.5118,-0.5356,-0.5914,-0.6293,-0.6165,-0.596,-0.6542,-0.6534,-0.6409,-0.668,-0.7039,-0.7301,-0.7255,-0.7318,-0.7308,-0.7145,-0.71,-0.6865,-0.6346,-0.6216,-0.6178,-0.6176,-0.6331,-0.6481,-0.6472,-0.6675,-0.6943,-0.7138,-0.7125,-0.7206,-0.7378,-0.7473,0.0,0.0,0.0,0.0,-0.7115,-0.7686,-0.8165,-0.8564,-0.9707,-1.0412,-1.0469,-1.0758,-1.1485,-1.2706,-1.2103,-1.2517,-1.3925,-1.4111,-1.4425,-1.4804,-1.5731,-1.6166,-1.6047,-1.6926,-1.7429,-1.7635,-1.8034,-1.831,-1.8612,-1.9181,-1.9264,-1.9091,-1.9057,-1.8938,-1.8528,0.0,0.6044,0.5573,0.2513,0.3673,0.0,0.0,0.0,0.0,0.0,0.0,0.0,0.0,0.0,0.0,0.0,0.0,0.3871,0.33,0.3744,0.4716,0.628,0.6167,0.6349,0.6964,0.9897,1.1453,1.1513,1.4987,1.6956,1.7455,1.7253,1.4995,1.1079,1.0708,0.8417,0.4898,0.5758,0.5112,0.3542,0.3872,0.2301,-0.0349,-0.1358,-0.3873,0.0,-0.6771,-0.7315,-0.8007,-0.7576,-0.738,-0.7338,-0.7487,-0.7404,-0.7248,-0.743,-0.7691,-0.7959,-0.81,-0.8699,-0.9227,-0.919,-0.9307,-0.9321,-0.9092,-0.8937,-0.8473,-0.7389,-0.7121,-0.6951,-0.6466,-0.6554,-0.683,-0.7229,-0.7288,-0.7464,-0.814,-0.8099,-0.8178,-0.8586,-0.8703,-0.8795,0.0,0.0,0.0,-0.8749,-0.9153,-0.9631,-1.0129,-1.0937,-1.151,-1.1625,-1.1825,-1.2527,-1.3708,-1.312,-1.3587,-1.5032,-1.5586,-1.5888,-1.6191,-1.7083,-1.7401,-1.738,-1.8155,-1.8574,-1.8718,-1.912,-1.9299,-1.9347,-1.9769,-1.9668,-1.932,-1.9467,-1.9604,-1.9435,0.0,0.0,0.4764,0.0,0.0,0.0,0.0,0.0,0.0,0.0,0.0,0.0,0.0,0.0,0.0,0.0,0.0,0.0,0.0051,-0.097,-0.011,0.3238,0.3659,0.4607,0.6287,0.7417,0.8093,0.8353,0.8095,0.7976,0.7997,0.761,0.7224,0.68,0.5768,0.5889,0.677,0.5771,0.4708,0.3515,0.1559,-0.2072,-0.6393,-0.7271,-0.7797,-0.7923,-0.715,-0.7693,-0.878,-0.8336,-0.8117,-0.8085,-0.8221,-0.8518,-0.8755,-0.8464,-0.9332,-1.0254,-0.9852,-1.0441,-1.1255,-1.1778,-1.1688,-1.1479,-1.1449,-1.0933,-0.998,-0.8652,-0.7822,-0.7139,-0.6416,-0.6301,-0.6524,-0.7103,-0.7182,-0.7566,-0.8763,-0.8956,-0.9277,-1.0082,-1.0352,-1.0582,0.0,0.0,0.0,-0.9447,0.0,-1.1027,-1.1595,-1.223,-1.2787,-1.3065,-1.3148,-1.3452,-1.3956,-1.3995,-1.4506,-1.5343,-1.6456,-1.6942,-1.7,-1.8082,-1.8382,-1.8083,-1.8918,-1.911,-1.8772,-1.917,-1.9329,-1.9375,-1.9797,-1.9714,-1.9412,-1.9815,-1.9705,-1.9252,0.0,0.0,0.0,0.0,0.0,0.0,0.0,0.0,0.0,0.0,0.0,0.0,0.0,0.0,0.0,0.0,0.0,0.0,-0.4676,-0.3807,-0.3324,-0.354,-0.3815,-0.4032,-0.4213,-0.1716,-0.0381,-0.0319,0.3007,0.4866,0.5365,0.5171,0.2527,-0.2056,-0.2428,-0.4978,-0.8921,-0.7915,-0.794,-0.8536,-0.6923,-0.7396,-0.8897,-0.7954,-0.8002,-0.8512,-0.784,-0.835,-0.9182,-0.8383,-0.837,-0.8703,-0.8894,-0.8946,-0.9068,-0.9608,-1.048,-1.1349,-1.1674,-1.2316,-1.2933,-1.2872,-1.2572,-1.2092,-1.1306,-1.0581,-0.9777,-0.8709,-0.8302,-0.7968,-0.7551,-0.7658,-0.808,-0.8783,-0.8889,-0.9397,-1.0894,-1.1084,-1.1169,-1.1376,-1.1471,-1.1464,-1.1228,-1.1568,0.0,0.0,-1.1434,-1.1783,-1.233,-1.2626,-1.2918,-1.3341,-1.3683,-1.4235,-1.483,-1.5721,-1.6525,-1.7296,-1.7361,-1.7598,-1.8215,-1.8554,-1.8778,-1.8945,-1.9227,-1.9243,-1.917,-1.956,-1.9769,-1.9815,-2.0209,-2.0301,-2.0218,-2.0328,-2.0301,-2.0099,0.0,0.0,0.0,0.0,0.0,0.0,0.0,0.0,0.0,0.0,0.0,0.0,0.0,0.0,0.0,0.0,0.0,0.0,0.0,-0.6375,-0.6556,-0.7127,-0.7634,-0.8078,-0.8441,-0.6746,-0.5646,-0.5217,-0.3257,-0.198,-0.1358,-0.1992,-0.4194,-0.7627,-0.7703,-0.9603,-1.2673,-1.1698,-1.1147,0.0,0.0,-0.9478,-0.9392,-0.8763,-0.8886,-0.9318,-0.8521,-0.8442,-0.8692,-0.8796,-0.8984,-0.9244,-0.9979,-1.0166,-1.0276,-1.1118,-1.1843,-1.249,-1.3087,-1.3761,-1.4206,-1.3893,-1.3482,-1.2884,-1.1831,-1.1143,-1.038,-0.9213,-0.8953,-0.8776,-0.8248,-0.818,-0.8462,-0.9341,-0.9358,-0.9831,-1.1387,-1.1956,-1.2247,-1.24,-1.2488,-1.2597,-1.2597,-1.2604,-1.266,0.0,-1.2461,-1.2539,-1.3014,-1.3441,-1.4028,-1.4816,-1.5057,-1.5576,-1.6353,-1.7158,-1.7874,-1.8416,-1.8612,-1.8823,-1.9164,-1.9377,-1.9552,-1.9588,0.0,-1.9476,-1.932,-1.9558,-1.976,-1.9952,-2.0173,-2.0365,-2.0521,-2.0521,-2.0521,-2.0484,0.0,0.0,0.0,0.0,0.0,0.0,0.0,0.0,0.0,0.0,-0.2316,-0.2464,0.0,0.0,0.0,0.0,0.0,0.0,0.0,0.0,-0.9174,-0.865,-0.8962,-0.9054,-0.8847,-0.8951,-0.8574,-0.771,-0.9116,-0.9542,-0.9075,-1.0213,-1.0734,-1.0734,-1.0751,-1.0583,-1.0302,-1.032,-0.9677,-0.8734,-0.9884,-0.9848,-0.9221,0.0,-1.0008,-1.0147,-0.9269,-0.8443,-0.798,-0.942,-0.9618,-0.9473,-1.0894,-1.1428,-1.1684,-1.2542,-1.3129,-1.3669,-1.4327,-1.4958,-1.5332,-1.4939,-1.4355,-1.3636,-1.2743,-1.1957,-1.1103,-0.9984,-0.967,-0.9415,-0.8762,-0.8356,-0.8477,-0.9537,-0.945,-0.9822,-1.139,-1.2325,-1.2955,-1.3389,-1.3525,-1.3743,-1.4154,-1.3863,-1.3588,-1.3579,-1.3509,-1.3534,-1.376,-1.4453,-1.5462,-1.6919,-1.6861,-1.7302,-1.823,-1.854,-1.8944,-1.9356,-2.0108,-2.0374,-2.0247,-2.0484,-2.0393,-2.0081,-1.9916,-1.9732,-1.9531,-1.9485,-1.9742,-2.0173,-2.0173,-2.0374,-2.0686,-2.0686,-2.0686,-2.0668,0.0,0.0,0.0,0.0,0.0,0.0,0.0,0.0,0.0,0.0,-0.7557,-0.5938,0.0,0.0,0.0,0.0,0.0,0.0,0.0,0.0,0.0,-0.9309,-0.8733,-0.8437,-0.8567,-0.9153,-0.9464,-0.9391,-1.041,-1.0931,-1.0936,-1.1268,-1.1431,-1.1431,-1.155,-1.1467,-1.1262,-1.1425,-1.1505,-1.1457,-1.1089,-1.1013,-1.1073,-1.0628,0.0,0.0,-1.0348,-0.9554,-0.8788,-1.0031,-0.9517,-0.8612,-1.0169,-1.0887,-1.1404,-1.2829,-1.3882,-1.4789,-1.5877,-1.6351,-1.6434,-1.618,-1.4944,-1.3714,-1.345,-1.1799,-1.0433,-1.0647,-1.0093,-0.9554,-0.9433,-0.9346,-0.9582,-1.0513,-1.0604,-1.1352,-1.3536,-1.4,-1.4205,-1.4531,-1.4758,-1.4688,-1.4273,-1.4282,0.0,0.0,-1.4716,-1.5092,-1.4754,-1.5117,-1.6291,-1.8302,-1.8711,-1.9259,-2.0093,-2.0109,-2.0537,-2.1392,-2.1551,-2.1683,-2.175,-2.1211,-2.091,-2.0842,-1.9842,0.0,-2.0769,-2.0438,-2.0741,-2.142,-2.142,-2.1465,-2.152,-2.152,-2.152,-2.1475,0.0,0.0,0.0,0.0,0.0,0.0,0.0,-1.2593,-1.227,-1.168,-1.0178,-0.8894,-0.8152,-0.7467,-0.6982,0.0,0.0,0.0,0.0,0.0,0.0,0.0,0.0,0.0,-0.9704,-1.0118,-1.0243,-1.0066,0.0,-1.1366,-1.1156,-1.1662,-1.1891,-1.1869,-1.1927,-1.1869,-1.1783,-1.1869,-1.1829,-1.1699,-1.1385,-1.1325,0.0,0.0,0.0,0.0,0.0,-1.01,-0.9336,-1.0452,-0.9716,-0.8667,-1.0486,-1.1297,-1.184,-1.3309,-1.4065,-1.4779,-1.6424,-1.6806,-1.6642,-1.6133,-1.4816,-1.3536,-1.2935,-1.1555,-1.0509,-1.0822,-1.0562,-1.0278,-1.0269,-0.9914,-0.9971,-1.1075,-1.0746,-1.1199,-1.3678,-1.3931,-1.427,-1.5417,-1.54,-1.5294,-1.5352,-1.5319,-1.5289,-1.5118,-1.6017,-1.6169,-1.5323,-1.694,-1.8356,-1.9211,-2.0296,-2.0994,-2.1391,-2.1359,-2.1686,-2.2302,-2.2549,-2.2686,-2.263,-2.1744,-2.1345,-2.1259,-2.0135,0.0,-2.0191,-2.042,-2.075,-2.1117,-2.1264,-2.1493,-2.1741,-2.1741,-2.1741,-2.1704,0.0,0.0,0.0,0.0,0.0,0.0,-1.3545,-1.3728,-1.3244,-1.2271,-1.1819,-1.1256,-1.0417,-0.9285,-0.8572,0.0,0.0,0.0,0.0,0.0,0.0,0.0,0.0,0.0,0.0,0.0,0.0,-1.0456,-1.1235,0.0,0.0,0.0,0.0,0.0,-1.2054,-1.2012,-1.1891,-1.197,-1.1776,0.0,0.0,-1.1392,0.0,0.0,0.0,0.0,0.0,-1.0486,-0.9914,-1.0728,-1.011,-0.9316,-1.0966,-1.1548,-1.1945,-1.356,-1.419,-1.4752,-1.6761,-1.7353,-1.7124,-1.6187,-1.4767,-1.3351,-1.2591,-1.1428,-1.0614,-1.1079,-1.1029,-1.0915,-1.0905,-1.0263,-1.0137,-1.1283,-1.0775,-1.1034,-1.3303,-1.367,-1.4307,-1.5987,-1.5906,-1.6006,-1.6595,-1.6557,0.0,-1.638,-1.7096,-1.7159,-1.631,-1.8974,-2.0431,-2.0329,-2.1586,-2.2327,-2.2327,-2.2357,-2.2579,-2.2939,-2.3509,-2.3648,-2.3304,-2.2373,-2.1894,-2.1713,-2.0538,-1.997,0.0,-2.0512,-2.0833,-2.0924,-2.1145,-2.1438,-2.1741,-2.1741,-2.1741,-2.1741,0.0,0.0,0.0,0.0,0.0,0.0,-1.356,-1.395,-1.4011,-1.3659,-1.3165,-1.2701,-1.2383,-1.0466,-0.9199,0.0,0.0,0.0,0.0,0.0,0.0,0.0,0.0,0.0,0.0,0.0,0.0,-1.0931,-1.1273,0.0,0.0,0.0,0.0,0.0,0.0,-1.1891,-1.1557,-1.1869,0.0,0.0,0.0,0.0,0.0,0.0,0.0,0.0,0.0,-1.0902,-1.0804,-1.0938,-1.0729,-1.0494,-1.099,-1.0658,-1.0572,-1.3034,-1.4377,-1.5531,-1.7495,-1.856,-1.8824,-1.7461,-1.5276,-1.3438,-1.3531,-1.1601,-1.0199,-1.1672,-1.1404,-1.0899,-1.0891,-1.0544,-1.043,-1.1063,-1.1422,-1.2057,-1.3233,-1.4154,-1.5075,-1.6249,-1.6677,-1.702,-1.7503,-1.7585,-1.7448,-1.7233,-1.7969,-1.8552,-1.8825,-2.0551,-2.1648,-2.2082,-2.2581,-2.2927,-2.2927,-2.3362,-2.3613,-2.3579,-2.4581,-2.4701,-2.395,-2.3502,-2.2869,-2.2119,-2.1135,-2.1015,0.0,-2.1594,-2.1832,-2.2162,-2.219,-2.2006,-2.1741,-2.1741,-2.1741,-2.1741,0.0,0.0,0.0,0.0,0.0,0.0,-1.3527,-1.3747,-1.3831,-1.3787,-1.3203,-1.2753,-1.2729,-1.173,-1.0991,-1.0887,-1.0906,0.0,0.0,0.0,0.0,0.0,0.0,0.0,0.0,0.0,-1.1192,-1.1192,-1.1201,0.0,0.0,0.0,0.0,0.0,0.0,-1.1927,-1.1747,0.0,0.0,0.0,0.0,0.0,0.0,0.0,0.0,0.0,0.0,0.0,-1.0968,-1.1132,-1.0786,-1.0399,-1.088,-1.0258,-0.974,-1.164,-1.3309,-1.4805,-1.6065,-1.736,-1.8116,-1.6977,-1.5257,-1.3729,-1.3324,-1.1919,-1.0986,-1.1895,-1.1847,-1.1566,-1.1308,-1.0948,-1.0853,-1.137,-1.1233,-1.1608,-1.3168,-1.3775,-1.4666,-1.6198,-1.6777,-1.7162,0.0,0.0,-1.8171,-1.836,-1.9142,-1.9812,-2.025,-2.1113,-2.1811,-2.2302,-2.2761,-2.3001,-2.3001,-2.3198,-2.3438,-2.3733,-2.4126,-2.4436,-2.4712,-2.3621,-2.3202,-2.3368,-2.2319,-2.1948,0.0,-2.2465,-2.2409,-2.224,-2.2048,-2.1878,-2.1741,-2.1741,-2.1741,-2.1741,0.0,0.0,0.0,0.0,0.0,-1.2624,-1.3372,-1.3672,-1.3794,-1.3758,-1.3225,-1.2856,-1.2838,-1.2575,-1.2349,-1.2189,-1.2061,0.0,0.0,0.0,0.0,0.0,0.0,0.0,0.0,0.0,-1.1085,-1.1015,-1.1085,-1.1141,0.0,0.0,-1.1725,-1.1666,0.0,0.0,0.0,0.0,0.0,0.0,0.0,0.0,0.0,0.0,0.0,0.0,0.0,0.0,0.0,0.0,0.0,-1.0525,-1.1059,-1.0415,-0.9741,-1.0949,-1.2234,-1.3483,-1.4567,-1.578,-1.6516,-1.5556,-1.4372,-1.331,-1.2638,-1.1801,-1.1369,-1.2119,-1.2186,-1.1997,-1.1556,-1.1201,-1.1018,-1.1344,-1.1065,-1.1297,-1.2689,-1.3429,-1.4355,-1.5804,-1.6612,-1.7214,-1.7864,-1.8319,-1.8788,-1.911,-1.9849,-2.0456,-2.0834,-2.1496,-2.2018,-2.2499,-2.2826,-2.3001,-2.3001,-2.3143,-2.3318,-2.3514,-2.3951,-2.4443,-2.4956,-2.3982,-2.378,-2.4147,-2.331,-2.293,0.0,-2.3167,-2.3093,-2.2609,-2.2397,-2.2167,-2.2008,-2.1741,-2.1909,-2.2078,0.0,0.0,0.0,0.0,0.0,-1.2506,-1.3117,-1.3828,-1.4127,-1.365,-1.3537,-1.3344,-1.294,-1.2887,-1.2815,-1.261,-1.2245,0.0,0.0,0.0,0.0,0.0,0.0,0.0,-1.1108,-1.0968,-1.0729,-1.0399,-1.0944,-1.1155,-1.1108,-1.1652,-1.1805,-1.1586,0.0,0.0,0.0,0.0,0.0,0.0,0.0,0.0,0.0,0.0,0.0,0.0,0.0,0.0,0.0,0.0,0.0,0.0,0.0,-1.1219,-1.0813,-1.1424,-1.1402,-1.1605,-1.333,-1.4219,-1.4363,-1.3213,-1.2451,-1.1932,-1.1593,-1.1049,-1.1006,-1.2418,-1.2377,-1.1968,-1.1553,-1.1207,-1.0905,-1.0669,-1.1034,-1.144,-1.1592,-1.3155,-1.448,-1.4956,-1.6208,-1.7398,-1.8288,-1.8796,-1.9131,-1.9285,-1.9917,0.0,-2.0601,-2.1648,-2.2521,-2.2979,-2.3001,-2.3001,-2.3001,-2.3482,-2.3482,-2.3023,-2.4465,-2.4923,-2.4508,-2.4956,-2.4826,-2.4157,-2.4136,-2.3711,0.0,-2.3609,-2.379,-2.379,-2.379,-2.3387,-2.2706,-2.1998,-2.2334,-2.2921,0.0,0.0,0.0,0.0,0.0,0.0,-1.147,-1.161,-1.1924,-1.2564,-1.2199,-1.2132,-1.2824,-1.2885,-1.2867,-1.2811,-1.2553,0.0,0.0,0.0,0.0,0.0,0.0,0.0,-1.1571,-1.131,-1.1071,-1.0873,-1.0897,-1.0968,-1.1038,-1.1437,-1.1637,-1.1666,-1.1743,-1.1713,0.0,0.0,0.0,0.0,0.0,0.0,0.0,0.0,0.0,0.0,0.0,0.0,0.0,0.0,0.0,0.0,0.0,0.0,0.0,-1.1204,-1.094,-1.0808,-1.1749,-1.2415,-1.286,-1.2935,-1.2545,-1.2128,-1.2164,-1.1761,-1.1615,-1.2525,-1.2603,-1.2401,-1.2029,-1.1689,-1.1356,-1.1132,-1.1261,-1.1552,-1.1996,-1.3351,-1.4718,-1.5815,-1.7409,-1.8601,0.0,0.0,-1.941,-1.9938,-2.0599,-2.1145,-2.1528,-2.2361,-2.2706,-2.2542,-2.2837,-2.3001,-2.3001,-2.3154,-2.3318,-2.3504,-2.3962,-2.4454,-2.4956,-2.4781,-2.4973,-2.5395,-2.5284,-2.5163,0.0,-2.5096,-2.4965,-2.4563,-2.4146,-2.3785,-2.3464,-2.3193,-2.328,-2.3617,0.0,0.0,0.0,0.0,0.0,0.0,-1.0585,-1.0745,-1.1075,-1.1693,-1.1412,-1.1496,-1.2452,-1.2513,-1.2573,-1.2778,-1.2662,0.0,0.0,0.0,0.0,0.0,0.0,0.0,-1.1854,-1.1601,-1.137,-1.1085,-1.1085,-1.1062,-1.1085,-1.1415,-1.1659,-1.1768,-1.1733,-1.1749,0.0,0.0,0.0,0.0,0.0,0.0,-1.1781,0.0,0.0,0.0,0.0,0.0,0.0,0.0,0.0,0.0,0.0,0.0,0.0,0.0,-1.0486,-0.9902,-1.069,-1.0978,-1.1202,-1.1639,-1.1681,-1.1666,-1.1895,-1.1678,-1.1623,-1.2381,-1.2477,-1.2304,-1.1931,-1.1892,-1.1763,-1.1319,-1.1501,-1.1683,-1.1757,-1.3209,0.0,-1.653,0.0,0.0,0.0,-1.9312,-1.9674,-2.0354,-2.0962,-2.1431,-2.1854,-2.2567,-2.2856,-2.254,-2.2981,-2.315,-2.3001,-2.3298,-2.3453,-2.346,-2.3939,-2.4448,-2.4912,-2.5112,-2.5558,-2.6113,-2.6285,0.0,0.0,-2.5853,-2.5579,-2.5411,-2.4692,-2.4335,-2.4241,-2.4241,-2.4241,-2.4241,0.0,0.0,0.0,0.0,0.0,0.0,0.0,-1.0872,-1.117,-1.1039,-1.1087,-1.135,-1.1956,-1.191,-1.2036,-1.2584,-1.262,0.0,0.0,0.0,0.0,0.0,0.0,-1.2173,-1.1972,-1.1897,-1.1615,-1.1178,-1.1421,-1.1421,-1.1247,-1.1549,-1.1768,-1.1903,-1.1414,-1.1239,0.0,0.0,0.0,0.0,-1.107,-1.1389,0.0,0.0,0.0,0.0,0.0,0.0,0.0,0.0,0.0,0.0,0.0,0.0,0.0,0.0,0.0,0.0,0.0,-1.0023,-0.9581,-0.9742,-1.0204,-1.0706,-1.107,-1.1038,0.0,-1.2121,-1.2123,-1.1862,-1.1479,-1.1978,-1.2197,-1.1485,-1.183,-1.1901,-1.1208,-1.2999,0.0,0.0,-1.7906,0.0,-1.886,-1.936,-1.9916,-2.0601,-2.1123,-2.1463,-2.1706,-2.255,-2.3032,-2.2936,-2.3408,-2.3519,-2.3075,-2.3824,-2.3824,-2.3086,-2.4299,-2.4796,-2.4601,-2.5769,-2.6405,0.0,-2.6964,0.0,0.0,-2.608,-2.6008,-2.6351,-2.5443,-2.5031,-2.5031,-2.5031,-2.5031,-2.4946,0.0,0.0,0.0,0.0,0.0,0.0,0.0,0.0,0.0,0.0,-1.0323,-1.0819,-1.2016,-1.2088,-1.2307,0.0,0.0,0.0,0.0,0.0,0.0,0.0,-1.3019,-1.2785,-1.2588,-1.2435,-1.2179,-1.1861,-1.1826,-1.1762,-1.1659,-1.1637,-1.1811,-1.2128,-1.205,-1.2175,0.0,0.0,0.0,0.0,-1.2117,-1.2106,0.0,0.0,0.0,0.0,-1.2185,-1.2323,0.0,0.0,0.0,0.0,0.0,0.0,0.0,0.0,-1.0837,-1.0234,-1.0851,0.0,-0.9247,-1.0271,-1.0658,-1.0892,0.0,-1.1612,-1.1848,-1.2291,-1.2552,-1.2643,-1.2527,-1.2495,-1.2567,-1.2894,-1.2803,-1.281,-1.2998,-1.4782,0.0,-1.7355,-1.8562,-1.9244,-1.9147,-1.9866,-2.0622,-2.1305,-2.1713,-2.2084,-2.2462,-2.2981,-2.3273,-2.3301,-2.408,-2.4345,-2.3897,-2.4116,-2.4116,-2.3897,-2.4608,-2.4831,-2.4816,-2.547,-2.605,-2.644,0.0,0.0,-2.6268,-2.7033,-2.6775,-2.6102,-2.6517,-2.6682,-2.6682,-2.6682,-2.6434,-2.6102,0.0,0.0,0.0,0.0,0.0,0.0,0.0,0.0,0.0,0.0,-1.056,-1.1019,-1.2145,-1.212,-1.2356,0.0,0.0,0.0,0.0,0.0,0.0,-1.3346,-1.3278,-1.3087,-1.2811,-1.2684,-1.2455,-1.2107,-1.2024,-1.1955,-1.1891,-1.1848,-1.1976,-1.2246,-1.2431,-1.2665,-1.282,-1.2546,-1.2577,-1.2801,-1.218,0.0,0.0,0.0,0.0,0.0,-1.2226,-1.2363,0.0,-1.2298,-1.2669,-1.3127,0.0,0.0,0.0,0.0,-1.1475,-1.0897,-1.1015,-1.039,-0.9995,-1.1128,-1.1166,-1.12,-1.2225,-1.203,-1.1809,-1.2424,-1.2564,-1.2586,-1.2586,-1.2679,-1.2902,-1.3322,-1.3444,-1.3698,0.0,0.0,-1.6493,-1.7669,-1.8623,-1.9296,0.0,-2.0096,-2.0662,-2.1437,-2.1664,-2.207,-2.2693,-2.3165,-2.3513,-2.3642,-2.4448,-2.4646,-2.42,-2.455,-2.4539,-2.42,-2.5051,-2.5284,-2.4935,-2.5832,-2.6434,0.0,0.0,0.0,-2.708,-2.7025,-2.699,-2.6787,-2.6775,-2.694,-2.7185,-2.7185,-2.7021,-2.6775,0.0,0.0,0.0,0.0,0.0,0.0,0.0,0.0,0.0,0.0,0.0,0.0,0.0,0.0,0.0,0.0,0.0,0.0,0.0,0.0,-1.3329,-1.3329,-1.3396,-1.3311,-1.3032,-1.2915,-1.2739,-1.2541,-1.237,-1.2261,-1.2207,-1.2244,-1.2287,-1.2368,-1.2706,-1.2891,-1.2947,-1.2439,-1.2556,-1.2965,-1.2006,0.0,0.0,0.0,0.0,0.0,0.0,0.0,0.0,-1.2439,-1.2754,-1.3166,-1.3248,0.0,0.0,0.0,0.0,0.0,-1.1085,-1.0968,-1.1083,-1.1823,-1.1565,-1.1545,-1.3039,-1.2332,-1.1691,-1.2602,-1.2596,-1.239,0.0,-1.283,0.0,0.0,0.0,0.0,-1.5911,-1.5924,-1.6475,-1.8066,-1.8696,0.0,-2.0018,-2.0227,-2.0687,-2.1452,-2.1541,-2.1844,-2.2513,-2.3029,-2.3514,-2.393,-2.446,-2.4624,-2.4406,-2.4969,-2.4969,-2.4406,-2.548,-2.5609,-2.5032,-2.617,-2.6733,-2.6966,0.0,0.0,-2.8116,-2.6908,-2.6955,-2.7708,-2.6869,-2.6928,-2.7429,-2.7429,-2.7348,-2.7267,0.0,0.0,0.0,0.0,0.0,0.0,0.0,0.0,0.0,0.0,0.0,0.0,0.0,0.0,0.0,0.0,0.0,0.0,0.0,-1.3546,-1.3528,-1.3462,-1.3527,-1.3735,-1.4057,-1.3404,-1.3516,-1.4481,-1.3621,-1.3165,-1.3093,-1.2954,-1.2747,-1.2572,-1.2964,-1.321,-1.3312,-1.3277,-1.3261,-1.3226,-1.2829,0.0,0.0,0.0,0.0,0.0,0.0,0.0,0.0,-1.2236,-1.2706,-1.3352,-1.3242,0.0,0.0,0.0,0.0,0.0,-1.1527,-1.1497,-1.1405,-1.1506,-1.1471,-1.1661,-1.2551,-1.2573,-1.2565,-1.3155,-1.331,-1.3297,0.0,-1.334,-1.3769,0.0,0.0,-1.6421,0.0,0.0,-1.7709,-1.8529,0.0,-2.0184,-1.9979,-2.0975,-2.1715,-2.1795,-2.2124,-2.2278,-2.2414,-2.2847,-2.3293,-2.3802,-2.4318,-2.4716,-2.5099,-2.5241,-2.5241,-2.5099,-2.5325,-2.5361,-2.5218,-2.5445,-2.5769,-2.6296,0.0,-2.6801,-2.6815,-2.7747,-2.7775,-2.7348,-2.7926,-2.8179,-2.8259,-2.8259,-2.8111,-2.7626,0.0,0.0,0.0,0.0,0.0,0.0,0.0,0.0,0.0,0.0,0.0,0.0,0.0,0.0,0.0,0.0,0.0,0.0,-1.411,-1.4041,-1.4157,-1.4563,-1.4511,-1.4368,-1.4203,-1.4117,-1.4312,-1.4796,-1.4326,-1.4079,-1.3989,-1.3568,-1.3151,-1.2762,-1.3034,-1.3261,-1.3462,-1.3446,-1.3429,-1.3379,0.0,0.0,0.0,0.0,0.0,0.0,0.0,0.0,0.0,0.0,-1.2691,-1.333,-1.319,0.0,0.0,0.0,0.0,0.0,-1.1623,-1.163,-1.1652,-1.163,-1.1873,-1.2341,-1.3078,-1.3387,-1.3543,-1.3588,-1.398,0.0,0.0,0.0,-1.4362,-1.5453,0.0,-1.7374,-1.8348,-1.8496,-1.8661,0.0,0.0,-2.0495,-2.0614,-2.1174,-2.1578,-2.176,-2.1952,-2.2079,-2.2282,-2.2759,-2.3087,-2.334,-2.3845,-2.423,-2.4482,-2.4482,-2.4759,-2.5312,-2.56,-2.5588,-2.5312,-2.5612,-2.5865,-2.6093,0.0,-2.6459,-2.716,-2.7514,-2.7746,-2.7926,-2.8339,-2.851,-2.851,-2.851,-2.8283,-2.78,0.0,0.0,0.0,0.0,0.0,0.0,0.0,0.0,0.0,0.0,0.0,0.0,0.0,0.0,0.0,0.0,0.0,0.0,-1.441,-1.4351,-1.4649,-1.5422,-1.5404,-1.5101,-1.4595,-1.4805,-1.4986,-1.5184,-1.5002,-1.4796,-1.4584,-1.3982,-1.3392,-1.2906,-1.3069,-1.3261,-1.3496,-1.3633,-1.3582,-1.3446,0.0,0.0,0.0,0.0,0.0,0.0,0.0,0.0,0.0,0.0,0.0,0.0,0.0,0.0,0.0,-1.2856,-1.2426,-1.1991,-1.1667,-1.1815,-1.2051,-1.2073,-1.2426,-1.2956,-1.3681,-1.4212,-1.4529,-1.4322,0.0,0.0,0.0,-1.4543,0.0,-1.6203,-1.7226,-1.813,-1.8762,-1.9116,-1.9494,-1.9963,-2.0437,-2.0896,-2.1313,-2.1411,-2.1537,-2.1788,-2.1788,-2.1925,-2.2197,-2.2633,-2.2911,-2.3031,-2.3506,-2.3772,-2.3893,-2.3827,-2.4285,-2.5131,-2.554,-2.5576,-2.5324,-2.5733,-2.5913,-2.5901,-2.5612,-2.6202,-2.732,-2.7043,-2.7488,-2.833,-2.833,-2.8402,-2.851,-2.851,-2.8283,-2.8042,0.0,0.0,0.0,0.0,0.0,0.0,0.0,0.0,0.0,0.0,0.0,0.0,0.0,0.0,0.0,0.0,0.0,0.0,-1.4015,-1.4203,-1.4613,-1.5288,-1.5664,-1.5868,-1.5958,-1.5271,-1.5459,-1.6645,-1.5892,-1.5225,-1.4584,-1.3923,-1.3352,-1.292,-1.3122,-1.3312,-1.353,-1.4229,-1.404,-1.3362,-1.3889,0.0,0.0,0.0,0.0,0.0,0.0,0.0,0.0,0.0,0.0,0.0,0.0,0.0,-1.2909,-1.3167,-1.2737,-1.2143,-1.1833,-1.2298,-1.2833,-1.2894,-1.2947,-1.3175,-1.3839,-1.474,-1.5492,-1.5709,0.0,0.0,0.0,-1.612,-1.6718,-1.7316,-1.7937,-1.8755,-1.99,0.0,-2.0429,-2.1049,-2.1416,-2.1604,-2.1651,-2.1925,-2.2123,-2.2185,-2.2185,-2.2185,-2.2197,-2.2345,-2.2638,-2.3198,-2.3386,-2.3707,-2.4186,-2.4079,-2.4159,-2.4578,-2.4614,-2.4867,-2.5312,-2.5348,-2.536,-2.5384,-2.5841,-2.6105,-2.625,-2.6731,-2.7272,-2.7777,-2.7777,-2.8077,-2.851,-2.851,-2.851,-2.8431,0.0,0.0,0.0,0.0,0.0,0.0,0.0,0.0,0.0,0.0,0.0,0.0,0.0,0.0,0.0,0.0,0.0,-1.457,-1.5449,-1.5456,-1.577,-1.6569,-1.6588,-1.6605,-1.6654,-1.6159,-1.612,-1.6607,-1.6354,-1.593,-1.5407,-1.5275,-1.5011,-1.466,-1.4863,-1.5055,-1.5242,-1.5331,-1.4915,-1.423,-1.4236,-1.4036,0.0,0.0,0.0,0.0,0.0,0.0,0.0,0.0,-1.3121,-1.3067,-1.3235,-1.3062,-1.2789,-1.2751,-1.2489,-1.2159,-1.1955,-1.2455,-1.3039,-1.3061,-1.3711,-1.4323,0.0,-1.5182,-1.6018,-1.5499,-1.6228,0.0,0.0,0.0,-1.6501,-1.737,-1.8306,-1.9228,-1.9962,-2.033,-2.0649,-2.0879,-2.1235,-2.1498,-2.1498,-2.1632,-2.1837,-2.2161,-2.1885,-2.1849,-2.2173,-2.2297,-2.2359,-2.2226,-2.2739,-2.2911,-2.269,-2.3045,-2.3423,-2.3896,-2.4273,-2.4626,-2.4831,-2.5155,-2.5312,-2.5312,-2.5516,-2.5793,-2.6117,-2.6322,-2.6743,-2.7272,-2.7596,-2.7837,-2.8065,-2.839,-2.851,-2.851,0.0,0.0,0.0,0.0,0.0,0.0,0.0,0.0,0.0,0.0,0.0,0.0,0.0,0.0,0.0,0.0,-1.4339,-1.514,-1.6198,-1.6264,-1.6646,-1.7522,-1.7351,-1.7256,-1.7311,-1.7019,-1.6757,-1.6591,-1.6706,-1.6539,-1.6108,-1.6356,-1.628,-1.5923,-1.613,-1.6298,-1.6364,-1.6063,-1.5662,-1.521,-1.4839,-1.4706,0.0,0.0,0.0,0.0,0.0,0.0,0.0,0.0,-1.4154,-1.4092,-1.3951,-1.3844,-1.3698,-1.3348,-1.2998,-1.2655,-1.2439,-1.2901,-1.3428,-1.3428,-1.4504,-1.5415,-1.5065,-1.5994,-1.6681,-1.5867,-1.6638,-1.7413,-1.7115,0.0,0.0,0.0,-1.85,-1.9331,-1.9872,-2.0298,-2.0569,-2.0856,-2.1015,-2.1139,-2.1151,-2.1151,-2.1308,-2.1717,-2.1403,-2.1355,-2.1789,-2.1922,-2.1799,-2.1479,-2.2024,-2.2169,-2.1959,-2.2355,-2.2763,-2.3306,-2.3867,-2.4256,-2.437,-2.4819,-2.5155,-2.5312,-2.5312,-2.5612,-2.6081,-2.5913,-2.6178,-2.6743,-2.744,-2.7717,-2.7789,-2.8318,-2.851,-2.851,0.0,0.0,0.0,0.0,0.0,0.0,0.0,0.0,-1.1615,-1.1353,-1.1889,0.0,0.0,0.0,0.0,0.0,-1.4396,-1.5095,-1.5964,-1.6381,-1.7004,-1.7868,-1.7781,-1.7803,-1.8013,-1.7737,-1.7342,-1.6815,-1.7011,-1.6901,-1.654,-1.6917,-1.6883,-1.6447,-1.6634,-1.6684,-1.6617,-1.6346,-1.6217,-1.6184,-1.5774,-1.562,-1.562,0.0,0.0,0.0,0.0,0.0,0.0,0.0,-1.66,-1.6098,-1.6098,-1.5993,-1.5794,-1.5267,-1.4488,-1.3709,-1.3308,-1.3636,-1.4133,-1.4197,-1.5211,-1.6294,-1.6653,-1.7174,-1.7474,-1.7089,-1.7469,-1.7868,-1.7882,-1.7882,0.0,-1.7882,-1.8425,-1.9041,-1.9719,-1.9948,-2.037,-2.1082,-2.0824,-2.0619,-2.061,-2.061,-2.0656,-2.077,-2.0689,-2.0734,-2.0974,-2.0974,-2.1075,-2.1175,-2.1369,-2.1744,-2.2284,-2.2147,-2.2362,-2.2909,-2.3281,-2.3695,-2.4025,-2.4345,-2.4795,-2.53,-2.53,-2.56,-2.6045,-2.5528,-2.5612,-2.6202,-2.7284,-2.7717,-2.7777,-2.8318,-2.851,-2.851,0.0,0.0,0.0,0.0,0.0,0.0,0.0,0.0,-1.1909,-1.2673,-1.2043,0.0,0.0,0.0,0.0,0.0,0.0,0.0,-1.7132,-1.7388,-1.7727,-1.822,-1.8258,-1.8301,-1.8344,-1.8228,-1.7898,-1.7365,-1.7603,-1.7776,-1.7907,-1.8283,-1.8432,-1.8448,-1.8642,-1.8737,-1.8689,-1.8331,-1.788,-1.7361,-1.6958,-1.6793,-1.6742,0.0,0.0,0.0,0.0,0.0,0.0,0.0,0.0,0.0,-1.6304,-1.6098,-1.5795,-1.5644,-1.5101,-1.4535,-1.4311,-1.4601,-1.5057,-1.5499,-1.6256,-1.7041,-1.7609,-1.7678,0.0,0.0,-1.7619,-1.7394,-1.7801,-1.7543,0.0,-1.7814,-1.8425,-1.8886,-1.9051,-1.9238,-1.9538,-2.0228,-2.027,-2.0304,-2.0428,-2.0465,-2.0569,-2.0791,-2.0419,-2.0414,-2.0949,-2.1156,-2.1027,-2.063,-2.1224,-2.138,-2.1154,-2.1875,-2.2339,-2.2455,-2.2896,-2.3194,-2.3478,-2.4054,-2.4262,-2.4242,-2.474,-2.4993,-2.4999,-2.5216,-2.5396,-2.5648,-2.6743,-2.7176,-2.7272,-2.8174,-2.851,-2.851,0.0,0.0,0.0,0.0,0.0,0.0,0.0,0.0,-1.2308,-1.2961,-1.2565,-1.2535,0.0,0.0,0.0,0.0,0.0,0.0,-1.7776,-1.8073,-1.8356,-1.8661,-1.8735,-1.8789,-1.8857,-1.8823,-1.8646,-1.8354,-1.8393,-1.8538,-1.8843,-1.9569,-1.9807,-1.9687,-2.0115,-2.008,-1.9632,-1.8984,-1.8587,-1.8318,-1.7699,-1.7631,-1.7861,0.0,0.0,0.0,0.0,0.0,0.0,0.0,0.0,0.0,-1.7396,-1.7223,-1.6921,-1.6327,-1.5667,-1.5058,-1.4703,-1.4758,-1.5123,-1.603,-1.6714,-1.7454,-1.8423,0.0,0.0,0.0,-1.7885,-1.7461,-1.7814,-1.7583,0.0,-1.7828,-1.8221,-1.8548,-1.8779,-1.8715,-1.8884,-1.9482,-1.9675,-1.9864,-2.0104,-2.0129,-2.0164,-2.0316,-1.9924,-1.9834,-2.0167,-2.0444,-2.0461,-2.0154,-2.0586,-2.0765,-2.0718,-2.133,-2.1769,-2.1995,-2.2205,-2.2489,-2.28,-2.3548,-2.3884,-2.3929,-2.4667,-2.4792,-2.4554,-2.5083,-2.5312,-2.5396,-2.6262,-2.6731,-2.7031,-2.7885,-2.833,-2.851,0.0,0.0,-1.1973,-1.2027,0.0,0.0,0.0,0.0,-1.2932,-1.2847,-1.3375,-1.3818,0.0,0.0,0.0,0.0,0.0,0.0,-1.8035,-1.8512,-1.8878,-1.9135,-1.9216,-1.9323,-1.9452,-1.9438,-1.9509,-1.9656,-1.9331,-1.9253,-1.9382,-2.0722,-2.0938,-2.0235,-2.0957,-2.0745,-1.9774,-1.8821,-1.8707,-1.9059,-1.8189,-1.8232,-1.8843,-1.8913,0.0,0.0,0.0,0.0,0.0,0.0,0.0,0.0,-1.8913,-1.8914,-1.8627,-1.728,-1.6265,-1.5486,-1.4895,-1.4585,-1.4736,-1.613,-1.7003,-1.7838,-1.9102,-1.8792,-1.8267,-1.8432,0.0,-1.7801,-1.7801,-1.7801,-1.7828,-1.7868,-1.7882,-1.8113,-1.8657,-1.8398,-1.8394,-1.8935,-1.9136,-1.9365,-1.9634,-1.9608,-1.956,-1.9586,-1.9285,-1.9103,-1.8994,-1.9308,-1.9531,-1.9723,-1.9736,-2.0012,-2.063,-2.0693,-2.0916,-2.1418,-2.1468,-2.17,-2.2064,-2.2985,-2.3597,-2.4001,-2.4804,-2.4927,-2.4554,-2.5083,-2.5312,-2.536,-2.5889,-2.6442,-2.6995,-2.7524,-2.8053,-2.851,0.0,0.0,-1.2316,-1.2372,0.0,0.0,0.0,0.0,0.0,-1.5318,0.0,0.0,0.0,0.0,0.0,0.0,0.0,0.0,-1.8714,-1.9077,-1.9346,-1.9559,-1.9695,-1.9769,-1.9793,-1.9732,-2.0076,-2.0826,-2.0721,-2.0372,-1.9877,-2.1013,-2.1081,-2.0281,-2.0342,-2.0251,-2.0,-1.952,-1.9355,-1.9368,-1.9013,-1.8955,-1.9119,-1.918,-1.9118,0.0,0.0,0.0,0.0,0.0,0.0,0.0,-1.907,-1.8949,-1.8752,-1.8372,-1.7317,-1.6356,-1.6687,-1.6032,-1.5686,-1.7492,-1.8794,-1.9718,-2.0027,-1.9693,-1.9146,-1.8441,-1.7684,-1.719,-1.719,-1.719,-1.7339,-1.7801,-1.7882,-1.7936,-1.8099,-1.8031,-1.8165,-1.8787,-1.8876,-1.9043,-1.9434,-1.9474,-1.9415,-1.9356,-1.8975,-1.8742,-1.8814,-1.8624,-1.8707,-1.9183,-1.9196,-1.9447,-1.9987,-2.0439,-2.0781,0.0,-2.128,-2.1556,-2.1638,-2.2243,-2.291,-2.3634,-2.4074,-2.4389,-2.4554,-2.5083,-2.5312,-2.536,-2.5889,-2.6442,-2.6995,-2.7524,-2.8053,-2.851,0.0,0.0,0.0,0.0,0.0,0.0,0.0,0.0,0.0,0.0,0.0,0.0,0.0,0.0,0.0,0.0,-1.7866,-1.8413,-1.9133,-1.9462,-1.9698,-1.9839,-1.9877,-1.9918,-1.9941,-2.0247,-2.0682,-2.1259,-2.2019,-2.1988,-2.1253,-2.1828,-2.1634,-2.0845,-2.1168,-2.0812,-1.9936,-1.9732,-1.9564,-1.9456,-1.9357,-1.9329,-1.935,-1.9792,-1.9745,-1.9472,-1.9735,0.0,0.0,0.0,0.0,0.0,0.0,0.0,-1.8824,-1.8253,-1.7443,-1.6693,-1.642,-1.5982,-1.5987,-1.7535,0.0,-1.9491,-1.9783,-1.933,-1.8732,-1.8515,-1.8084,-1.7584,-1.7079,-1.7231,-1.7516,-1.7828,-1.7963,-1.8043,-1.8043,-1.8123,-1.8287,-1.8467,-1.8838,-1.9169,-1.9386,-1.947,-1.947,-1.9357,-1.9071,-1.8866,-1.8747,-1.8799,-1.9079,-1.9651,-1.9436,-1.9607,-2.0207,-2.0256,-2.025,-2.0263,-2.0539,-2.0828,-2.1129,-2.1888,-2.2548,-2.3244,-2.3533,-2.3862,-2.4328,-2.4723,-2.5083,-2.536,-2.5889,-2.6442,-2.6995,-2.7524,-2.8053,-2.851,0.0,0.0,0.0,0.0,0.0,0.0,0.0,0.0,0.0,0.0,0.0,0.0,0.0,0.0,-1.8092,0.0,0.0,0.0,-1.9492,-1.9905,-2.0174,-2.0241,-2.0333,-2.041,-2.0461,-2.1036,-2.1379,-2.1502,-2.2866,-2.327,-2.2764,-2.28,-2.2402,-2.1637,-2.214,-2.1487,-2.0007,-1.9776,-1.9577,-1.942,-1.9468,-1.956,-1.9696,-2.0433,-2.0315,-1.9851,-2.0248,-1.9941,-1.9347,-1.9144,0.0,0.0,0.0,0.0,-1.8857,-1.7914,-1.7326,-1.6794,-1.5916,-1.5886,-1.6273,-1.7046,-1.7877,0.0,-1.9137,-1.8558,-1.8057,-1.8519,-1.8375,-1.7963,-1.7322,-1.755,-1.784,-1.8016,-1.8163,-1.8242,-1.8242,-1.84,-1.8439,-1.8282,-1.8847,-1.9262,-1.9301,-1.945,-1.9504,-1.9355,-1.922,-1.9016,-1.8686,-1.8992,-1.9476,-2.007,-1.9728,-1.9782,-2.026,-1.9862,-1.9623,-1.9673,-1.9761,-2.0112,-2.0756,-2.1606,-2.225,-2.2797,-2.3131,-2.3527,-2.4049,-2.437,-2.4831,-2.5348,-2.5793,-2.6358,-2.6983,-2.7428,-2.7981,-2.851,0.0,0.0,0.0,0.0,0.0,0.0,0.0,0.0,0.0,0.0,-1.8416,-1.8262,0.0,-1.7869,-1.8,-1.8691,-1.8798,-1.9144,-1.9859,0.0,0.0,-2.1216,-2.1923,-2.2334,-2.2345,-2.2281,-2.2249,-2.2334,-2.2386,-2.2773,-2.3466,-2.3648,-2.3263,-2.2397,-2.1755,-2.1267,-2.0879,-1.9993,-1.9555,-1.9489,-1.9497,-1.9908,-2.0535,-2.0655,-2.0648,-2.0544,-2.0433,-1.9892,-1.9277,-1.965,-1.936,0.0,0.0,0.0,-1.8807,-1.8645,-1.7799,-1.701,-1.7496,-1.7655,-1.7514,-1.6795,-1.7564,-1.8516,0.0,0.0,-1.8315,0.0,-1.7393,-1.7086,-1.7885,-1.7669,-1.7657,-1.8545,-1.8542,-1.8478,-1.8478,-1.8478,-1.8478,-1.8478,-1.8548,-1.8708,-1.8874,-1.8912,-1.8989,-1.9142,-1.8821,-1.8588,-1.8548,-1.822,-1.8302,-1.8897,-1.8868,-1.8901,-1.904,-1.8947,-1.8968,-1.9083,-1.9585,-2.0112,-2.0743,-2.1317,-2.1793,-2.2263,-2.3108,-2.3655,-2.4049,-2.437,-2.4831,-2.5312,-2.5384,-2.6033,-2.6947,-2.7007,-2.7669,-2.851,0.0,0.0,0.0,0.0,0.0,0.0,0.0,0.0,0.0,0.0,0.0,-1.9359,-1.9293,-1.9235,-1.9333,-1.9667,-1.9699,-1.9848,-2.019,-2.1023,-2.1507,-2.1517,-2.2288,-2.246,-2.1932,-2.2227,-2.2395,-2.2388,-2.2313,-2.2924,-2.4222,-2.3878,-2.3531,-2.3133,-2.2237,-2.1538,-2.0926,-2.0036,-1.9601,-1.9485,-1.9541,-1.9763,-2.0082,-2.0574,-2.0415,-2.0013,-2.0696,-2.0119,-1.9126,-1.9661,-1.9412,-1.8914,-1.9309,0.0,0.0,0.0,-1.8356,-1.7693,-1.722,-1.6442,-1.5803,-1.6044,-1.6544,-1.7247,-1.831,-1.795,-1.7766,-1.9071,-1.8275,-1.7529,-1.8089,-1.8296,-1.8493,-1.8954,-1.8959,-1.8898,-1.8898,-1.8874,-1.8798,-1.8683,-1.8774,-1.8851,-1.8784,-1.8898,-1.8988,-1.9101,-1.8936,-1.8822,-1.8822,-1.863,-1.8835,-1.947,-1.9183,-1.9222,-1.9632,-1.9351,-1.9416,-1.9808,-2.0044,-2.0328,-2.0682,-2.1876,-2.2386,-2.2243,-2.2873,-2.3392,-2.3753,-2.408,-2.4466,-2.4927,-2.5516,-2.6045,-2.6502,-2.6815,-2.7416,-2.8065,0.0,0.0,0.0,0.0,0.0,0.0,0.0,0.0,0.0,0.0,0.0,-2.0222,-2.0195,0.0,0.0,0.0,-2.0376,-2.0374,-2.0347,-2.1116,-2.1575,-2.1567,-2.2498,-2.2565,-2.1653,-2.2355,-2.2501,-2.1994,-2.2412,-2.2999,-2.3769,-2.362,-2.346,-2.3253,-2.2816,-2.2103,-2.1143,-2.034,-1.9819,-1.9499,-1.9342,-1.9476,-1.987,-2.0325,-2.0156,-1.9798,-2.0771,-2.0156,-1.9003,-1.9582,-1.9353,-1.8843,-1.9057,-1.9058,0.0,0.0,0.0,-1.8165,-1.6631,-1.5479,-1.487,-1.5457,-1.5711,-1.6198,0.0,0.0,-1.7145,0.0,-1.8871,-1.8154,-1.847,-1.8963,-1.9354,-1.9464,-1.9442,-1.9369,-1.9281,-1.9221,-1.9124,-1.8898,-1.9026,-1.9026,-1.8898,-1.9026,-1.9101,-1.9101,-1.9101,-1.9101,-1.9101,-1.9101,-1.9333,-1.9827,-1.9458,-1.9429,-1.9824,-1.948,-1.9516,-1.9948,-2.0259,-2.0435,-2.0624,-2.2197,-2.2791,-2.2578,-2.3107,-2.3621,-2.4004,-2.4288,-2.4624,-2.5068,-2.5954,-2.6334,-2.636,-2.6784,-2.7131,-2.7536,0.0,0.0,0.0,0.0,0.0,0.0,0.0,0.0,0.0,0.0,0.0,-2.0276,-2.0217,-2.0257,-2.0324,-2.0395,-2.0346,-2.0272,-2.0214,-2.1022,-2.1511,-2.1511,-2.2996,0.0,-2.2539,-2.3246,-2.283,-2.1161,-2.2684,-2.2675,-2.1215,-2.2788,-2.3107,-2.2412,-2.3177,-2.2985,-2.198,-2.1181,-2.0374,-1.9527,-1.8692,-1.9323,-2.0641,-1.9936,-2.0103,-2.0689,-2.0439,-1.9774,-1.9073,0.0,-1.9172,-1.8665,-1.9485,-1.9224,-1.8623,0.0,0.0,0.0,-1.616,-1.6189,-1.6455,-1.5319,-1.5509,-1.5959,0.0,0.0,-1.679,-1.7584,-1.8183,-1.8733,-1.9309,-1.9539,-1.9797,-2.0185,-2.0061,-1.9848,-1.953,-1.9479,-1.9384,-1.9101,-1.9101,-1.9101,-1.9101,-1.9101,-1.9101,-1.9101,-1.9101,-1.9101,-1.9101,-1.9101,-1.9116,-1.9159,-1.9107,-1.8932,-1.8599,-1.8687,-1.8735,-1.8818,-1.9899,-2.0408,-2.0429,-2.1664,-2.2593,-2.319,-2.42,-2.4932,-2.5428,-2.5559,-2.5933,-2.6453,-2.6835,-2.6905,-2.6863,-2.69,-2.692,-2.7043,0.0,0.0,0.0,0.0,0.0,0.0,0.0,0.0,0.0,0.0,0.0,0.0,0.0,-2.0565,-2.0743,-2.0262,-2.0223,-2.0227,-2.0197,-2.102,-2.1472,-2.1445,-2.2527,-2.2708,-2.1793,-2.1973,-2.177,-2.1111,-2.1123,-2.1365,-2.1835,-2.1872,-2.2041,-2.2285,-2.2031,-2.1722,-2.1335,-2.0484,-1.9921,-1.9569,-1.9263,-1.949,-1.9991,-1.9713,-1.9616,-1.9689,-2.01,0.0,0.0,0.0,0.0,0.0,-1.9033,-1.8946,-1.8715,-1.8641,-1.8193,-1.7551,-1.6766,-1.6454,-1.6155,-1.5496,-1.573,-1.618,-1.6434,-1.6537,-1.6912,-1.8079,-1.8491,-1.8869,-1.9563,-2.0058,-2.0407,-2.0509,-2.0407,-2.0204,-2.0085,-1.994,-1.9726,-1.9384,-1.9347,-1.9273,-1.9101,-1.9101,-1.9101,-1.9101,-1.9101,-1.9101,-1.9101,-1.9101,-1.9139,-1.9228,-1.9228,-1.9139,-1.9026,-1.9051,-1.9248,-1.9594,-2.0415,-2.0836,-2.0986,-2.2555,-2.3259,-2.3214,-2.4292,-2.4844,-2.5016,-2.5428,-2.5498,-2.5465,-2.6349,-2.6591,-2.6362,-2.6439,-2.6643,-2.6846,0.0,0.0,0.0,0.0,0.0,-1.9907,-1.9998,-2.002,-1.9991,-1.9862,0.0,0.0,0.0,0.0,-2.0638,-2.0146,-2.042,-2.0521,-2.0225,-2.1029,-2.1346,-2.1014,-2.1799,-2.1828,-2.0906,-2.11,-2.1032,-2.0696,-2.0358,-2.0633,-2.1459,-2.114,-2.1159,-2.1441,-2.0859,-2.0752,-2.0955,-2.0354,-1.9902,-1.9564,-1.9281,-1.9295,-1.9456,-1.9197,-1.9219,-1.9433,0.0,0.0,0.0,0.0,0.0,0.0,-1.8857,-1.8928,-1.8642,-1.8266,-1.7944,-1.757,-1.6953,-1.6603,-1.6304,-1.5748,-1.6004,-1.6437,-1.6621,-1.669,-1.6982,-1.7808,-1.8203,-1.8582,-1.9309,-1.9941,-2.0459,-2.0712,-2.0628,-2.0512,-2.041,-2.0254,-2.001,-1.9726,-1.969,-1.9566,-1.9273,-1.9236,-1.9213,-1.9101,-1.9101,0.0,-1.9101,-1.9101,-1.9139,-1.9302,-1.9339,-1.9339,-1.9339,-1.9339,-1.9522,-1.9846,-2.0473,-2.0893,-2.1225,-2.2624,-2.3285,-2.3416,-2.4182,-2.4696,-2.5122,-2.5588,-2.5728,-2.5719,-2.664,-2.6801,-2.6505,-2.6688,-2.6722,-2.6652,0.0,0.0,-1.7776,-1.848,-1.9378,-1.9939,-1.9813,-1.9966,-2.0,-1.9751,0.0,0.0,0.0,0.0,0.0,-2.0097,-2.0967,-2.1137,-2.026,-2.1022,-2.1118,-2.0249,-2.0976,-2.0986,-2.0126,-2.0807,-2.0759,-1.9896,-2.0615,-2.0577,-1.9826,-2.0596,-2.0539,-1.9807,-1.9795,-2.0232,-2.0955,-2.0896,-2.0369,-1.9526,-1.8668,-1.8721,-1.9198,-1.8427,-1.8966,0.0,-1.9129,-1.9768,0.0,-2.0061,0.0,0.0,0.0,-1.9217,-1.838,-1.7571,-1.7906,-1.8169,0.0,0.0,0.0,-1.6088,-1.6333,-1.6695,-1.6135,-1.6524,-1.6942,-1.6675,-1.7207,-1.7918,-1.855,-1.9277,-1.9988,-2.0652,-2.0778,-2.0712,-2.0413,-2.0395,-2.0308,-2.0025,-2.0005,-1.9884,-1.9566,-1.953,-1.9384,-1.9139,-1.9101,-1.9101,-1.9101,-1.9101,-1.9176,-1.9302,-1.9376,-1.9413,-1.9413,-1.9413,-1.9413,-1.9428,-1.9947,-2.0567,-2.1199,-2.1756,-2.2672,-2.3862,-2.3862,-2.4573,-2.5778,-2.6146,-2.6614,-2.7243,-2.7815,-2.7721,-2.7287,-2.7656,-2.7162,-2.6382,0.0,-1.8083,-1.8562,-1.8726,-1.9395,-1.9919,-1.9873,-1.9873,-1.9861,0.0,0.0,0.0,-2.0195,-2.0569,-2.0622,-2.0087,-2.0881,-2.1081,-2.0257,-2.1023,-2.11,-2.0237,-2.0976,-2.0996,-2.0117,-2.0256,-2.021,-1.9971,-2.0082,-2.0032,-1.9795,-2.0032,-2.0014,-1.9795,-1.9745,-1.9845,-2.0057,-2.0049,-1.9846,-1.9582,-1.9169,-1.9133,-1.9271,-1.8893,0.0,0.0,0.0,-1.898,-1.92,0.0,-1.8868,-1.8921,0.0,-1.9628,-1.9268,-1.8417,-1.8327,-1.8397,-1.7976,0.0,0.0,0.0,0.0,0.0,-1.6677,-1.6907,-1.7216,-1.6942,-1.747,-1.7994,-1.7978,-1.855,-1.9246,-1.9957,-2.0478,-2.0588,-2.005,-2.038,-2.0595,-2.0308,-2.0289,-2.0185,-1.9884,-1.9639,-1.9457,0.0,-1.9199,-1.9101,-1.9101,-1.9228,-1.9339,-1.9376,-1.9508,-1.9596,-1.9538,-1.9538,-1.9501,-1.9428,-1.9947,-2.0567,-2.1199,-2.1756,-2.2439,-2.3163,-2.3163,-2.3659,-2.45,-2.5503,-2.6064,-2.6341,-2.6889,-2.7065,-2.6937,-2.7072,-2.7223,-2.7348,-1.8465,-1.8715,-1.8916,-1.9248,-1.962,-1.9884,-1.9849,-1.9832,-1.9926,0.0,0.0,0.0,-2.0891,-2.1374,-2.1381,-2.061,-2.1377,-2.155,-2.0747,-2.1838,-2.2125,-2.1283,-2.135,-2.1168,-2.0652,-2.023,-1.9988,-1.9988,-1.9896,-1.9844,-1.9844,-1.982,-1.9807,-1.9795,-1.9763,-1.9732,-1.9707,-1.9699,-1.9633,-1.9504,-1.9274,-1.9148,-1.9084,-1.8948,-1.9039,0.0,0.0,0.0,-2.0056,-1.9801,-2.023,0.0,0.0,-1.9487,-2.0132,-1.9594,-1.9471,-1.9401,-1.9064,-1.9243,-1.9187,-1.8021,0.0,0.0,-1.6248,-1.6987,-1.7605,-1.5697,-1.6177,-1.6937,-1.6971,-1.7436,-1.7953,-1.8408,-1.9293,-1.9988,-2.0194,-2.0304,-2.0413,-2.0548,-2.0579,-2.0444,-2.0185,-1.9904,-1.9639,-1.953,-1.9236,-1.9101,-1.9101,-1.9265,-1.9376,-1.9413,-1.956,-1.9669,-1.9632,-1.9632,-1.9596,-1.9523,-1.9796,-2.0288,-2.087,-2.1432,-2.1989,-2.2511,-2.2786,-2.3296,-2.3963,-2.4979,-2.5509,-2.576,-2.6525,-2.6687,-2.6658,-2.7068,-2.7322,-2.742,0.0,-1.9371,-1.9094,-1.9861,-1.9938,-1.988,-1.9807,-1.9882,-2.0189,0.0,-2.1089,-2.1462,-2.2312,-2.2483,-2.2249,-2.1505,-2.2225,-2.239,-2.1598,-2.3031,-2.3547,-2.2718,-2.2048,-2.1636,-2.1512,-2.0717,-2.0287,-2.0247,-2.0206,-2.0111,-2.0017,-2.0057,-1.9976,-1.9795,-1.9889,-1.9845,-1.9686,-1.9673,-1.9564,-1.936,-1.9115,-1.8967,0.0,0.0,-1.914,-1.9575,-1.885,-2.0081,-2.1982,-2.1572,-2.1819,0.0,0.0,-1.9436,-2.0956,-2.0824,-2.0829,-2.0688,-2.0016,-2.0315,-2.0451,-1.8923,-1.9578,0.0,-1.5928,-1.7282,-1.8259,-1.448,-1.4767,-1.5831,-1.6216,-1.6513,-1.6717,-1.6797,-1.7832,-1.9055,-2.0273,-2.0004,-1.9941,-2.0605,-2.0684,-2.0601,-2.0478,-2.0185,-1.9919,-1.9639,-1.931,-1.9124,-1.9124,-1.925,-1.9339,-1.9413,-1.9538,-1.9647,-1.969,-1.969,-1.969,-1.969,-1.9707,-1.9953,-2.0415,-2.1032,-2.1551,-2.2033,-2.2627,-2.3267,-2.3833,-2.4471,-2.4955,-2.5408,-2.6369,-2.6566,-2.6469,-2.7264,-2.7363,-2.7233,-1.9935,-1.9859,-1.9792,-1.9966,-1.9903,-1.982,-1.9807,-2.0352,-2.0821,-2.099,-2.161,-2.2139,-2.2369,-2.2986,-2.3082,-2.2407,-2.3096,-2.3214,-2.2409,-2.3326,-2.3518,-2.2668,-2.3135,-2.3056,-2.2307,-2.2163,-2.2011,-2.1865,-2.1891,-2.1532,-2.0809,-2.1478,-2.1103,-1.9832,-2.0476,-2.0362,-1.9686,-1.9527,-1.9368,-1.9235,-1.9048,-1.9291,-1.9589,-1.885,-1.867,-1.8797,-1.8656,-1.9408,-2.063,-2.186,-2.2345,-2.2321,0.0,0.0,-2.1989,-2.107,-2.0902,-2.0954,-2.0657,-2.0701,0.0,0.0,-2.0423,0.0,-1.9509,-1.9745,-1.9891,-1.8894,-1.8437,-1.8167,-1.8029,-1.7585,-1.742,-1.7953,-1.814,-1.8246,-1.8311,-1.8677,-1.9183,-1.9909,-2.0004,-2.0177,-2.0665,-2.0478,-2.0308,-2.0239,-1.9747,-1.942,-1.942,-1.9325,-1.9339,-1.9413,-1.9538,-1.9647,-1.969,-1.969,-1.969,-1.969,-2.0139,-2.0353,-2.043,-2.1486,-2.2016,-2.2033,-2.2627,-2.296,-2.3134,-2.3804,-2.4439,-2.5061,-2.5767,-2.6354,-2.672,-2.6904,-2.7534,-2.8322,-1.9958,-1.9926,-1.9915,-1.993,-2.0188,-2.0408,-2.0408,-2.1103,-2.1779,-2.2205,-2.298,-2.3531,-2.3636,-2.3655,-2.3537,-2.3271,-2.3626,-2.3675,-2.3269,-2.4052,-2.4339,-2.393,-2.39,-2.3656,-2.316,-2.2795,-2.2509,-2.2357,-2.1985,-2.174,-2.1644,-2.1642,-2.1197,-2.0427,-2.0827,-2.0519,-1.9694,-1.9591,-1.9889,-2.0313,-1.9406,0.0,-1.9305,-1.8894,-1.9002,-1.9341,-1.9341,-2.0204,-2.1288,-2.0932,-2.1772,0.0,-2.1036,-2.1649,-2.2865,0.0,-2.2109,-2.2246,-2.1995,0.0,0.0,-2.1418,0.0,0.0,0.0,-2.0217,-2.0869,-1.8533,-1.862,-1.8927,-1.831,-1.8091,-1.8103,-1.8452,-1.8575,-1.8648,-1.8692,-1.869,-1.8977,-1.972,-1.9483,-1.9657,-2.0699,-2.0233,-1.9937,-2.0189,-1.9904,-1.9762,-1.9762,-1.9705,-1.9741,-1.9889,-1.9747,-1.9782,-1.9945,-1.9782,-1.969,-1.969,-1.9967,-2.0035,-1.9929,-2.0877,-2.1372,-2.154,-2.2178,-2.2598,-2.2975,-2.3963,-2.439,-2.4507,-2.5177,-2.5605,-2.5955,-2.6253,-2.6932,-2.7759,-1.9885,-1.9861,-1.9844,-1.9884,-2.0383,-2.0765,-2.0765,-2.1497,-2.2398,-2.337,-2.4069,-2.458,-2.4842,-2.4293,-2.398,-2.4137,-2.3995,-2.3987,-2.4151,-2.4678,-2.5031,-2.5191,-2.453,-2.4114,-2.4055,-2.3427,-2.3031,-2.2861,-2.223,-2.2117,-2.2518,-2.1975,-2.1459,-2.099,-2.0652,-2.0208,-1.9676,-1.9376,-2.0006,-2.1128,0.0,-1.9609,-1.9485,-1.9488,-1.9849,-2.0408,-2.059,-2.1549,-2.2437,-2.0626,-2.1576,-2.3093,-2.0423,-2.1429,0.0,0.0,0.0,0.0,0.0,0.0,0.0,0.0,0.0,-2.2101,0.0,0.0,0.0,-1.8049,0.0,0.0,0.0,0.0,0.0,0.0,0.0,0.0,0.0,-1.9284,0.0,-1.9797,-1.907,-1.9119,-2.0619,-2.0045,-1.9721,-2.01,-2.0096,-2.0061,-2.0061,-2.0041,-2.0131,-2.041,-2.0085,-2.0061,-2.0408,-2.0021,-1.9882,-2.0079,-2.0079,-1.9894,-1.9634,-2.0533,-2.0958,-2.1032,-2.183,-2.2468,-2.2975,-2.4003,-2.4275,-2.4072,-2.4787,-2.5121,-2.5236,-2.571,-2.628,-2.6891,-1.9878,-1.9934,-1.9884,-1.9896,-1.9931,-1.9939,-1.9939,-2.0633,-2.1703,-2.3295,-2.3577,-2.3944,-2.4733,-2.4733,-2.4774,-2.5031,-2.4342,-2.4249,-2.5079,-2.4504,-2.4454,-2.5172,-2.5115,-2.5022,-2.4949,-2.4927,-2.479,-2.4525,-2.4501,-2.4095,-2.337,-2.3994,-2.3112,-2.0934,-1.945,-1.9138,-1.962,-1.817,-1.8441,0.0,-2.1367,-2.191,0.0,-2.1461,-2.1316,-2.148,-2.2426,-2.2722,-2.2763,0.0,-2.3482,-2.3562,0.0,-2.3311,-2.3834,-2.3271,0.0,0.0,0.0,0.0,0.0,0.0,-2.3153,0.0,0.0,0.0,-2.2635,-2.2039,0.0,0.0,0.0,0.0,0.0,0.0,0.0,0.0,-1.9174,-1.986,-2.0385,-2.0192,-1.8773,-1.8584,-2.0522,-2.0614,-2.0565,-2.061,-2.046,-2.0342,-2.0342,-2.0131,-2.0131,-2.041,-2.0376,-2.0586,-2.1101,-2.0481,-2.0588,-2.147,-2.147,-2.1039,-2.0342,-2.2167,-2.2261,-2.1061,-2.225,-2.283,-2.2902,-2.3047,-2.344,-2.4128,-2.5331,-2.5771,-2.5805,-2.586,-2.628,-2.6837,-2.0012,-1.9979,-1.9892,-1.9892,-2.0226,-2.0671,-2.1178,-2.2323,-2.3393,-2.4107,-2.42,-2.4343,-2.4775,-2.4818,-2.4934,-2.5132,-2.4411,-2.4319,0.0,-2.4455,-2.4368,-2.5153,-2.5191,-2.5125,-2.4993,-2.5095,-2.5012,-2.4734,-2.4351,-2.4167,-2.4182,-2.405,-2.3205,-2.1722,-2.1028,-2.0339,-1.9745,-1.9538,-2.0055,0.0,0.0,-2.3151,0.0,-2.2276,-2.2109,-2.2555,-2.3455,-2.3732,-2.3381,0.0,-2.2391,0.0,0.0,0.0,0.0,-2.3412,0.0,0.0,0.0,0.0,0.0,0.0,0.0,0.0,-2.3003,0.0,-2.279,0.0,0.0,0.0,0.0,0.0,0.0,0.0,-2.1532,0.0,0.0,0.0,-2.0582,0.0,0.0,0.0,-1.9956,-2.0442,-2.066,0.0,-2.0628,-2.0628,-2.0577,-2.0494,-2.0561,-2.0794,-2.0679,-2.0771,-2.1072,-2.0872,-2.0793,-2.0847,-2.1422,-2.1063,-1.9997,-2.1503,-2.1792,-2.1158,-2.1989,-2.2555,-2.2917,-2.3339,-2.3583,-2.3815,-2.468,-2.5187,-2.5385,-2.5385,-2.5765,-2.628,-2.0148,-2.005,-1.995,-1.9918,-2.0538,-2.1343,-2.2173,-2.3299,-2.4125,-2.4332,-2.4313,-2.4385,-2.4746,-2.4861,-2.5075,-2.5449,-2.4572,-2.4426,0.0,-2.4547,-2.4317,-2.5149,-2.5156,-2.5101,-2.4947,-2.5025,-2.4945,-2.4738,-2.4195,-2.4181,-2.4689,-2.4107,-2.3393,-2.2605,-2.1929,-2.1065,-2.0145,0.0,-2.0722,-2.1507,-2.2888,-2.3819,-2.4298,-2.3175,-2.305,-2.356,-2.4188,-2.4357,-2.3915,-2.1599,-2.2135,0.0,-2.1206,0.0,-2.3646,0.0,0.0,0.0,-2.3348,0.0,0.0,0.0,0.0,0.0,0.0,0.0,0.0,0.0,0.0,0.0,0.0,0.0,-2.2643,-2.2436,0.0,-2.2351,0.0,-2.1742,0.0,0.0,0.0,0.0,0.0,-2.0335,-2.0728,-2.0577,0.0,-2.0761,-2.0711,-2.0761,-2.0893,-2.1103,-2.099,-2.1037,-2.1262,-2.1245,-2.1132,-2.0903,-2.1546,-2.1302,-2.0325,-2.1475,-2.1774,-2.1518,-2.2076,-2.2512,-2.2931,-2.3441,-2.3558,-2.3535,-2.3963,-2.4427,-2.4872,-2.4872,-2.5197,-2.5643,-2.0218,-2.023,-2.006,-1.9928,-2.0626,-2.1443,-2.2187,-2.2342,-2.2661,-2.3445,-2.3314,-2.3543,0.0,0.0,0.0,0.0,0.0,-2.4647,-2.6181,0.0,-2.427,-2.5063,-2.5101,-2.5101,-2.5101,-2.498,-2.4861,-2.4794,-2.4775,-2.4746,-2.4707,-2.467,-2.4238,-2.337,-2.0952,-2.0277,-2.0859,-1.9263,-1.9094,-2.0076,-2.2511,-2.3975,-2.4676,0.0,-2.4439,-2.4474,-2.4626,0.0,0.0,-2.4174,-2.408,0.0,0.0,0.0,0.0,0.0,0.0,0.0,0.0,0.0,0.0,-2.3504,0.0,0.0,0.0,0.0,-2.297,0.0,0.0,0.0,0.0,-2.2712,-2.2488,-2.1763,-2.222,0.0,0.0,0.0,0.0,0.0,0.0,0.0,0.0,-2.0512,-2.0975,0.0,-2.0777,-2.0794,-2.0794,-2.0794,-2.0893,-2.1103,-2.1214,-2.1504,-2.1945,-2.1504,-2.1727,-2.2629,-2.23,-2.2141,-2.2049,-2.3008,-2.2978,-2.2191,-2.282,-2.3023,-2.2888,-2.2917,-2.3169,-2.3492,-2.3521,-2.3926,-2.4529,-2.4529,-2.4737,-2.5032,-2.0341,-2.081,-2.1124,-2.0975,-2.1598,-2.2372,-2.312,-2.3601,-2.3994,0.0,-2.4219,0.0,0.0,-2.4764,-2.4979,0.0,0.0,-2.4305,-2.5297,-2.4409,0.0,-2.4923,-2.498,-2.4953,-2.4898,-2.4851,-2.4808,-2.4719,-2.4719,-2.4723,-2.4707,-2.4707,-2.4276,-2.3464,-2.2605,-2.1779,0.0,0.0,0.0,0.0,0.0,-2.4463,-2.4636,0.0,-2.4158,-2.4645,-2.4692,-2.4629,0.0,-2.4568,-2.4375,-2.4154,-2.4229,-2.4116,-2.3901,-2.3979,-2.3941,0.0,0.0,0.0,-2.3837,-2.3553,0.0,0.0,0.0,0.0,0.0,0.0,0.0,0.0,0.0,-2.2738,-2.2599,-2.2384,-2.2556,-2.2625,0.0,0.0,0.0,0.0,0.0,0.0,0.0,0.0,0.0,0.0,-1.8997,0.0,-2.0649,-2.0777,-2.0893,-2.1103,-2.1214,-2.1438,-2.1745,-2.2377,-2.2617,-2.2499,-2.3219,-2.3093,-2.2248,-2.311,-2.3066,-2.2319,-2.2849,-2.3037,-2.2888,-2.2888,-2.2973,-2.3083,-2.3083,-2.3412,-2.387,-2.4357,-2.471,-2.5005,-2.1237,-2.1991,-2.226,-2.1232,-2.2095,-2.3193,-2.3933,-2.4511,-2.4818,0.0,-2.4847,0.0,-2.4808,0.0,-2.5067,0.0,-2.4702,-2.4499,-2.5248,-2.458,0.0,-2.4842,-2.4861,-2.4832,0.0,-2.4783,-2.4734,-2.4707,-2.4707,-2.4707,-2.4707,-2.4707,-2.4426,-2.3919,-2.3919,-2.2999,-2.1553,-2.2876,-2.282,0.0,0.0,-2.42,0.0,0.0,-2.3994,-2.4707,0.0,-2.4695,-2.4666,-2.4666,-2.4515,-2.4339,-2.4462,-2.4284,-2.4058,-2.421,-2.4154,-2.4037,-2.3939,-2.3981,0.0,-2.3689,-2.3927,0.0,-2.3395,0.0,0.0,0.0,0.0,0.0,0.0,0.0,-2.2747,-2.2816,-2.2773,-2.2712,0.0,-2.2517,0.0,0.0,0.0,0.0,0.0,0.0,-1.9244,-2.052,-1.9059,-1.8868,0.0,0.0,-2.0974,-2.1103,-2.1294,-2.1595,-2.1982,-2.2557,-2.2867,-2.2998,-2.3671,-2.3592,-2.2869,-2.3492,-2.3357,-2.2671,-2.3025,-2.3068,-2.2888,-2.2888,-2.2888,-2.2888,-2.2888,-2.3155,-2.3572,-2.4124,-2.4586,-2.5005,-2.2745,-2.3577,-2.3354,-2.09,-2.2247,-2.3913,0.0,0.0,-2.508,0.0,-2.5118,-2.5152,-2.5025,-2.5179,-2.5554,-2.6261,-2.5437,-2.5182,-2.5904,-2.522,0.0,0.0,-2.4813,-2.4813,-2.4813,0.0,0.0,-2.4707,-2.4707,-2.4707,-2.4707,-2.4707,-2.4707,-2.4707,-2.4707,-2.3806,-2.2361,-2.3187,-2.2637,-2.1253,-2.2098,-2.3337,-2.4632,-2.3844,-2.4031,-2.4707,-2.4707,-2.466,-2.4599,-2.4599,-2.4549,-2.45,-2.45,-2.45,-2.45,-2.45,-2.45,-2.4446,-2.4173,-2.4116,-2.4078,-2.3878,0.0,0.0,0.0,0.0,-2.4426,0.0,0.0,0.0,0.0,0.0,-2.2884,-2.3063,-2.2867,-2.2712,-2.2712,-2.2712,-2.2712,0.0,0.0,0.0,0.0,-2.1469,-2.1393,-2.0877,-2.0701,-2.0652,0.0,0.0,-2.1103,-2.1135,-2.1419,-2.1964,-2.2702,-2.2184,-2.2626,-2.405,-2.3681,-2.3635,-2.3885,-2.4157,-2.3952,-2.3348,-2.3319,-2.3187,-2.2933,-2.2933,-2.2888,-2.2888,-2.2888,-2.3155,-2.3516,-2.387,-2.4445,-2.5005,-2.2861,-2.3074,-2.3434,-2.403,-2.4542,-2.4957,0.0,0.0,0.0,0.0,-2.5184,-2.5173,-2.5091,-2.5087,-2.5088,-2.5117,-2.4904,0.0,0.0,0.0,0.0,-2.4738,-2.4738,-2.4738,-2.4738,-2.4707,-2.4707,-2.4707,-2.4707,-2.4707,-2.4707,-2.4707,-2.4707,-2.4707,-2.4707,-2.3806,-2.2398,-2.3806,-2.4144,-2.3769,-2.3994,-2.4332,-2.4689,0.0,-2.452,-2.4707,-2.4707,-2.466,-2.4599,-2.4599,-2.4549,-2.45,-2.45,-2.45,-2.45,-2.45,-2.45,-2.4482,-2.4411,-2.4411,-2.4339,-2.4078,-2.4185,-2.4217,0.0,0.0,0.0,0.0,0.0,0.0,0.0,0.0,0.0,-2.2833,-2.2747,-2.2712,-2.2712,0.0,0.0,-2.2712,0.0,0.0,-2.201,-1.9953,-1.9365,-2.1053,-1.9015,-1.8657,-2.0911,0.0,0.0,-2.145,-2.1559,-2.1995,-2.2828,-2.3223,-2.3901,-2.4829,-2.4938,-2.4991,-2.504,-2.4521,-2.423,-2.4116,-2.3809,-2.3523,-2.329,-2.329,-2.3127,-2.2888,-2.2888,-2.3016,-2.328,-2.409,-2.4641,-2.5005,-2.3964,-2.4041,-2.435,-2.5337,0.0,0.0,-2.5484,-2.5369,0.0,-2.5182,-2.5214,0.0,-2.5526,-2.55,-2.5423,-2.5268,-2.5271,0.0,-2.4726,0.0,0.0,-2.4707,-2.4707,-2.4707,-2.4707,-2.4738,0.0,-2.4707,0.0,-2.4738,-2.4707,-2.4707,-2.4707,-2.4707,-2.4707,-2.3994,-2.2867,-2.3787,-2.4388,-2.4707,-2.4707,-2.4707,0.0,-2.4707,-2.4707,-2.4707,-2.4711,-2.4663,-2.4599,-2.4564,-2.4532,-2.45,-2.45,-2.45,-2.45,-2.45,-2.45,-2.45,-2.45,-2.45,-2.4539,-2.4746,-2.4801,-2.4763,-2.4547,-2.4486,-2.4447,0.0,0.0,0.0,0.0,0.0,0.0,-2.2799,-2.2712,-2.2712,0.0,0.0,0.0,0.0,-2.2712,0.0,0.0,-2.0615,-2.0025,-2.1395,-1.9597,-1.9286,-2.118,0.0,0.0,-2.1589,-2.1977,-2.2549,-2.3371,-2.3785,-2.453,-2.559,-2.5428,-2.5375,-2.5503,-2.502,-2.4744,-2.4511,-2.4048,-2.3709,-2.3522,-2.329,-2.3053,-2.2888,-2.2888,-2.3062,-2.3322,-2.3724,-2.42,-2.4625,-2.5356,-2.5511,0.0,0.0,0.0,0.0,0.0,-2.5511,0.0,-2.5182,0.0,-2.5491,-2.5929,-2.5977,-2.5924,-2.5847,0.0,-2.5496,-2.4745,-2.4707,-2.4707,-2.4723,-2.4707,-2.4707,-2.4738,-2.4779,-2.4779,0.0,-2.4779,-2.4779,-2.4734,-2.4719,-2.4753,-2.4749,-2.4719,-2.4343,0.0,-2.3539,-2.3971,-2.4719,-2.4707,-2.4707,-2.4707,-2.4707,-2.4707,-2.4692,-2.4698,-2.4666,-2.4599,-2.4512,-2.4497,-2.45,-2.45,-2.45,-2.45,-2.45,-2.45,-2.45,-2.45,-2.45,-2.4667,-2.5373,-2.554,-2.5486,-2.5316,-2.5277,-2.5314,-2.5331,-2.5228,-2.5244,0.0,0.0,0.0,-2.3015,0.0,0.0,0.0,0.0,0.0,0.0,0.0,0.0,0.0,-2.2186,-2.184,-2.184,-2.1293,-2.1135,-2.1524,0.0,0.0,-2.1603,-2.2465,-2.3255,-2.4,0.0,-2.4845,-2.6203,-2.5458,-2.5283,-2.5594,-2.5443,-2.5179,-2.4847,-2.4282,-2.3964,-2.3779,-2.3275,-2.2978,-2.2888,-2.2888,-2.3112,-2.3364,-2.3076,-2.3446,-2.4015,-2.5472,-2.5511,0.0,0.0,0.0,-2.5511,-2.5511,-2.5511,-2.5476,-2.5451,-2.5459,-2.5418,-2.5294,-2.5278,-2.5177,-2.4964,-2.4933,0.0,0.0,0.0,0.0,-2.4779,-2.4738,-2.4749,-2.4861,-2.4874,-2.4874,0.0,0.0,-2.4902,-2.4942,-2.4888,-2.491,-2.5031,-2.4915,-2.4785,-2.4596,-2.3827,0.0,-2.4847,-2.4734,-2.4707,-2.4707,-2.4707,-2.4711,-2.4698,-2.4701,-2.4666,-2.4599,-2.4512,-2.4497,-2.45,-2.45,-2.45,-2.45,-2.4497,-2.4515,-2.45,-2.4497,-2.4498,-2.4537,-2.4667,-2.4704,-2.4687,-2.4688,-2.4651,-2.4837,-2.5505,-2.5616,-2.5744,-2.625,0.0,0.0,0.0,0.0,0.0,0.0,0.0,0.0,0.0,0.0,-2.2927,0.0,0.0,-2.2124,-2.2124,-2.1866,-2.1721,0.0,0.0,0.0,0.0,-2.251,0.0,0.0,0.0,-2.5342,-2.6203,-2.5458,-2.5456,-2.6063,-2.5098,-2.5037,-2.5642,-2.502,-2.4664,-2.4558,-2.4051,-2.3466,-2.2888,-2.2888,-2.2824,-2.274,-2.2447,-2.2944,-2.3722,-2.5511,0.0,0.0,0.0,0.0,0.0,0.0,-2.5511,-2.5468,-2.535,-2.5369,-2.5476,-2.5707,-2.566,-2.5568,-2.5431,-2.5393,-2.5192,-2.4772,-2.4734,-2.4783,-2.4794,-2.4764,-2.4764,-2.4808,-2.4896,-2.4936,-2.4902,0.0,-2.5061,-2.5056,-2.5031,-2.5037,-2.5103,-2.5024,-2.5,0.0,0.0,0.0,-2.4888,-2.4749,-2.4707,-2.4707,-2.4707,-2.4692,-2.4695,-2.4698,-2.4666,-2.4599,-2.4512,-2.4497,-2.45,-2.4498,-2.4497,-2.4497,-2.4495,-2.4513,-2.4497,-2.4497,-2.4498,-2.4592,-2.502,-2.4816,-2.4723,-2.5559,-2.5429,-2.5355,-2.6172,-2.6656,-2.6988,-2.709,-2.6275,0.0,0.0,0.0,0.0,0.0,0.0,-2.3364,0.0,0.0,0.0,0.0,0.0,0.0,0.0,0.0,0.0,0.0,0.0,0.0,0.0,0.0,0.0,0.0,0.0,0.0,-2.622,-2.5855,-2.5872,-2.6168,-2.5645,-2.5642,-2.6007,-2.5323,-2.5013,-2.4895,-2.4021,-2.348,-2.3127,-2.2978,-2.2843,-2.2706,-2.2324,-2.2468,-2.2978,0.0,-2.5627,0.0,0.0,-2.5492,0.0,-2.5492,-2.5492,-2.5448,-2.5274,-2.5313,-2.5534,-2.6041,-2.5996,-2.5918,-2.5904,-2.5815,-2.5525,-2.4931,-2.4874,-2.4874,-2.4888,-2.4874,-2.4847,-2.4832,-2.4993,-2.5041,0.0,0.0,0.0,0.0,-2.5141,-2.513,0.0,0.0,0.0,0.0,0.0,-2.4902,-2.4888,-2.4749,-2.4707,-2.4707,-2.4707,-2.4692,-2.4711,-2.4698,-2.4666,-2.458,-2.4564,-2.4513,-2.4498,-2.4495,-2.4512,-2.4512,-2.4547,-2.4528,-2.453,-2.4515,-2.4498,-2.4666,-2.5299,-2.4964,-2.4834,-2.6098,-2.5912,-2.5671,-2.6488,-2.7288,-2.7766,-2.7558,-2.6573,0.0,0.0,0.0,0.0,0.0,0.0,0.0,0.0,0.0,0.0,-2.323,0.0,0.0,0.0,0.0,0.0,-2.246,0.0,0.0,0.0,0.0,-2.4225,-2.4066,0.0,-2.622,-2.622,-2.6054,-2.6054,-2.6203,-2.6054,-2.6071,-2.6168,-2.5492,-2.5107,-2.491,-2.4021,-2.3595,-2.3508,-2.3231,-2.3068,-2.2888,-2.2463,-2.2301,-2.2365,0.0,0.0,0.0,0.0,0.0,0.0,-2.5492,-2.5488,-2.5483,-2.5476,-2.5488,-2.5456,-2.5388,-2.539,-2.5348,-2.5286,-2.5163,-2.5113,-2.5149,-2.5118,-2.5099,-2.5154,-2.5111,-2.5133,-2.5245,-2.5264,-2.5302,0.0,0.0,-2.5329,0.0,-2.5321,-2.5284,0.0,0.0,0.0,0.0,-2.4968,-2.4902,-2.4888,-2.4749,-2.4707,-2.4707,-2.4707,-2.4695,-2.4698,-2.4711,-2.4663,-2.4615,-2.4666,-2.4599,-2.4495,-2.4495,-2.4547,-2.4599,-2.4666,-2.465,-2.4599,-2.4599,-2.4547,-2.4532,-2.4574,-2.4555,-2.4537,-2.4685,-2.4667,-2.4834,-2.5652,-2.6451,-2.6989,-2.6893,-2.7354,-2.7221,0.0,0.0,0.0,0.0,0.0,-2.4074,-2.3858,0.0,0.0,-2.3562,-2.3164,0.0,0.0,-2.3077,0.0,0.0,0.0,0.0,-2.2443,0.0,-2.4271,-2.4271,-2.5562,-2.622,-2.6203,-2.5524,-2.5557,-2.6187,-2.5524,-2.5574,-2.6184,-2.5733,-2.5185,-2.4539,-2.4457,-2.4234,-2.394,-2.3897,-2.3581,-2.3038,-2.2754,-2.2649,-2.2636,0.0,0.0,0.0,0.0,0.0,0.0,0.0,-2.549,-2.5498,-2.5505,-2.5505,-2.549,-2.5434,-2.5426,-2.5418,-2.5382,-2.5265,-2.5196,-2.5264,-2.5225,-2.5234,-2.5254,-2.5234,-2.5234,-2.5244,-2.533,-2.5346,0.0,0.0,0.0,0.0,0.0,0.0,0.0,0.0,-2.5222,-2.5203,-2.508,-2.4962,-2.4888,-2.4749,-2.4707,-2.4707,-2.4707,-2.4692,-2.4695,-2.4692,-2.4695,-2.4666,-2.4682,-2.465,-2.4564,-2.4615,-2.465,-2.4666,-2.4682,-2.4682,-2.465,-2.4615,-2.4547,-2.4495,-2.4497,-2.4498,-2.463,-2.5113,-2.5224,-2.5317,-2.5633,-2.5968,-2.6321,-2.6785,-2.7099,-2.7039,0.0,0.0,0.0,0.0,0.0,0.0,-2.4094,0.0,-2.3881,0.0,-2.3558,0.0,0.0,0.0,0.0,0.0,0.0,0.0,-2.2515,0.0,-2.4503,-2.455,-2.5647,-2.6274,-2.6434,-2.5976,-2.5922,-2.6203,-2.5905,-2.5779,-2.5844,-2.5696,-2.5301,-2.4766,-2.458,-2.4416,-2.4276,-2.4067,-2.3797,-2.3436,-2.2875,-2.2623,-2.2521,-2.5952,0.0,-2.5507,0.0,-2.5495,-2.549,-2.5498,-2.5524,-2.5538,-2.5525,-2.5531,-2.5525,-2.5531,-2.5525,-2.5531,-2.5531,-2.5449,-2.539,-2.539,-2.5385,-2.5387,-2.5387,-2.5387,0.0,-2.5322,-2.541,-2.5441,-2.5387,-2.6105,0.0,0.0,0.0,0.0,0.0,-2.563,-2.5523,-2.5262,-2.5417,-2.5272,-2.4888,-2.4808,-2.4779,-2.4823,-2.4823,-2.4823,-2.4823,-2.4823,-2.4808,-2.4813,-2.4813,-2.4798,-2.4734,-2.4714,-2.4698,-2.4698,-2.4698,-2.4698,-2.4698,-2.4631,-2.458,-2.4512,-2.4512,-2.4497,-2.4648,-2.5224,-2.554,-2.5708,-2.5708,-2.5708,-2.5875,-2.6451,-2.6488,-2.643,-2.6353,0.0,0.0,0.0,-2.4557,0.0,-2.419,-2.4153,-2.4096,-2.4037,-2.3837,0.0,0.0,0.0,0.0,0.0,0.0,0.0,0.0,0.0,0.0,0.0,-2.5933,-2.6415,-2.6589,-2.631,-2.622,-2.622,-2.6132,-2.5934,-2.5605,-2.553,-2.5317,-2.4966,-2.4726,-2.4661,-2.4605,-2.44,-2.4094,-2.3739,-2.3098,-2.2649,-2.2282,-2.6974,-2.6265,-2.5505,-2.5499,-2.5498,-2.5492,-2.5499,-2.5557,-2.5601,-2.5601,-2.5601,-2.5601,-2.5601,-2.5601,-2.5601,-2.5601,-2.5601,-2.5601,-2.5601,-2.5602,-2.5596,0.0,0.0,-2.5596,-2.5596,-2.5589,-2.5601,-2.5601,0.0,0.0,-2.5615,0.0,-2.5376,-2.5522,-2.6256,-2.603,-2.5153,-2.6025,-2.5806,-2.4902,-2.4902,-2.4981,-2.5103,-2.5103,-2.5103,-2.5103,-2.5103,-2.5103,-2.5103,-2.5103,-2.5084,-2.5056,-2.4787,-2.4695,-2.4707,-2.4707,-2.4707,-2.4692,-2.4698,-2.465,-2.458,-2.4512,-2.4497,-2.45,-2.4518,-2.5132,-2.5708,-2.5708,-2.5708,-2.5708,-2.5708,-2.5653,-2.5597,-2.5522,0.0,0.0,0.0,0.0,0.0,-2.4192,-2.4037,-2.4018,-2.4358,-2.3959,0.0,0.0,0.0,0.0,0.0,0.0,0.0,-2.426,-2.5501,0.0,-2.6182,-2.6452,-2.6589,-2.6589,-2.631,-2.622,-2.6168,-2.6007,-2.5807,-2.5605,-2.5394,-2.5178,-2.5005,-2.5021,-2.5005,-2.5005,-2.5005,-2.4533,-2.3837,-2.3348,-2.2785,-2.2137,-2.7599,-2.6637,-2.5574,-2.5566,-2.5561,-2.5576,-2.5577,-2.5589,-2.5601,-2.5601,-2.5601,-2.5601,-2.5601,-2.5601,-2.5601,0.0,-2.5601,-2.5601,0.0,-2.5595,-2.5595,-2.5595,-2.5595,-2.5595,-2.5595,-2.5595,-2.5601,-2.5601,0.0,0.0,0.0,-2.6253,-2.6225,-2.6296,-2.5899,-2.588,-2.6098,-2.5781,-2.5409,-2.5043,-2.5043,-2.5049,-2.5096,-2.5096,-2.5096,-2.5096,-2.5096,-2.5096,-2.5096,-2.5096,-2.5096,-2.5091,-2.4994,-2.4902,-2.4832,-2.4832,-2.4779,-2.4692,-2.4698,-2.465,-2.458,-2.4512,-2.4497,-2.45,-2.45,-2.4704,-2.489,-2.489,-2.489,-2.489,-2.489,-2.5318,-2.5616,-2.5522,-2.5964,0.0,0.0,0.0,-2.5844,-2.5904,-2.5369,-2.5039,-2.5208,-2.4466,0.0,0.0,0.0,0.0,0.0,0.0,0.0,0.0,-2.5547,0.0,-2.6481,-2.6742,-2.6875,-2.6892,-2.6606,-2.638,-2.6168,-2.597,-2.577,-2.5605,-2.5394,-2.5178,-2.5005,-2.5005,-2.5005,-2.5005,-2.5005,-2.4751,-2.4328,-2.3837,-2.3275,-2.2618,-2.7159,-2.74,-2.7147,-2.5821,-2.5593,-2.5609,-2.5623,-2.5615,-2.5601,-2.5601,-2.5601,-2.5601,-2.5601,-2.5601,0.0,-2.5601,-2.5601,-2.5601,-2.5601,-2.5601,-2.5601,-2.5601,-2.5601,-2.5601,-2.5601,-2.5601,0.0,-2.5601,-2.6094,-2.6346,-2.6357,-2.6246,-2.6384,-2.6738,-2.6446,-2.641,-2.6611,-2.6688,-2.632,-2.5661,-2.5661,-2.5683,-2.5657,-2.5369,-2.5253,-2.5253,-2.5253,-2.5253,-2.5253,-2.5253,-2.5253,-2.5253,-2.5253,-2.5371,-2.5456,-2.5101,-2.4915,-2.4922,-2.5248,-2.5254,-2.5217,-2.5536,-2.5514,-2.5428,-2.541,-2.5205,-2.5075,-2.5336,-2.541,-2.5317,-2.502,-2.5355,-2.556,-2.5153,-2.5504,-2.5798,-2.5717,0.0,-2.5866,0.0,0.0,0.0,0.0,-2.5484,-2.5014,0.0,0.0,0.0,0.0,0.0,0.0,-2.5138,-2.6208,0.0,-2.7016,-2.7082,-2.7135,-2.7152,-2.6775,-2.6503,-2.6345,-2.5954,-2.5733,-2.5567,-2.5317,-2.5139,-2.5005,-2.5005,-2.5005,-2.5005,-2.5005,-2.4846,-2.4533,-2.4048,-2.358,-2.3068,-2.6173,-2.832,-2.9466,0.0,-2.5695,0.0,-2.5697,-2.5644,-2.5604,-2.5604,-2.5604,-2.5701,-2.594,-2.5962,-2.5892,-2.5729,0.0,0.0,0.0,-2.5659,-2.5698,-2.5698,-2.5737,-2.5776,-2.5776,-2.5718,-2.5659,-2.5601,-2.5659,-2.5653,-2.5596,-2.5583,-2.6008,-2.6827,-2.752,-2.7372,-2.6708,-2.821,-2.796,-2.6506,-2.6506,-2.6563,-2.6528,-2.5801,-2.5511,-2.5511,-2.5511,-2.5511,-2.5511,-2.5511,-2.555,-2.5569,-2.553,-2.606,-2.6486,-2.5428,-2.5191,-2.5421,-2.6109,-2.6249,-2.6374,-2.7127,-2.7163,-2.7009,-2.6935,-2.6395,-2.6096,-2.6749,-2.6916,-2.6656,-2.5856,-2.5708,-2.5411,-2.4542,-2.445,-2.445,-2.4321,0.0,-2.4783,0.0,0.0,0.0,0.0,-2.6838,-2.6641,0.0,0.0,0.0,0.0,0.0,-2.584,-2.6595,-2.7315,-2.7701,-2.7701,-2.7509,-2.7404,-2.7404,-2.6876,-2.6606,-2.6572,-2.5937,-2.5642,-2.5567,-2.5201,-2.5005,-2.5005,-2.5005,-2.5005,-2.5005,-2.4966,-2.4846,-2.4549,-2.4105,-2.3809,-2.3465,0.0,0.0,-2.7077,-2.7573,-2.6561,-2.5683,-2.5691,-2.5681,-2.5683,-2.5683,-2.5683,-2.668,-2.9277,-2.9519,-2.8799,-2.7051,-2.6106,-2.5601,-2.5601,-2.6223,-2.6592,-2.6592,-2.7174,-2.7498,-2.7498,-2.6903,-2.6262,-2.5601,-2.6262,-2.6255,-2.5615,-2.6217,-2.6592,-2.6784,-2.6299,-2.6335,-2.6749,-2.647,-2.6114,-2.5749,-2.5749,-2.5766,-2.5762,-2.5569,-2.5511,-2.5511,-2.5511,-2.5511,-2.5511,-2.5511,-2.5917,-2.6315,-2.5685,-2.65,-2.7343,-2.5726,-2.6082,-2.6771,-2.5645,-2.6257,-2.7108,-2.6605,-2.6935,-2.7324,-2.7161,-2.6998,-2.6873,-2.6916,-2.6916,-2.6656,-2.5856,-2.5708,-2.5411,-2.4542,-2.4912,-2.5282,-2.5189,-2.5742,0.0,0.0,-2.6854,-2.6838,-2.7713,-2.7231,-2.6702,0.0,0.0,0.0,0.0,-2.6332,-2.6402,-2.6595,-2.7315,-2.7701,-2.7701,-2.7642,-2.7539,-2.7404,-2.707,-2.6792,-2.6589,-2.6277,-2.5937,-2.5605,-2.5317,-2.5123,-2.5005,-2.5005,-2.5005,-2.4966,-2.4902,-2.4726,-2.4589,-2.4441,-2.4051,-2.3551,-2.7487,-2.6548,-2.6,-2.6956,-2.6332,-2.5707,-2.5707,-2.7034,-2.803,-2.803,-2.803,-2.8732,-3.0606,-3.076,-3.0257,-2.9002,-2.7344,-2.6339,-2.6203,-2.698,-2.7446,-2.7446,-2.7867,-2.81,-2.81,-2.768,-2.7213,-2.6747,-2.7213,-2.7207,-2.6754,-2.7194,-2.7607,-2.7942,-2.7089,-2.7179,-2.7958,-2.7474,-2.7265,-2.7229,-2.7229,-2.6989,-2.6594,-2.6207,-2.582,-2.5511,-2.5511,-2.5511,-2.5511,-2.5511,-2.6025,-2.6625,-2.618,-2.7213,-2.8326,-2.6939,-2.6834,-2.7072,-2.6523,-2.7017,-2.7733,-2.791,-2.8049,-2.8098,-2.7934,-2.7604,-2.7406,-2.7653,-2.766,-2.7438,-2.7008,-2.6562,-2.5968,-2.5134,-2.5059,-2.5078,-2.5005,-2.5708,0.0,-2.7375,-2.7414,-2.775,-2.8606,-2.831,-2.783,-2.7302,-2.7254,0.0,-2.7115,-2.7104,-2.7104,-2.7104,-2.749,-2.7701,-2.7701,-2.7701,-2.7642,-2.7539,-2.7293,-2.712,-2.6957,-2.664,-2.6297,-2.5997,-2.5626,-2.5378,-2.5208,-2.5068,-2.5005,-2.5005,-2.4942,-2.4766,-2.4589,-2.4564,-2.4261,-2.3909,-2.5805,-2.5707,-2.5707,-2.5707,-2.5707,-2.5707,-2.5707,-2.8166,-3.004,-3.004,-3.0489,-3.0801,-3.0801,-3.0801,-3.0743,-3.063,-2.8901,-2.7662,-2.7259,-2.7865,-2.8262,-2.8312,-2.8437,-2.8489,-2.8489,-2.8359,-2.8236,-2.81,-2.8236,-2.8236,-2.81,-2.8223,-2.8623,-2.9167,-2.8434,-2.8504,-2.9202,-2.9202,-2.909,-2.8919,-2.8919,-2.8485,-2.7752,-2.7,-2.6362,-2.5878,-2.5878,-2.5878,-2.5878,-2.5878,-2.642,-2.7069,-2.6934,-2.8083,-2.9321,-2.8451,-2.7677,-2.7232,-2.7832,-2.8,-2.8349,-2.9729,-2.9614,-2.9098,-2.8955,-2.8384,-2.8084,-2.8742,-2.8766,-2.859,-2.8459,-2.7623,-2.6674,-2.5855,-2.5038,-2.4482,-2.443,0.0,-2.5987,-2.6728,-2.7583,-2.844,-2.9332,-2.9407,-2.916,-2.8621,-2.8529,-2.8298,-2.78,-2.773,-2.7701,-2.7701,-2.7701,-2.7701,-2.7701,-2.7701,-2.7701,-2.7701,-2.7661,-2.7556,-2.7373,-2.7108,-2.6809,-2.6505,-2.5961,-2.5684,-2.5503,-2.5146,-2.5005,-2.5021,-2.4966,-2.4806,-2.4605,-2.4673,-2.4581,-2.443,-2.6273,-2.5707,-2.5707,-2.5707,-2.5707,-2.5707,-2.5707,-2.6156,-2.6488,-2.6488,-2.9006,-3.0801,-3.0801,-3.0801,-3.0495,-2.9764,-3.0036,-2.9835,-2.8821,-2.8814,-2.8996,-2.9272,-2.9936,-3.0302,-3.0302,-2.957,-2.8845,-2.81,-2.8845,-2.8826,-2.812,-2.8858,-2.8877,-2.8295,-2.8152,-2.8184,-2.8306,-2.8306,-2.7872,-2.7191,-2.7191,-2.7113,-2.697,-2.6839,-2.7168,-2.7683,-2.7628,-2.76,-2.76,-2.76,-2.818,-2.876,-2.8025,-2.8992,-3.023,-2.934,-2.8992,-2.876,-2.8161,-2.8519,-2.9294,-3.0279,-3.0383,-3.0202,-3.0011,-2.983,-2.9689,-2.9706,-2.9696,-2.9455,-2.8774,-2.7832,-2.6868,-2.6005,-2.5086,-2.45,-2.4482,0.0,-2.6005,-2.6786,-2.7603,-2.844,-2.9332,-2.9407,-2.9283,-2.8938,-2.867,-2.8358,-2.8047,-2.7811,-2.7701,-2.7701,-2.7701,-2.7701,-2.7701,-2.7701,-2.7701,-2.7701,-2.8373,-2.8216,-2.7421,-2.795,-2.7653,-2.6641,-2.6139,-2.5832,-2.561,-2.5185,-2.5005,-2.4966,-2.4751,-2.463,-2.4667,-2.5033,-2.5164,-2.5198,-2.6371,-2.7171,-2.8455,-2.8454,-2.8449,-2.8455,-2.8454,-2.845,-2.845,-2.845,-2.9815,-3.0801,-3.0801,-3.0801,-3.0648,-3.0247,-3.0563,-3.0582,-3.0054,-2.9993,-3.0033,-3.0199,-3.0554,-3.0747,-3.0701,-3.0311,-2.9894,-2.9505,-2.9894,-2.9894,-2.9505,-2.9913,-2.9894,-2.9486,-2.902,-2.9052,-2.9472,-2.9006,-2.8844,-2.89,-2.89,-2.8621,-2.8206,-2.8171,-2.8136,-2.8097,-2.807,-2.8042,-2.805,-2.8039,-2.8601,-2.9231,-2.8825,-2.9571,-3.052,-3.0114,-2.9669,-2.9205,-2.8799,-2.8992,-2.9515,-3.0385,-3.055,-3.049,-3.0367,-3.0309,-3.0228,-3.0177,-3.008,-2.9893,-2.9512,-2.8669,-2.7695,-2.6747,-2.5839,0.0,0.0,-2.5838,-2.6656,-2.7455,-2.8292,-2.8961,-2.937,-2.9407,-2.9283,-2.9026,-2.8868,-2.8572,-2.8112,-2.7964,-2.784,-2.7683,-2.7701,-2.7701,-2.7701,-2.7701,-2.7701,-2.7701,-2.8526,-2.8658,-2.8216,-2.8565,-2.8372,-2.7736,-2.6673,-2.6104,-2.5868,-2.5262,-2.5005,-2.4966,-2.4766,-2.492,-2.5212,-2.5339,-2.5608,-2.5949,-2.7405,-2.9001,-3.0801,-3.0808,-3.079,-3.0801,-3.0808,-3.0799,-3.0799,-3.0799,-3.0794,-3.0794,-3.0799,-3.0801,-3.0801,-3.0801,-3.0799,-3.0799,-3.0799,-3.08,-3.0796,-3.0795,-3.0792,-3.0777,-3.072,-3.072,-3.0721,-3.0722,-3.0722,-3.0722,-3.0722,-3.0722,-3.071,-3.0678,-2.9998,-3.0063,-3.0651,-2.9991,-2.9965,-3.0397,-3.0397,-3.0001,-2.9385,-2.9342,-2.9063,-2.8694,-2.8686,-2.8686,-2.8686,-2.8691,-2.909,-2.9597,-2.9597,-3.0064,-3.0598,-3.0598,-3.0133,-2.9592,-2.9592,-2.9592,-2.9766,-3.0424,-3.0559,-3.0491,-3.051,-3.0449,-3.0398,-3.0406,-3.0292,-3.0182,-3.0182,-2.9403,-2.8476,-2.7724,0.0,0.0,0.0,-2.6693,-2.7418,-2.8012,-2.8886,-2.9407,-2.9407,-2.9407,-2.9304,-2.9112,-2.9026,-2.8797,-2.8342,-2.8237,-2.8075,-2.78,-2.7713,-2.7701,-2.7701,-2.7701,-2.7701,-2.7701,-2.8526,-2.8807,-2.8631,-2.8807,-2.8714,-2.8366,-2.7079,-2.6402,-2.621,-2.5535,-2.5208,-2.5107,-2.5005,-2.5152,-2.5461,-2.5672,-2.6006,-2.6426,-3.047,-3.0638,-3.0804,-3.0799,-3.0804,-3.0804,-3.0799,-3.0799,-3.0799,-3.0799,-3.0804,-3.0802,-3.0799,-3.0801,-3.0801,-3.0801,-3.0794,-3.081,-3.081,-3.0807,-3.0794,-3.0806,-3.08,-3.0798,-3.0799,-3.0796,-3.0796,-3.0794,-3.0794,-3.0794,-3.0794,-3.0794,-3.0758,-3.0697,-3.0638,-3.0631,-3.069,-3.0632,-3.0185,-2.9505,-2.9505,-2.946,-2.9401,-2.94,-2.9858,-3.0498,-3.0435,-3.0427,-3.0427,-3.0408,-3.0458,-3.0498,-3.0498,-3.0539,-3.0598,-3.0598,-3.0559,-3.0501,-3.0501,-3.0501,-3.052,-3.0578,-3.0559,-3.051,-3.049,-3.0439,-3.0406,-3.039,-3.0398,-3.0386,-3.0386,-2.9551,-2.8861,-2.879,0.0,0.0,-2.7073,-2.7625,-2.803,-2.8086,-2.8886,-2.9407,-2.9407,-2.9407,-2.9386,-2.9386,-2.9134,-2.898,-2.8957,-2.8646,-2.835,-2.8075,-2.7829,-2.7701,-2.7701,-2.7701,-2.7701,-2.7701,-2.8526,-2.8509,-2.7806,-2.8561,-2.8448,-2.7626,-2.71,-2.6824,-2.6708,-2.621,-2.5799,-2.5465,-2.5368,-2.5068,-2.4823,-2.5985,-2.6423,-2.6565,-3.0381,-3.0793,-3.0799,-3.0799,-3.0799,-3.0799,-3.0799,-3.0799,-3.0799,-3.0799,-3.0799,-2.999,-2.7865,-2.9523,-2.9955,-2.781,-2.8583,-2.9343,-2.9721,-2.9432,-2.9712,-3.0749,-3.0799,-3.0793,-3.0801,-3.08,-3.0797,-3.0806,-3.0804,-3.0801,-3.0801,-3.0801,-3.0794,-3.0762,-3.0762,-3.0755,-3.0763,-3.0763,-3.0568,-3.0252,-3.0219,-3.0208,-3.0222,-3.0217,-3.0409,-3.07,-3.0673,-3.0665,-3.0665,-3.0661,-3.0653,-3.0657,-3.0602,-3.0604,-3.0597,-3.0607,-3.0598,-3.0598,-3.0598,-3.0598,-3.0598,-3.0598,-3.0559,-3.0491,-3.05,-3.0449,-3.0386,-3.0394,-3.0402,-3.0398,-3.0398,-3.0086,-2.9634,-2.9002,0.0,-2.824,-2.8137,-2.8217,-2.8465,-2.897,-2.9265,-2.9407,-2.9407,-2.9407,-2.9407,-2.9407,-2.9304,-2.9178,-2.9003,-2.867,-2.8435,-2.835,-2.8102,-2.7869,-2.7701,-2.7701,-2.7701,-2.7701,-2.8526,-2.8737,-2.8456,-2.8754,-2.8706,-2.8299,-2.7321,-2.6839,-2.6741,-2.628,-2.6016,-2.5872,-2.5815,-2.5756,-2.5751,-2.6141,-2.633,-2.6531,-3.0137,-3.0799,-3.0799,-3.0799,-3.0799,-3.0799,-3.0799,-3.0799,-3.0799,-3.0799,-3.0799,-2.9494,-2.6069,-2.7791,-2.8246,-2.5898,-2.7238,-2.8294,-2.856,-2.8388,-2.8902,-3.0329,-3.0641,-3.081,-3.0808,-3.0792,-3.0797,-3.0801,-3.0527,-3.0525,-3.0799,-3.0545,-3.0563,-3.0792,-3.0792,-3.0808,-3.0801,-3.0801,-3.0801,-3.0799,-3.0755,-3.0724,-3.072,-3.0739,-3.0736,-3.0736,-3.0736,-3.0736,-3.0736,-3.0734,-3.071,-3.0697,-3.0644,-3.0626,-3.0595,-3.0597,-3.0607,-3.0598,-3.0598,-3.0598,-3.0598,-3.0598,-3.0559,-3.053,-3.0501,-3.0471,-3.0439,-3.0398,-3.0394,-3.0402,-3.041,-3.0398,-3.0163,-2.9475,-2.9321,-2.9235,-2.9159,-2.8985,-2.9041,-2.9532,-2.9531,-2.945,-2.9407,-2.9407,-2.9407,-2.9407,-2.9407,-2.9326,-2.9134,-2.8827,-2.8646,-2.8646,-2.8376,-2.8156,-2.7936,-2.7771,-2.7701,-2.7701,-2.8263,-2.8526,-2.8526,-2.8526,-2.8465,-2.8338,-2.7451,-2.7036,-2.694,-2.6607,-2.6401,-2.628,-2.6227,-2.6221,-2.628,-2.6206,-2.6277,-2.6364,-3.0117,-3.0799,-3.0799,-3.0838,-3.0838,-3.0838,-3.0838,-3.0838,-3.0838,-3.0799,-3.0799,-2.9513,-2.6108,-2.5738,-2.5738,-2.5699,-2.7238,-2.7959,-2.7413,-2.7881,-2.8571,-2.9432,-3.031,-3.0778,-3.0798,-3.0798,-3.0798,-3.0798,-2.9923,-2.9946,-3.0755,-2.9971,-3.0027,-3.0781,-3.0801,-3.0798,-3.0801,-3.0801,-3.0801,-3.0801,-3.0801,-3.0801,-3.0801,-3.0801,-3.0801,-3.0801,-3.0801,-3.0801,-3.0801,-3.0801,-3.0755,-3.0706,-3.0706,-3.0639,-3.0604,-3.0604,-3.0597,-3.0598,-3.0598,-3.0598,-3.0598,-3.0598,-3.0598,-3.0569,-3.052,-3.0491,-3.0481,-3.0409,-3.0398,-3.0406,-3.039,-3.0398,-3.0398,-3.0398,-3.0241,-3.0089,-3.0089,-2.9977,-2.9836,-2.9626,-2.9608,-2.9551,-2.9409,-2.9407,-2.9407,-2.9407,-2.9407,-2.9407,-2.9407,-2.9156,-2.9003,-2.9003,-2.867,-2.8485,-2.8485,-2.7964,-2.7683,-2.7683,-2.7701,-2.7701,-2.7701,-2.7701,-2.763,-2.7496,-2.7496,-2.7421,-2.7299,-2.7299,-2.7055,-2.6691,-2.6691,-2.6401,-2.6023,-2.6312,-2.627,-2.6154,-2.9712,-3.0386,-3.1118,-3.3481,-3.4165,-3.4389,-3.4389,-3.4389,-3.3512,-3.1111,-3.0799,-3.0409,-2.9396,-2.9279,-2.831,-2.5913,-2.6887,-2.7238,-2.6264,-2.6887,-2.7398,-2.7655,-2.8513,-2.9254,-2.9877,-2.9885,-2.9889,-2.9889,-2.9627,-2.9338,-2.9048,-2.938,-2.9659,-2.9904,-3.0526,-3.0806,-3.0795,-3.0795,-3.0796,-3.0798,-3.08,-3.0799,-3.0798,-3.0808,-3.0801,-3.0801,-3.0801,-3.0801,-3.0801,-3.0801,-3.0794,-3.0765,-3.07,-3.0681,-3.0667,-3.0607,-3.0598,-3.0595,-3.0597,-3.0598,-3.0598,-3.0598,-3.0598,-3.0569,-3.052,-3.0491,-3.0491,-3.0479,-3.0428,-3.0398,-3.0406,-3.0406,-3.0394,-3.041,-3.0359,-3.0316,-3.0311,-3.0155,-3.0022,-2.9958,-2.9731,-2.9589,-2.9551,-2.947,-2.9407,-2.9407,-2.9407,-2.9407,-2.9407,-2.9326,-2.9283,-2.9283,-2.8984,-2.885,-2.885,-2.8264,-2.7964,-2.7964,-2.78,-2.7701,-2.7701,-2.7659,-2.7617,-2.7557,-2.7483,-2.7407,-2.7362,-2.733,-2.7218,-2.7105,-2.7105,-2.6808,-2.6417,-2.6405,-2.6143,-2.5776,-2.9679,-3.0079,-3.0727,-3.2746,-3.3346,-3.3529,-3.3529,-3.3529,-3.2867,-3.1042,-3.0799,-3.0799,-3.0799,-3.0799,-2.979,-2.7258,-2.7463,-2.742,-2.6734,-2.7143,-2.7264,-2.6926,-2.7394,-2.8095,-2.8968,-2.8996,-2.8981,-2.8981,-2.8638,-2.8392,-2.8259,-2.8434,-2.8691,-2.9045,-2.9572,-2.9985,-3.0261,-2.9949,-3.0189,-3.078,-3.0442,-3.0524,-3.0798,-3.0801,-3.0604,-3.0331,-3.0331,-3.0331,-3.0331,-3.0331,-3.0543,-3.0792,-3.0743,-3.071,-3.0693,-3.0658,-3.0637,-3.0639,-3.0644,-3.0626,-3.0593,-3.0593,-3.0606,-3.0598,-3.0559,-3.053,-3.052,-3.0509,-3.0479,-3.0419,-3.0398,-3.0428,-3.0428,-3.0414,-3.0406,-3.0406,-3.041,-3.0299,-3.0196,-3.0109,-2.9912,-2.9784,-2.9715,-2.9645,-2.957,-2.9491,-2.9429,-2.9407,-2.9407,-2.9407,-2.9407,-2.9407,-2.9222,-2.9156,-2.9156,-2.8688,-2.8394,-2.8246,-2.7992,-2.7869,-2.784,-2.7701,-2.76,-2.7557,-2.7483,-2.7407,-2.7362,-2.733,-2.7299,-2.7299,-2.7299,-2.7105,-2.6758,-2.6556,-2.6243,-2.5885,-2.9888,-2.9888,-2.9983,-3.0286,-3.0097,-2.9888,-2.9888,-2.9888,-3.0103,-3.0646,-3.0734,-3.0759,-3.0784,-3.0789,-3.0341,-2.9309,-2.8582,-2.8182,-2.8207,-2.8207,-2.7853,-2.7039,-2.6946,-2.7277,-2.8076,-2.8076,-2.8076,-2.8076,-2.7297,-2.7262,-2.7956,-2.7293,-2.7417,-2.8187,-2.8262,-2.8691,-2.9335,-2.8694,-2.9283,-3.0638,-2.9971,-3.0091,-3.0684,-3.0684,-3.0235,-2.9593,-2.9513,-2.9533,-2.9593,-2.9593,-3.0092,-3.0703,-3.0774,-3.076,-3.071,-3.0707,-3.0716,-3.072,-3.0691,-3.0656,-3.0607,-3.0607,-3.0607,-3.0597,-3.0598,-3.0598,-3.0588,-3.0519,-3.05,-3.0481,-3.0409,-3.0469,-3.0479,-3.0428,-3.0417,-3.0406,-3.039,-3.041,-3.0323,-3.0136,-3.0122,-3.0052,-2.9934,-2.9902,-2.982,-2.9644,-2.9511,-2.9409,-2.9409,-2.9407,-2.9407,-2.9407,-2.9407,-2.9407,-2.9407,-2.9156,-2.885,-2.8529,-2.8246,-2.8129,-2.8129,-2.7829,-2.7642,-2.7526,-2.7496,-2.7421,-2.7299,-2.7299,-2.7299,-2.7299,-2.7299,-2.7233,-2.7053,-2.6775,-2.6538,-2.6295,-2.9888,-2.9888,-3.0722,-3.3354,-3.1648,-2.9888,-2.9888,-2.9888,-2.995,-3.0075,-3.022,-3.0404,-3.0632,-3.0599,-3.0435,-3.0143,-2.8853,-2.8099,-2.8188,-2.8207,-2.8126,-2.7935,-2.7258,-2.6985,-2.718,-2.718,-2.718,-2.718,-2.6985,-2.6673,-2.6248,-2.6716,-2.7028,-2.7227,-2.7928,-2.8322,-2.8525,-2.9012,-2.9471,-2.9893,-3.0362,-3.027,-2.9865,-2.9865,-2.9747,-2.9513,-2.883,-2.9025,-2.9593,-2.9593,-2.9713,-2.997,-3.0598,-3.0795,-3.0779,-3.0779,-3.0775,-3.0769,-3.0712,-3.0691,-3.0682,-3.0677,-3.0681,-3.0665,-3.0615,-3.0598,-3.0598,-3.0588,-3.055,-3.0491,-3.0481,-3.0481,-3.05,-3.0479,-3.0469,-3.0458,-3.0406,-3.0402,-3.0379,-3.0343,-3.0196,-3.0095,-3.0066,-2.9946,-2.9886,-2.9836,-2.9662,-2.957,-2.957,-2.9451,-2.9407,-2.9407,-2.9407,-2.9407,-2.9407,-2.9326,-2.9156,-2.8797,-2.8551,-2.8396,-2.8317,-2.7961,-2.776,-2.7701,-2.7452,-2.7313,-2.7299,-2.7299,-2.7299,-2.7299,-2.7299,-2.7233,-2.7103,-2.7038,-2.6892,-2.6708,-3.1629,-3.1933,-3.2842,-3.4586,-3.3449,-3.2293,-3.2293,-3.0947,-2.9888,-2.9888,-2.9992,-3.0109,-3.0254,-3.0317,-3.0364,-3.0351,-2.966,-2.9264,-2.928,-2.9329,-2.9169,-2.8796,-2.8349,-2.7906,-2.7532,-2.7104,-2.6719,-2.6322,-2.6322,-2.6303,-2.6264,-2.6303,-2.6751,-2.753,-2.7569,-2.8041,-2.8825,-2.8864,-2.9379,-3.0173,-3.018,-3.0186,-3.0174,-3.0174,-2.9918,-2.9489,-2.904,-2.9199,-2.965,-3.004,-3.0177,-3.0255,-3.0665,-3.0823,-3.0847,-3.0857,-3.0859,-3.0839,-3.0793,-3.0777,-3.0742,-3.0758,-3.0724,-3.0686,-3.0622,-3.061,-3.0593,-3.055,-3.0559,-3.053,-3.052,-3.053,-3.054,-3.0509,-3.0499,-3.0488,-3.0414,-3.039,-3.0398,-3.0398,-3.0311,-3.0241,-3.0241,-3.008,-2.9992,-2.9992,-2.9834,-2.9732,-2.9732,-2.9589,-2.9492,-2.9492,-2.9429,-2.9407,-2.9407,-2.9407,-2.9283,-2.9044,-2.8839,-2.8694,-2.8644,-2.8291,-2.8101,-2.8035,-2.7689,-2.7526,-2.7465,-2.7345,-2.7299,-2.7299,-2.7299,-2.7233,-2.7103,-2.7038,-2.6957,-2.6759,-3.3696,-3.4226,-3.485,-3.485,-3.4889,-3.4908,-3.4908,-3.2387,-3.04,-3.021,-3.0267,-3.0324,-3.0324,-3.039,-3.0465,-3.0547,-3.0519,-3.0501,-3.0462,-3.052,-3.0264,-2.9606,-2.9446,-2.9059,-2.8384,-2.7535,-2.6719,-2.5913,-2.5913,-2.6244,-2.6887,-2.6361,-2.6868,-2.8173,-2.7433,-2.792,-2.924,-2.868,-2.9249,-3.0529,-2.9955,-3.006,-3.0576,-3.0576,-3.0125,-2.9481,-2.9325,-2.9311,-2.9494,-3.0311,-3.0584,-3.0626,-3.0762,-3.0843,-3.0886,-3.0886,-3.0793,-3.07,-3.0857,-3.0741,-3.0632,-3.0788,-3.0771,-3.072,-3.0645,-3.062,-3.0593,-3.0557,-3.0558,-3.0577,-3.053,-3.0559,-3.0588,-3.0519,-3.0509,-3.0469,-3.0414,-3.0421,-3.039,-3.039,-3.041,-3.0398,-3.0398,-3.0254,-3.015,-3.015,-3.0026,-2.9915,-2.9915,-2.975,-2.9644,-2.9608,-2.9492,-2.9409,-2.9407,-2.9407,-2.9326,-2.9222,-2.9112,-2.898,-2.8905,-2.8644,-2.844,-2.8335,-2.8017,-2.7829,-2.7742,-2.7465,-2.7376,-2.7376,-2.733,-2.7233,-2.7103,-2.704,-2.6892,-2.6742,-3.4438,-3.4532,-3.4626,-3.4626,-3.4772,-3.4908,-3.4908,-3.3733,-3.2501,-3.1497,-3.1781,-3.2065,-3.2065,-3.1682,-3.1461,-3.1594,-3.0729,-3.0209,-3.0325,-3.0348,-3.0323,-3.0279,-2.9601,-2.9171,-2.9063,-2.832,-2.7535,-2.6732,-2.6732,-2.679,-2.6907,-2.7569,-2.7978,-2.8193,-2.8076,-2.8154,-2.8427,-2.9046,-2.9464,-2.973,-3.0373,-3.0244,-2.9686,-2.9686,-2.9608,-2.9393,-2.8652,-2.8424,-2.8605,-2.9406,-2.9704,-2.9884,-3.0587,-3.0801,-3.0801,-3.0801,-3.0316,-2.9949,-3.0698,-3.0349,-2.9941,-3.0703,-3.0878,-3.0856,-3.0796,-3.0728,-3.0677,-3.0667,-3.062,-3.0598,-3.0591,-3.0593,-3.0598,-3.0588,-3.055,-3.051,-3.05,-3.0439,-3.0406,-3.0406,-3.0402,-3.0398,-3.0398,-3.0386,-3.0355,-3.0355,-3.0182,-3.008,-3.008,-2.9931,-2.9786,-2.9608,-2.957,-2.9531,-2.9407,-2.9407,-2.9386,-2.9386,-2.9302,-2.9152,-2.8994,-2.8718,-2.8594,-2.8525,-2.8201,-2.8047,-2.802,-2.7742,-2.7659,-2.7612,-2.739,-2.7282,-2.725,-2.7089,-2.6975,-2.6942,-3.4602,-3.458,-3.4536,-3.4536,-3.4623,-3.473,-3.4889,-3.4491,-3.4017,-3.3505,-3.3126,-3.309,-3.358,-3.3429,-3.2732,-3.1407,-3.1004,-3.0646,-3.0166,-3.0177,-3.0241,-3.034,-3.0009,-2.9811,-2.9814,-2.9023,-2.8451,-2.8129,-2.7744,-2.7843,-2.8345,-2.8247,-2.8725,-2.963,-2.9143,-2.9201,-2.9669,-3.0059,-3.0239,-3.0267,-3.0642,-3.0568,-3.0221,-3.0221,-3.0221,-3.0182,-2.9792,-2.9666,-2.9757,-3.0108,-3.025,-3.0333,-3.0684,-3.0801,-3.0801,-3.0801,-3.0589,-3.0417,-3.0792,-3.062,-3.0428,-3.08,-3.0898,-3.0898,-3.0857,-3.0831,-3.0799,-3.072,-3.0672,-3.0645,-3.06,-3.0603,-3.0602,-3.055,-3.052,-3.0491,-3.05,-3.0479,-3.0439,-3.0398,-3.0402,-3.0398,-3.0398,-3.0398,-3.0398,-3.0398,-3.0311,-3.0267,-3.0267,-3.0095,-2.9977,-2.988,-2.9801,-2.9734,-2.9681,-2.957,-2.9493,-2.9454,-2.9349,-2.9218,-2.9108,-2.8952,-2.8863,-2.8791,-2.8507,-2.836,-2.836,-2.8065,-2.7858,-2.7701,-2.7569,-2.7373,-2.7122,-2.7024,-2.6942,-2.6808]},{"header":{"parameterUnit":"m.s-1","parameterCategory":1,"la1":30.6,"la2":28.766,"lo1":-90.7593,"lo2":-88.6598,"dy":0.0162,"dx":0.0183,"nx":116,"ny":114,"refTime":"2024-05-14T06:00:00:Z","depth":0,"parameterNumber":3,"parameterNumberName":"V-component_of_WINDS"},"data":[0.0,0.0,0.0,0.0,0.0,0.0,0.0,0.0,0.0,0.0,0.0,0.0,0.0,0.0,0.0,0.0,0.0,0.0,0.0,0.0,0.0,0.0,0.0,0.0,0.0,0.0,0.0,0.0,0.0,0.0,0.0,0.0,0.0,0.0,0.0,0.0,0.0,0.0,0.0,0.0,0.0,0.0,0.0,0.0,0.0,0.0,0.0,0.0,0.0,0.0,0.0,0.0,0.0,0.0,0.0,0.0,0.0,0.0,0.0,0.0,0.0,0.0,0.0,0.0,0.0,0.0,0.0,0.0,0.0,0.0,0.0,0.0,0.0,0.0,0.0,0.0,0.0,0.0,0.0,0.0,0.0,0.0,0.0,0.0,0.0,0.0,0.0,0.0,0.0,0.0,0.0,0.0,0.0,0.0,0.0,0.0,0.0,0.0,0.0,0.0,0.0,0.0,0.0,0.0,0.0,0.0,0.0,0.0,0.0,0.0,0.0,0.0,0.0,0.0,0.0,0.0,0.0,0.0,0.0,0.0,0.0,0.0,0.0,0.0,0.0,0.0,0.0,0.0,0.0,0.0,0.0,0.0,0.0,0.0,0.0,0.0,0.0,0.0,0.0,0.0,0.0,0.0,0.0,0.0,0.0,0.0,0.0,0.0,0.0,0.0,0.0,0.0,0.0,0.0,0.0,0.0,0.0,0.0,0.0,0.0,0.0,0.0,0.0,0.0,0.0,0.0,0.0,0.0,0.0,0.0,0.0,0.0,0.0,0.0,0.0,0.0,0.0,0.0,0.0,0.0,0.0,0.0,0.0,0.0,0.0,0.0,0.0,0.0,0.0,0.0,0.0,0.0,0.0,0.0,0.0,0.0,0.0,0.0,0.0,0.0,0.0,0.0,0.0,0.0,0.0,0.0,0.0,0.0,0.0,0.0,0.0,0.0,0.0,0.0,0.0,0.0,0.0,0.0,0.0,0.0,0.0,0.0,0.0,0.0,0.0,0.0,0.0,0.0,0.0,0.0,0.0,0.0,0.0,0.0,0.0,0.0,0.0,0.0,0.0,0.0,0.0,0.0,0.0,0.0,0.0,0.0,0.0,0.0,0.0,0.0,0.0,0.0,0.0,0.0,0.0,0.0,0.0,0.0,0.0,0.0,0.0,0.0,0.0,0.0,0.0,0.0,0.0,0.0,0.0,0.0,0.0,0.0,0.0,0.0,0.0,0.0,0.0,0.0,0.0,0.0,0.0,0.0,0.0,0.0,0.0,0.0,0.0,0.0,0.0,0.0,0.0,0.0,0.0,0.0,0.0,0.0,0.0,0.0,0.0,0.0,0.0,0.0,0.0,0.0,0.0,0.0,0.0,0.0,0.0,0.0,0.0,0.0,0.0,0.0,0.0,0.0,0.0,0.0,0.0,0.0,0.0,0.0,0.0,0.0,0.0,0.0,0.0,0.0,0.0,0.0,0.0,0.0,0.0,0.0,0.0,0.0,0.0,0.0,0.0,0.0,0.0,0.0,0.0,0.0,0.0,0.0,0.0,0.0,0.0,0.0,0.0,0.0,0.0,0.0,0.0,0.0,0.0,0.0,0.0,0.0,0.0,0.0,0.0,0.0,0.0,0.0,0.0,0.0,0.0,0.0,0.0,0.0,0.0,0.0,0.0,0.0,0.0,0.0,0.0,0.0,0.0,0.0,0.0,0.0,0.0,0.0,0.0,0.0,0.0,0.0,0.0,0.0,0.0,0.0,0.0,0.0,0.0,0.0,0.0,0.0,0.0,0.0,0.0,0.0,0.0,0.0,0.0,0.0,0.0,0.0,0.0,0.0,0.0,0.0,0.0,0.0,0.0,0.0,0.0,0.0,0.0,0.0,0.0,0.0,0.0,0.0,0.0,0.0,0.0,0.0,0.0,0.0,0.0,0.0,0.0,0.0,0.0,0.0,0.0,0.0,0.0,0.0,0.0,0.0,0.0,0.0,0.0,0.0,0.0,0.0,0.0,0.0,0.0,0.0,0.0,0.0,0.0,0.0,0.0,0.0,0.0,0.0,0.0,0.0,0.0,0.0,0.0,0.0,0.0,0.0,0.0,0.0,0.0,0.0,0.0,0.0,0.0,0.0,0.0,0.0,0.0,0.0,0.0,0.0,0.0,0.0,0.0,0.0,0.0,0.0,0.0,0.0,0.0,0.0,0.0,0.0,0.0,0.0,0.0,0.0,0.0,0.0,0.0,0.0,0.0,0.0,0.0,0.0,0.0,0.0,0.0,0.0,0.0,0.0,0.0,0.0,0.0,0.0,0.0,0.0,0.0,0.0,0.0,0.0,0.0,0.0,0.0,0.0,0.0,0.0,0.0,0.0,0.0,0.0,0.0,0.0,0.0,0.0,0.0,0.0,0.0,0.0,0.0,0.0,0.0,0.0,0.0,0.0,0.0,0.0,0.0,0.0,0.0,0.0,0.0,0.0,0.0,0.0,0.0,0.0,0.0,0.0,0.0,0.0,0.0,0.0,0.0,0.0,0.0,0.0,0.0,0.0,0.0,0.0,0.0,0.0,0.0,0.0,0.0,0.0,0.0,0.0,0.0,0.0,0.0,0.0,0.0,0.0,0.0,0.0,0.0,0.0,0.0,0.0,0.0,0.0,0.0,0.0,0.0,0.0,0.0,0.0,0.0,0.0,0.0,0.0,0.0,0.0,0.0,0.0,0.0,0.0,0.0,0.0,0.0,0.0,0.0,0.0,0.0,0.0,0.0,0.0,0.0,0.0,0.0,0.0,0.0,0.0,0.0,0.0,0.0,0.0,0.0,0.0,0.0,0.0,0.0,0.0,0.0,0.0,0.0,0.0,0.0,0.0,0.0,0.0,0.0,0.0,0.0,0.0,0.0,0.0,0.0,0.0,0.0,0.0,0.0,0.0,0.0,0.0,0.0,0.0,0.0,0.0,0.0,0.0,0.0,0.0,0.0,0.0,0.0,0.0,0.0,0.0,0.0,0.0,0.0,0.0,0.0,0.0,0.0,0.0,0.0,0.0,0.0,0.0,0.0,0.0,0.0,0.0,0.0,0.0,0.0,0.0,0.0,0.0,0.0,0.0,0.0,0.0,0.0,0.0,0.0,0.0,0.0,0.0,0.0,0.0,0.0,0.0,0.0,0.0,0.0,0.0,0.0,0.0,0.0,0.0,0.0,0.0,0.0,0.0,0.0,0.0,0.0,0.0,0.0,0.0,0.0,0.0,0.0,0.0,0.0,0.0,0.0,0.0,0.0,0.0,0.0,0.0,0.0,0.0,0.0,0.0,0.0,0.0,0.0,0.0,0.0,0.0,0.0,0.0,0.0,0.0,0.0,0.0,0.0,0.0,0.0,0.0,0.0,0.0,0.0,0.0,0.0,0.0,0.0,0.0,0.0,0.0,0.0,0.0,0.0,0.0,0.0,0.0,0.0,0.0,0.0,0.0,0.0,0.0,0.0,0.0,0.0,0.0,0.0,0.0,0.0,0.0,0.0,0.0,0.0,0.0,0.0,0.0,0.0,0.0,0.0,0.0,0.0,0.0,0.0,0.0,0.0,0.0,0.0,0.0,0.0,0.0,0.0,0.0,0.0,0.0,0.0,0.0,0.0,0.0,0.0,0.0,0.0,0.0,0.0,0.0,0.0,0.0,0.0,0.0,0.0,0.0,0.0,0.0,0.0,0.0,0.0,0.0,0.0,0.0,0.0,0.0,0.0,0.0,0.0,0.0,0.0,0.0,0.0,0.0,0.0,0.0,0.0,0.0,0.0,0.0,0.0,0.0,0.0,0.0,0.0,0.0,0.0,0.0,0.0,0.0,0.0,0.0,0.0,0.0,0.0,0.0,0.0,0.0,0.0,0.0,0.0,0.0,0.0,0.0,0.0,0.0,0.0,0.0,0.0,0.0,0.0,0.0,0.0,0.0,0.0,0.0,0.0,0.0,0.0,0.0,0.0,0.0,0.0,0.0,0.0,0.0,0.0,0.0,0.0,0.0,0.0,0.0,0.0,0.0,0.0,0.0,0.0,0.0,0.0,0.0,0.0,0.0,0.0,0.0,0.0,0.0,0.0,0.0,0.0,0.0,0.0,0.0,0.0,0.0,0.0,0.0,0.0,0.0,0.0,0.0,0.0,0.0,0.0,0.0,0.0,0.0,0.0,0.0,0.0,0.0,0.0,0.0,0.0,0.0,0.0,0.0,0.0,0.0,0.0,0.0,0.0,0.0,0.0,0.0,0.0,0.0,0.0,0.0,0.0,0.0,0.0,0.0,0.0,0.0,0.0,0.0,0.0,0.0,0.0,0.0,0.0,0.0,0.0,0.0,0.0,0.0,0.0,0.0,0.0,0.0,0.0,0.0,0.0,0.0,0.0,0.0,0.0,0.0,0.0,0.0,0.0,0.0,0.0,0.0,0.0,0.0,0.0,0.0,0.0,0.0,0.0,0.0,0.0,0.0,0.0,0.0,0.0,0.0,0.0,0.0,0.0,0.0,0.0,0.0,0.0,0.0,0.0,0.0,0.0,0.0,0.0,0.0,0.0,0.0,0.0,0.0,0.0,0.0,0.0,0.0,0.0,0.0,0.0,0.0,0.0,0.0,0.0,0.0,0.0,0.0,0.0,0.0,0.0,0.0,0.0,0.0,0.0,0.0,0.0,0.0,0.0,0.0,0.0,0.0,0.0,0.0,0.0,0.0,0.0,0.0,0.0,0.0,0.0,0.0,0.0,0.0,0.0,0.0,0.0,0.0,0.0,0.0,0.0,0.0,0.0,0.0,0.0,0.0,0.0,0.0,0.0,0.0,0.0,0.0,0.0,0.0,0.0,0.0,0.0,0.0,0.0,0.0,0.0,0.0,0.0,0.0,0.0,0.0,0.0,0.0,0.0,0.0,0.0,0.0,0.0,0.0,0.0,0.0,0.0,0.0,0.0,0.0,0.0,0.0,0.0,0.0,0.0,0.0,0.0,0.0,0.0,0.0,0.0,0.0,0.0,0.0,0.0,0.0,0.0,0.0,0.0,0.0,0.0,0.0,0.0,0.0,0.0,0.0,0.0,0.0,0.0,0.0,0.0,0.0,0.0,0.0,0.0,0.0,0.0,0.0,0.0,0.0,0.0,0.0,0.0,0.0,0.0,0.0,0.0,0.0,0.0,0.0,0.0,0.0,0.0,0.0,0.0,0.0,0.0,0.0,0.0,0.0,0.0,0.0,0.0,0.0,0.0,0.0,0.0,0.0,0.0,0.0,0.0,0.0,0.0,0.0,0.0,0.0,0.0,0.0,0.0,0.0,0.0,0.0,0.0,0.0,0.0,0.0,0.0,0.0,0.0,0.0,0.0,0.0,0.0,0.0,0.0,0.0,0.0,0.0,0.0,0.0,0.0,0.0,0.0,0.0,0.0,0.0,0.0,0.0,0.0,0.0,0.0,0.0,0.0,0.0,0.0,0.0,0.0,0.0,0.0,0.0,0.0,0.0,0.0,0.0,0.0,0.0,0.0,0.0,0.0,0.0,0.0,0.0,0.0,0.0,0.0,0.0,0.0,0.0,0.0,0.0,0.0,0.0,0.0,0.0,0.0,0.0,0.0,0.0,0.0,0.0,0.0,0.0,0.0,0.0,0.0,0.0,0.0,0.0,0.0,0.0,0.0,0.0,0.0,0.0,0.0,0.0,0.0,0.0,0.0,0.0,0.0,0.0,0.0,0.0,0.0,0.0,0.0,0.0,0.0,0.0,0.0,0.0,0.0,0.0,0.0,0.0,0.0,0.0,0.0,0.0,0.0,0.0,0.0,0.0,0.0,0.0,0.0,0.0,0.0,0.0,0.0,0.0,0.0,0.0,0.0,0.0,0.0,0.0,0.0,0.0,0.0,0.0,0.0,0.0,0.0,0.0,0.0,0.0,0.0,0.0,0.0,0.0,0.0,0.0,0.0,0.0,0.0,0.0,0.0,0.0,0.0,0.0,0.0,0.0,0.0,0.0,0.0,0.0,0.0,0.0,0.0,0.0,0.0,0.0,0.0,0.0,0.0,0.0,0.0,0.0,0.0,0.0,0.0,0.0,0.0,0.0,0.0,0.0,0.0,0.0,0.0,0.0,0.0,0.0,-1.8578,0.0,0.0,0.0,0.0,0.0,0.0,0.0,0.0,0.0,0.0,0.0,0.0,0.0,0.0,0.0,0.0,0.0,0.0,0.0,0.0,0.0,0.0,0.0,0.0,0.4091,0.4226,0.4221,0.4253,0.4312,0.435,0.0,0.0,0.0,0.0,0.0,0.0,0.0,0.2626,0.2504,0.2587,0.2631,0.2642,0.2732,0.271,0.2495,0.0,0.0,0.0,0.0,0.0,0.0,0.0,0.0,0.0,0.0,0.0,0.0,0.0,0.0,0.0,0.0,0.0,0.0,0.0,0.0,0.0,0.0,0.0,0.0,0.0,0.0,0.0,0.0,0.0,0.0,0.0,0.0,0.0,0.0,0.0,0.0,0.0,0.0,0.0,0.0,0.0,0.0,0.0,0.0,0.0,0.0,0.0,0.0,0.0,0.0,0.0,0.0,0.0,0.0,0.0,0.0,0.0,0.0,0.0,0.0,0.0,0.0,0.0,0.0,0.0,0.0,0.0,0.0,0.0,0.0,0.0,-2.1347,0.0,0.0,0.0,0.0,0.0,0.0,0.0,0.0,0.0,0.0,0.0,0.0,0.0,0.0,0.0,0.0,0.0,0.0,0.0,0.0,0.0,0.4307,0.3956,0.4226,0.4323,0.4058,0.4188,0.4312,0.4312,0.3814,0.0,0.0,0.0,0.2771,0.2654,0.2674,0.2632,0.2475,0.2584,0.2642,0.2742,0.3046,0.3034,0.2773,0.2121,0.0,0.0,0.0,0.0,0.0,0.0,0.0,0.0,0.0,0.0,0.0,0.0,0.0,0.0,0.0,0.0,0.0,0.0,0.0,0.0,0.0,0.0,0.0,0.0,0.0,0.0,0.0,0.0,0.0,0.0,0.0,0.0,0.0,0.0,0.0,0.0,0.0,0.0,0.0,0.0,0.0,0.0,0.0,0.0,0.0,0.0,0.0,0.0,0.0,0.0,0.0,0.0,0.0,0.0,0.0,0.0,0.0,0.0,0.0,0.0,0.0,0.0,0.0,-2.4623,-2.4959,-2.5547,-2.5792,-2.5707,-2.5358,-2.4089,-2.2327,-2.0558,-2.3192,0.0,0.0,0.0,0.0,0.0,0.0,0.0,0.0,0.0,0.0,0.0,0.0,0.0,0.0,0.0,0.0,0.0,0.0,0.0,0.4081,0.3626,0.3951,0.4183,0.4096,0.4221,0.4312,0.4382,0.4132,0.3836,0.346,0.3353,0.3022,0.2366,0.259,0.2592,0.2408,0.2585,0.2751,0.2853,0.2703,0.2679,0.2768,0.2383,0.215,0.2009,0.0,0.0,0.0,0.0,0.0,0.0,0.0,0.0,0.0,0.0,0.0,0.0,0.0,0.0,0.0,0.0,0.0,0.0,0.0,0.0,0.0,0.0,0.0,0.0,0.0,0.0,0.0,0.0,0.0,0.0,0.0,0.0,0.0,0.0,0.0,0.0,0.0,0.0,0.0,0.0,0.0,-1.3557,-1.2909,0.0,0.0,0.0,0.0,0.0,0.0,0.0,0.0,0.0,0.0,0.0,0.0,0.0,-2.4498,-2.59,-2.5437,-2.5383,-2.5707,-2.5415,-2.504,-2.4616,-2.4907,-2.5101,-2.5187,-2.5831,0.0,-2.298,-2.2725,0.0,0.0,0.0,0.0,0.0,0.0,0.0,0.0,0.0,0.0,0.0,0.0,0.0,0.0,0.0,0.0,0.0,0.0,0.0,0.0,0.0,0.4026,0.4138,0.4199,0.4277,0.4321,0.4355,0.4312,0.4026,0.3544,0.3432,0.3094,0.2433,0.2641,0.2786,0.286,0.2834,0.2924,0.3132,0.2907,0.2895,0.3006,0.3053,0.2843,0.2425,0.2085,0.0,0.0,0.0,0.0,0.0,0.0,0.0,0.0,0.0,0.0,0.0,0.0,0.0,0.0,0.0,0.0,0.0,0.0,0.0,0.0,0.0,0.0,0.0,0.0,0.0,0.0,0.0,0.0,0.0,0.0,0.0,0.0,0.0,0.0,0.0,0.0,0.0,0.0,0.0,-1.5117,-1.5354,-1.3876,-1.6032,-1.7754,0.0,0.0,0.0,0.0,0.0,0.0,0.0,0.0,0.0,-2.391,-2.4349,-2.498,-2.5811,-2.5587,-2.5978,-2.7009,-2.6984,-2.7157,-2.7495,-2.7801,-2.7988,-2.8114,-2.8579,-2.773,-2.5962,-2.5126,-2.4704,-2.4628,0.0,0.0,0.0,0.0,-2.5541,-2.5479,0.0,0.0,0.0,0.0,0.0,0.0,0.0,0.0,0.0,0.0,0.0,0.0,0.4222,0.4272,0.4282,0.429,0.43,0.4322,0.4383,0.4418,0.4238,0.3719,0.3611,0.3282,0.2635,0.2913,0.3073,0.312,0.3148,0.3111,0.3113,0.3025,0.2971,0.2893,0.3226,0.3164,0.2803,0.2814,0.2225,0.133,0.0,0.0,0.0,0.0,0.0,0.0,0.0,0.0,0.0,0.0,0.0,0.0,0.0,0.0,0.0,0.0,0.0,0.0,0.0,0.0,0.0,0.0,0.0,0.0,0.0,0.0,0.0,0.0,0.0,0.0,0.0,0.0,0.0,0.0,0.0,0.0,0.0,-1.6084,-1.6575,-1.5185,-1.718,-1.901,0.0,0.0,0.0,0.0,0.0,0.0,-2.2691,-2.3877,-2.475,-2.5208,-2.5474,-2.5823,-2.6309,-2.6309,-2.698,-2.8347,-2.854,-2.9108,-2.9958,-3.0234,-3.0402,-3.0482,-3.0519,-2.9862,-2.8657,-2.7505,-2.6548,-2.5822,-2.5835,-2.6365,-2.7115,-2.687,-2.6804,-2.6716,0.0,0.0,0.0,0.0,0.0,0.0,0.0,0.0,0.0,0.0,0.0,0.3515,0.3976,0.4622,0.4802,0.4242,0.4264,0.4394,0.4581,0.4584,0.4382,0.3923,0.3983,0.373,0.299,0.3464,0.3472,0.2921,0.3472,0.3331,0.2544,0.2745,0.2523,0.2064,0.2413,0.2803,0.3172,0.3236,0.2667,0.1647,0.1008,0.0,0.0,0.0,0.0,0.0,0.0,0.0,0.0,0.0,0.0,0.0,0.0,0.0,0.0,0.0,0.0,0.0,0.0,0.0,0.0,0.0,0.0,0.0,0.0,0.0,0.0,0.0,0.0,0.0,0.0,0.0,0.0,0.0,0.0,0.0,0.0,0.0,0.0,-1.6454,-1.9181,0.0,0.0,0.0,0.0,-2.3093,-2.3577,-2.3858,-2.3903,-2.5247,-2.6109,-2.6399,-2.7337,-2.8294,-2.927,-2.9289,-2.9345,-2.9512,-2.9704,-2.9912,-3.0107,-3.037,-3.0557,-3.0698,-3.0678,-3.0704,-3.0614,-2.8702,-2.7453,-2.6732,-2.6727,-2.7273,-2.7928,-2.7108,-2.6846,-2.6768,0.0,0.0,0.0,0.0,0.0,0.3384,0.3061,0.2469,0.2224,0.2776,0.2812,0.3224,0.4336,0.4311,0.4347,0.47,0.4391,0.4175,0.4215,0.4666,0.4563,0.379,0.4194,0.4168,0.3672,0.3933,0.3929,0.3608,0.3875,0.3608,0.2856,0.2541,0.2453,0.27,0.2647,0.2913,0.3464,0.3346,0.2951,0.2268,0.1634,0.0646,0.0,0.0,0.0,0.0,0.0,0.0,0.0,0.0,0.0,0.0,0.0,0.0,0.0,0.0,0.0,0.0,0.0,0.0,0.0,0.0,0.0,0.0,0.0,0.0,0.0,0.0,0.0,0.0,0.0,0.0,0.0,0.0,0.0,0.0,0.0,0.0,0.0,-1.9396,-2.0518,0.0,-2.263,-2.2607,-2.2738,-2.3265,-2.3925,-2.4655,-2.5428,-2.6536,-2.7503,-2.8329,-2.8839,-2.9269,-2.9642,-2.9642,-2.9725,-2.9923,-3.0046,-3.0201,-3.0434,-3.0568,-3.065,-3.0707,-3.076,-3.076,-3.0718,-3.0019,-2.9257,-2.8473,-2.7864,-2.8162,-2.8911,-2.8582,-2.8463,-2.8404,0.0,0.0,0.0,0.3926,0.3314,0.2782,0.2463,0.1837,0.1709,0.2512,0.2552,0.2988,0.4421,0.4276,0.4282,0.4719,0.4266,0.3995,0.4113,0.4457,0.4413,0.3915,0.4189,0.4226,0.3877,0.4322,0.4402,0.4085,0.4271,0.3932,0.3131,0.2548,0.2435,0.2629,0.2408,0.2601,0.3072,0.2535,0.2569,0.2951,0.2301,0.1263,-0.0089,0.0,0.0,0.0,0.0,0.0,0.0,0.0,0.0,0.0,0.0,0.0,0.0,0.0,0.0,0.0,0.0,0.0,0.0,0.0,0.0,0.0,0.0,0.0,0.0,0.0,0.0,0.0,0.0,0.0,0.0,0.0,0.0,0.0,0.0,0.0,-2.0105,-2.24,-2.2563,-2.31,-2.4708,-2.4224,-2.4069,-2.4662,-2.5252,-2.6086,-2.7181,-2.7966,-2.8744,-2.9568,-2.9729,-2.9861,-2.9965,-2.9977,-3.0075,-3.0279,-3.0304,-3.044,-3.0637,-3.0672,-3.0696,-3.0703,-3.0755,-3.0735,-3.0701,-3.0684,-3.0347,-2.9814,-2.9207,-2.9318,-2.9795,-2.9794,-2.9767,-2.9699,0.0,0.4215,0.3829,0.2633,0.2474,0.2318,0.1835,0.1307,0.1439,0.2701,0.257,0.2885,0.4166,0.4656,0.4713,0.4342,0.3913,0.3869,0.4314,0.3939,0.3859,0.4287,0.4041,0.3835,0.3648,0.4719,0.4967,0.4275,0.4686,0.4303,0.3192,0.2762,0.2327,0.179,0.157,0.1738,0.2011,0.0865,0.1604,0.3433,0.2881,0.1839,0.0402,0.0,0.0,0.0,0.0,0.0,0.0,0.0,0.0,0.0,0.0,0.0,0.0,0.0,0.0,0.0,0.0,0.0,0.0,0.0,0.0,0.0,0.0,0.0,0.0,0.0,0.0,0.0,0.0,0.0,0.0,0.0,0.0,0.0,-2.0186,-2.0861,-2.2383,-2.5251,-2.5254,-2.5587,-2.7007,-2.6489,-2.6481,-2.7468,-2.7669,-2.8167,-2.9077,-2.9494,-2.9813,-3.0013,-3.0028,-3.0158,-3.0501,-3.0497,-3.0537,-3.061,-3.0598,-3.0643,-3.0697,-3.0697,-3.0703,-3.0699,-3.0706,-3.069,-3.0694,-3.0636,-3.0598,-3.0598,-3.0675,-3.0656,-3.0588,-3.0588,-3.0539,-3.0481,0.5783,0.4878,0.4017,0.3436,0.2629,0.1885,0.1367,0.0842,0.0827,0.1835,0.21,0.2677,0.3996,0.4195,0.4286,0.4351,0.3752,0.3302,0.3256,0.3345,0.3771,0.4626,0.4138,0.4195,0.5049,0.4717,0.4422,0.4158,0.4102,0.3655,0.2817,0.2263,0.2163,0.241,0.1457,0.1457,0.2071,0.0887,0.0375,0.0404,0.1394,0.1164,0.0089,0.0,0.0,0.0,0.0,0.0,0.0,0.0,0.0,0.0,0.0,0.0,0.0,0.0,0.0,0.0,0.0,0.0,0.0,0.0,0.0,0.0,0.0,0.0,0.0,0.0,0.0,0.0,0.0,0.0,0.0,0.0,-2.14,-2.1644,-2.1467,-2.1623,-2.2697,-2.5297,-2.5501,-2.6095,-2.7803,-2.7827,-2.7848,-2.8129,-2.8783,-2.9323,-2.9674,-2.9918,-3.0139,-3.0293,-3.0376,-3.049,-3.0576,-3.0568,-3.0598,-3.0674,-3.0679,-3.0681,-3.0706,-3.071,-3.0661,-3.0637,-3.063,-3.0643,-3.0636,-3.0617,-3.055,-3.0449,-3.0469,-3.0417,-3.0309,-3.0267,-3.0163,-3.0138,0.6113,0.5029,0.4082,0.3723,0.2692,0.1724,0.1243,0.0768,0.0703,0.1492,0.1929,0.2485,0.3407,0.3621,0.3727,0.3849,0.3372,0.3087,0.3144,0.335,0.3614,0.4003,0.3858,0.4088,0.4821,0.4499,0.4274,0.4233,0.3893,0.3416,0.2742,0.2127,0.1903,0.2076,0.0738,0.04,0.0742,-0.0285,-0.1073,-0.1597,-0.0903,-0.0771,-0.1054,-0.2492,-0.3084,-0.3369,-0.4707,-0.5302,-0.5665,-0.7308,0.0,0.0,0.0,0.0,0.0,0.0,0.0,0.0,0.0,0.0,0.0,0.0,0.0,0.0,0.0,0.0,0.0,0.0,0.0,0.0,0.0,0.0,0.0,0.0,-2.2307,-2.271,-2.2848,-2.2695,-2.3367,-2.5536,-2.5749,-2.6422,-2.8211,-2.8442,-2.8669,-2.9117,-2.9651,-3.0029,-3.0171,-3.0306,-3.0395,-3.0481,-3.0561,-3.0787,-3.1134,-3.0784,-3.082,-3.1249,-3.0877,-3.07,-3.0658,-3.0665,-3.0603,-3.0516,-3.0577,-3.054,-3.0477,-3.05,-3.0428,0.0,0.0,0.0,0.0,0.0,-3.0684,-3.0964,0.6157,0.5053,0.4146,0.3777,0.2758,0.1807,0.1428,0.1015,0.0925,0.1559,0.1994,0.235,0.2686,0.2984,0.3156,0.31,0.2877,0.2921,0.3327,0.3479,0.3378,0.3028,0.3435,0.3749,0.3928,0.4118,0.4248,0.4341,0.3831,0.3361,0.2907,0.2125,0.1568,0.1067,-0.0288,-0.1053,-0.1409,-0.2162,-0.263,-0.2917,-0.34,-0.3199,-0.2691,-0.3202,-0.3931,-0.4751,-0.5489,-0.5972,-0.6527,-0.8068,0.0,0.0,0.0,0.0,0.0,0.0,0.0,0.0,0.0,0.0,0.0,0.0,0.0,0.0,0.0,0.0,0.0,0.0,0.0,0.0,0.0,0.0,0.0,0.0,-2.3048,-2.3351,-2.4218,-2.3995,-2.4327,-2.5975,-2.6133,-2.6763,-2.8407,-2.8725,-2.9219,-3.0147,-3.0298,-3.043,-3.0594,0.0,0.0,0.0,0.0,-3.1175,-3.205,-3.1191,-3.1168,-3.1975,-3.1193,-3.0733,-3.0579,-3.055,-3.046,-3.0364,-3.0576,-3.056,-3.04,-3.0566,-3.0503,-3.0333,-3.0368,-3.0347,-3.0384,-3.0964,-3.1634,-3.226,0.7677,0.6,0.4526,0.4483,0.3273,0.2183,0.1837,0.1628,0.1556,0.1747,0.2147,0.2548,0.2819,0.2931,0.2991,0.3086,0.2288,0.1775,0.1826,0.2354,0.2954,0.3665,0.3662,0.3951,0.469,0.4059,0.3865,0.4082,0.3278,0.3007,0.3198,0.2076,0.1064,0.0224,-0.1069,-0.2063,-0.2932,-0.3894,-0.4248,-0.4146,-0.4278,-0.4142,-0.3964,-0.4473,-0.4801,-0.5139,-0.6136,-0.7134,-0.8127,-0.8837,-0.9985,-1.1341,-1.2472,-1.3318,0.0,0.0,0.0,0.0,0.0,0.0,0.0,0.0,0.0,0.0,0.0,0.0,0.0,0.0,0.0,0.0,0.0,0.0,0.0,-2.3653,-2.3949,-2.4243,-2.5124,-2.5176,-2.5487,-2.6477,-2.7133,-2.7922,-2.8967,-2.9708,-3.0211,-3.0433,-3.0494,-3.0581,-3.0673,-3.1301,-3.1672,-3.1737,-3.1727,-3.2157,-3.302,-3.2167,-3.1786,-3.1917,0.0,0.0,-3.0352,-3.0248,-3.015,-3.0118,-3.0787,-3.1058,-3.1089,-3.1737,-3.1889,-3.1638,-3.1032,-3.1129,-3.1633,-3.1661,-3.1747,-3.1989,0.8597,0.6832,0.5247,0.5212,0.3938,0.2725,0.2242,0.1439,0.0937,0.1068,0.0971,0.0938,0.1044,0.1183,0.1448,0.1891,0.2065,0.2112,0.2025,0.2927,0.3692,0.4194,0.4165,0.4422,0.4984,0.3966,0.3535,0.377,0.3135,0.292,0.2974,0.1679,0.0726,0.0,-0.1761,-0.2915,-0.3543,-0.4617,-0.521,-0.5479,-0.5547,-0.5753,-0.5924,-0.5442,-0.618,-0.7485,-0.7744,-0.8927,-1.0395,-1.0788,-1.174,-1.2853,-1.3382,-1.4181,-1.5158,0.0,0.0,0.0,0.0,0.0,0.0,0.0,0.0,0.0,0.0,0.0,0.0,0.0,0.0,-2.1434,-2.272,0.0,-2.3429,-2.4738,-2.4951,-2.5104,-2.5535,-2.5603,-2.5909,-2.6698,-2.6748,-2.7408,-2.918,-2.9357,-2.9703,-3.0579,-3.1094,-3.1175,-3.0779,-3.1933,-3.2428,-3.2002,-3.233,-3.2732,-3.325,-3.2668,-3.2201,-3.1794,-3.1674,-3.1103,-3.0209,-3.05,-3.0601,-3.0563,-3.1428,-3.1741,-3.1674,-3.2034,-3.2614,-3.3184,-3.2729,-3.2534,-3.2505,-3.2418,-3.2915,-3.3696,0.899,0.7595,0.6214,0.5914,0.4646,0.3349,0.2524,0.123,0.0294,0.0246,-0.0286,-0.0673,-0.0702,-0.0541,-0.0216,0.0268,0.1575,0.233,0.2284,0.3605,0.4433,0.445,0.4599,0.475,0.4791,0.3752,0.3251,0.3295,0.2939,0.2722,0.2635,0.1396,0.0446,-0.0335,-0.2236,-0.3426,-0.401,-0.4949,-0.5901,-0.6728,-0.682,-0.7488,-0.8254,-0.6974,-0.7892,-0.9905,-0.9692,-1.085,-1.2539,-1.2542,-1.318,-1.3921,-1.3868,-1.4693,-1.5817,-1.6447,-1.6521,0.0,0.0,0.0,0.0,0.0,0.0,0.0,0.0,-2.0661,-2.1113,-2.1875,-2.2028,-2.2493,-2.3999,-2.4308,-2.4638,-2.5521,-2.5654,-2.565,-2.5654,-2.5654,-2.5955,-2.6788,-2.6224,-2.6688,-2.9019,-2.8766,-2.9119,-3.0684,-3.1442,-3.1513,-3.0806,-3.2322,-3.2897,-3.2171,-3.2822,-3.3323,-3.3608,-3.3237,-3.264,-3.1872,-3.1852,-3.1291,-3.0289,-3.1016,-3.1258,-3.1148,-3.2241,-3.2806,-3.2975,-3.2948,-3.3645,-3.4753,-3.4612,-3.4129,-3.3506,-3.369,-3.4569,-3.572,0.874,0.8273,0.7486,0.666,0.5387,0.3966,0.2544,0.1644,0.0777,-0.0275,-0.0428,-0.0428,-0.0456,-0.0461,-0.0749,-0.1376,-0.0094,0.0846,0.1093,0.2958,0.4115,0.4234,0.4574,0.4422,0.3583,0.3431,0.3119,0.2597,0.2135,0.2119,0.241,0.1569,0.0056,-0.1846,-0.2305,-0.3483,-0.5201,-0.5278,-0.6309,-0.783,-0.7646,-0.8944,-1.0931,-1.0231,-1.0098,-1.0466,-1.147,-1.2669,-1.3569,-1.2703,-1.3474,-1.4763,-1.4763,-1.4845,-1.5264,-1.7034,-1.745,-1.7792,-1.9818,-1.9032,-1.7886,-1.8863,-1.9177,-1.9444,0.0,-2.1643,-2.2745,-2.2831,-2.2862,-2.312,-2.3974,-2.4135,-2.4432,-2.5365,-2.5463,-2.5449,-2.5516,-2.5472,-2.5788,-2.67,-2.6773,-2.7165,-2.8238,-2.8963,-2.9765,-3.0723,-3.0845,-3.079,-3.0628,-3.2089,-3.2859,-3.2709,-3.3467,-3.4271,-3.5057,-3.428,-3.3412,-3.2507,-3.313,-3.252,-3.0828,-3.1578,-3.1741,-3.1542,-3.3081,-3.468,-3.618,-3.6173,-3.6136,-3.6076,-3.5871,-3.5593,-3.5399,-3.6056,-3.6389,-3.6556,0.9481,0.9754,0.9732,0.9101,0.7187,0.502,0.2794,0.1661,0.0551,-0.0959,-0.1663,-0.202,-0.202,-0.1658,-0.1578,-0.1973,-0.0797,-0.0032,-0.0038,0.1531,0.2392,0.2284,0.2294,0.2731,0.3646,0.2545,0.2559,0.3758,0.2938,0.2629,0.2796,0.1507,0.039,-0.0557,-0.2066,-0.3629,-0.5167,-0.645,-0.8178,-1.0,-0.9614,-1.0755,-1.2789,-1.3087,-1.2582,-1.1927,-1.3287,-1.4949,0.0,-1.4761,-1.546,-1.6687,-1.5235,-1.5481,-1.6208,-1.5596,-1.6118,-1.6832,-1.6659,-1.7887,-1.9051,-1.8443,-1.94,-2.072,-2.1588,-2.2325,-2.2978,-2.3476,-2.3572,-2.384,-2.464,-2.4806,-2.4938,0.0,-2.5364,-2.5352,-2.5388,-2.4962,-2.4794,-2.5189,-2.5249,-2.6018,-2.7901,-2.7959,-2.8431,-2.9766,-3.0309,-3.0552,-3.0494,-3.1868,-3.2449,-3.1941,-3.3096,-3.3627,-3.3441,-3.4127,-3.3657,-3.2072,-3.2856,-3.2496,-3.1158,-3.1906,-3.264,-3.3424,-3.4576,-3.5436,-3.6058,-3.6058,-3.6194,-3.639,-3.6327,-3.6519,-3.6775,-3.6358,-3.6544,-3.6977,0.9793,1.0427,1.0785,1.0209,0.8433,0.6278,0.3805,0.1971,0.0309,-0.122,-0.2342,-0.3046,-0.3095,-0.32,-0.327,-0.3365,-0.2829,-0.2215,-0.156,-0.0262,0.0596,0.0866,0.0733,0.157,0.3526,0.2075,0.2428,0.482,0.3999,0.3503,0.3279,0.2106,0.1107,0.0276,-0.0273,-0.2373,-0.5651,-0.5972,-0.8152,-1.1379,-1.0956,-1.1972,-1.3741,-1.423,-1.4098,-1.3735,-1.49,-1.6248,-1.7319,-1.6193,-1.6865,-1.7829,-1.6003,-1.6327,-1.7092,-1.5544,-1.6129,-1.7018,-1.5817,-1.7579,-1.9543,-1.8761,-1.9971,-2.1645,-2.2652,-2.3122,-2.3505,-2.412,-2.4101,-2.4158,-2.4774,-2.4889,-2.4899,-2.4908,-2.5091,-2.5226,-2.5187,-2.4486,-2.4034,-2.4216,-2.4024,-2.4716,-2.6871,-2.6823,-2.7361,-2.9052,-2.9669,-3.004,-3.0229,-3.1331,-3.1708,-3.1105,-3.2335,-3.2787,-3.2292,-3.359,-3.3481,-3.1922,-3.2736,-3.2698,-3.1934,-3.2857,-3.4047,-3.5399,-3.5859,-3.6146,-3.628,-3.623,-3.6404,-3.6772,-3.6916,-3.7148,-3.7345,-3.673,-3.6949,-3.7635,0.9176,0.9624,0.9793,0.8739,0.845,0.7698,0.5788,0.2838,0.0381,-0.0758,-0.1904,-0.2697,-0.289,-0.4816,-0.6143,-0.6338,-0.724,-0.6583,-0.3797,-0.2342,-0.0901,0.0714,0.0993,0.1608,0.2697,0.2366,0.3118,0.5105,0.4837,0.445,0.389,0.3678,0.2075,-0.0489,0.388,0.0882,-0.7105,-0.2644,-0.4758,-1.1094,-1.1085,-1.2114,-1.3536,-1.2975,-1.4026,-1.5856,-1.623,-1.587,-1.5316,-1.6107,-1.688,-1.7489,-1.7283,-1.7298,-1.753,-1.8168,-1.8895,-1.9507,-1.9513,-1.9049,-1.8887,-2.0356,-2.091,-2.1512,-2.3038,-2.4188,-2.492,-2.4891,-2.4361,-2.3887,-2.3843,-2.3857,-2.3866,-2.3927,-2.4606,-2.5057,-2.4936,-2.417,-2.385,-2.4516,-2.3836,-2.3697,0.0,-2.5872,-2.7296,-2.8975,-2.883,-2.9003,-2.9775,-3.0359,-3.0607,-3.0528,-3.1406,-3.2143,-3.2776,-3.2831,-3.273,-3.2504,-3.3293,-3.3597,-3.3476,-3.4883,-3.6055,-3.702,-3.6654,-3.707,-3.7977,-3.7735,-3.7542,-3.7411,-3.7945,-3.7544,-3.6853,-3.772,-3.8404,-3.8888,0.9653,1.016,1.0176,0.8744,0.8596,0.7723,0.4902,0.3107,0.1107,-0.155,-0.2689,0.0,0.0,0.0,0.0,0.0,-0.8213,-0.8277,-0.723,-0.6269,-0.561,-0.5324,-0.4595,-0.3487,-0.1983,-0.1938,-0.1001,0.0848,0.0723,0.0499,0.0102,-0.0255,-0.106,-0.2132,-0.1829,-0.3642,-0.6991,-0.7241,-0.9607,-1.3131,-1.196,-1.2828,-1.4561,-1.2306,-1.208,-1.3147,0.0,-1.5866,-1.7025,-1.6612,-1.6988,-1.7422,-1.6183,-1.6711,-1.7942,-1.8734,-1.8323,-1.7849,-1.8996,-2.0299,-2.1509,-2.2163,-2.321,-2.4092,-2.412,-2.4357,-2.414,-2.2501,-2.2416,-2.2467,-2.19,-2.2262,-2.2788,-2.3338,-2.3667,-2.4016,-2.4489,-2.3861,-2.3388,-2.358,-2.3345,0.0,0.0,0.0,0.0,-2.7513,-2.7481,-2.8014,-2.9383,-2.9437,-2.9402,-2.9361,-3.0171,-3.1132,-3.2256,-3.3028,-3.3479,-3.3617,-3.3857,-3.4191,-3.4666,-3.5541,-3.6096,-3.6469,-3.6716,-3.6955,-3.7182,-3.7598,-3.7334,-3.6725,-3.7443,-3.7203,-3.6478,-3.6804,-3.737,-3.7988,0.0,1.0108,0.9952,0.8157,0.7877,0.0,0.0,0.0,0.0,0.0,0.0,0.0,0.0,0.0,0.0,0.0,0.0,-1.0355,-0.9935,-0.9209,-0.8685,-0.8449,-0.7822,-0.6603,-0.4764,-0.4747,-0.3749,-0.1721,-0.1245,-0.1111,-0.1259,-0.1055,-0.1576,-0.2711,-0.2227,-0.3902,-0.7061,-0.7174,-0.927,-1.2455,-1.1741,-1.2266,-1.3316,-1.1915,-1.1659,0.0,-1.3581,-1.5423,-1.717,-1.6916,-1.7385,-1.7826,-1.6335,-1.6928,-1.8284,-1.8863,-1.8568,-1.8305,-1.9434,-2.1532,-2.3424,-2.348,-2.4566,-2.5436,-2.4646,-2.4224,-2.3437,-2.1459,-2.1282,-2.1235,-2.0509,-2.0788,-2.15,-2.2582,-2.2768,-2.3143,-2.4153,-2.3858,-2.3583,-2.375,-2.3749,-2.384,0.0,0.0,0.0,-2.6729,-2.6965,-2.7772,-2.9418,-2.9253,-2.9221,-2.9512,-3.002,-3.0812,-3.1906,-3.2679,-3.3418,-3.4163,-3.4601,-3.5065,-3.5528,-3.6427,-3.6688,-3.6438,-3.7018,-3.705,-3.6737,-3.7123,-3.6876,-3.6387,-3.718,-3.6991,-3.6335,-3.6611,-3.687,-3.7136,0.0,0.0,0.9102,0.0,0.0,0.0,0.0,0.0,0.0,0.0,0.0,0.0,0.0,0.0,0.0,0.0,0.0,0.0,-1.1797,-1.109,-1.0117,-0.8777,-0.8674,-0.7782,-0.5888,-0.6141,-0.5181,-0.2917,-0.1446,-0.0715,-0.07,0.0632,-0.0173,-0.2559,0.1777,-0.058,-0.7519,-0.3166,-0.4487,-0.9591,-1.0589,-1.066,-1.033,-1.1693,-1.2539,-1.3057,-1.3518,-1.4469,-1.5678,-1.6904,-1.7915,-1.8485,-1.763,-1.7858,-1.8459,-1.868,-1.9676,-2.0793,-2.1008,-2.278,-2.4555,-2.4417,-2.5065,-2.5483,-2.4552,-2.3715,-2.2815,-2.1551,-2.0784,-2.016,-1.9602,-1.9536,-2.008,-2.1699,-2.194,-2.2451,-2.3914,-2.4113,-2.4326,-2.4954,-2.4992,-2.5234,0.0,0.0,0.0,-2.6677,0.0,-2.8173,-2.9817,-2.971,-2.9942,-3.0779,-3.0787,-3.1123,-3.1905,-3.1995,-3.2773,-3.426,-3.5492,-3.6127,-3.6251,-3.7488,-3.769,-3.7075,-3.7533,-3.7304,-3.6643,-3.6437,-3.6353,-3.6439,-3.7232,-3.7077,-3.6508,-3.7267,-3.706,-3.6592,0.0,0.0,0.0,0.0,0.0,0.0,0.0,0.0,0.0,0.0,0.0,0.0,0.0,0.0,0.0,0.0,0.0,0.0,-1.218,-1.2356,-1.2192,-1.158,-1.108,-1.0712,-1.0494,-0.9375,-0.8722,-0.8607,-0.7126,-0.6458,-0.6537,-0.6191,-0.654,-0.7415,-0.6244,-0.7077,-0.9278,-0.8562,-0.9805,-1.2191,-1.1242,-1.1499,-1.2246,-1.0366,-1.0428,-1.1608,-1.2072,-1.3044,-1.4344,-1.5849,-1.6428,-1.6542,-1.6905,-1.7186,-1.7607,-1.8756,-2.0131,-2.1572,-2.2789,-2.4435,-2.5939,-2.6687,-2.6657,-2.5932,-2.3972,-2.2435,-2.0849,-1.8782,-1.8217,-1.811,-1.8118,-1.8603,-1.9506,-2.1075,-2.1327,-2.2003,-2.3904,-2.4182,-2.4508,-2.5401,-2.5465,-2.5597,-2.5978,-2.6448,0.0,0.0,-2.7101,-2.7929,-2.9584,-2.9565,-2.9886,-3.0682,-3.0553,-3.1418,-3.3505,-3.4497,-3.5438,-3.6262,-3.5993,-3.6485,-3.7554,-3.7213,-3.7254,-3.7585,-3.6936,-3.6575,-3.6437,-3.6982,-3.718,-3.7267,-3.8008,-3.818,-3.8025,-3.8232,-3.818,-3.8,0.0,0.0,0.0,0.0,0.0,0.0,0.0,0.0,0.0,0.0,0.0,0.0,0.0,0.0,0.0,0.0,0.0,0.0,0.0,-1.2578,-1.2661,-1.2596,-1.2157,-1.2032,-1.2281,-1.1395,-1.1021,-1.1187,-0.9805,-0.9024,-0.8822,-0.8299,-0.8144,-0.8323,-0.8333,-0.8571,-0.9039,-0.9389,-1.0125,0.0,0.0,-1.0808,-1.1444,-1.0443,-1.0544,-1.1303,-1.1891,-1.2399,-1.3008,-1.4424,-1.5177,-1.5772,-1.7197,-1.7968,-1.8444,-1.9065,-2.0721,-2.2532,-2.3249,-2.4953,-2.6578,-2.6831,-2.6318,-2.5286,-2.3345,-2.1635,-1.994,-1.8081,-1.7666,-1.7602,-1.7488,-1.7542,-1.8251,-2.0147,-2.0182,-2.0845,-2.3348,-2.4244,-2.4971,-2.5852,-2.6329,-2.6559,-2.6559,-2.703,-2.7305,0.0,-2.7825,-2.8667,-2.993,-3.019,-3.0782,-3.1774,-3.1747,-3.2473,-3.4093,-3.5179,-3.6046,-3.6736,-3.6528,-3.7143,-3.8437,-3.7826,-3.7559,-3.7629,0.0,-3.6628,-3.6335,-3.6784,-3.7163,-3.7525,-3.7939,-3.8301,-3.8594,-3.8594,-3.8594,-3.8525,0.0,0.0,0.0,0.0,0.0,0.0,0.0,0.0,0.0,0.0,-0.5994,-0.7311,0.0,0.0,0.0,0.0,0.0,0.0,0.0,0.0,-1.2285,-1.2469,-1.2392,-1.2349,-1.2403,-1.2376,-1.2189,-1.176,-1.0579,-0.971,-0.9155,-0.8087,-0.7586,-0.7586,-0.7563,-0.7796,-0.8195,-0.8172,-0.8338,-0.8695,-0.9503,-0.9763,-0.9802,0.0,-1.1615,-1.152,-1.2189,-1.2114,-1.1886,-1.3025,-1.4126,-1.5383,-1.7605,-1.8927,-1.9639,-1.9498,-2.1321,-2.3321,-2.3152,-2.4895,-2.6556,-2.5745,-2.4864,-2.3858,-2.2524,-2.0814,-1.9232,-1.8293,-1.7996,-1.78,-1.7478,-1.6851,-1.7096,-1.9339,-1.9164,-1.9808,-2.2845,-2.4321,-2.5425,-2.6278,-2.7128,-2.7565,-2.7334,-2.7504,-2.7707,-2.7841,-2.8806,-2.9698,-3.0368,-3.0995,-3.1878,-3.3028,-3.3452,-3.3775,-3.4105,-3.4869,-3.5628,-3.6404,-3.6842,-3.772,-3.8893,-3.8525,-3.8153,-3.7767,-3.7456,-3.7111,-3.6732,-3.6646,-3.7129,-3.7939,-3.7939,-3.8318,-3.8905,-3.8905,-3.8905,-3.887,0.0,0.0,0.0,0.0,0.0,0.0,0.0,0.0,0.0,0.0,-0.6092,-0.7204,0.0,0.0,0.0,0.0,0.0,0.0,0.0,0.0,0.0,-1.1861,-1.2244,-1.245,-1.2408,-1.1982,-1.1688,-1.1546,-1.0827,-1.0328,-1.0065,-0.9752,-0.9592,-0.9592,-0.9479,-0.9579,-0.979,-0.9629,-1.0045,-1.0825,-1.0616,-1.0918,-1.1517,-1.1347,0.0,0.0,-1.1392,-1.1335,-1.1401,-1.261,-1.322,-1.3849,-1.5962,-1.7172,-1.8162,-1.9755,-2.1376,-2.2883,-2.3874,-2.5059,-2.5796,-2.4914,-2.3457,-2.1947,-2.0911,-1.879,-1.7109,-1.7459,-1.7221,-1.7147,-1.7835,-1.7858,-1.8308,-1.9981,-2.0154,-2.1017,-2.3803,-2.4371,-2.5108,-2.6625,-2.6901,-2.7051,-2.7272,-2.7289,0.0,0.0,-2.9196,-2.9619,-2.9919,-3.0655,-3.1462,-3.2349,-3.3755,-3.4389,-3.4112,-3.5006,-3.5751,-3.6316,-3.6404,-3.7368,-3.9037,-3.7682,-3.7917,-3.9198,-3.7318,0.0,-3.906,-3.8439,-3.9008,-4.0284,-4.0284,-4.0371,-4.0474,-4.0474,-4.0474,-4.0388,0.0,0.0,0.0,0.0,0.0,0.0,0.0,-0.3257,-0.4436,-0.4719,-0.5729,-0.6825,-0.7838,-0.844,-0.8896,0.0,0.0,0.0,0.0,0.0,0.0,0.0,0.0,0.0,-1.1668,-1.1337,-1.0985,-1.0561,0.0,-1.0056,-0.9613,-0.9742,-0.9802,-0.9828,-0.9788,-0.9828,-0.9931,-0.9828,-1.0238,-1.0909,-1.0616,-1.0794,0.0,0.0,0.0,0.0,0.0,-1.0878,-1.0931,-1.2238,-1.2436,-1.2552,-1.4975,-1.6669,-1.7974,-1.9007,-2.0951,-2.2866,-2.3239,-2.4567,-2.5383,-2.3584,-2.207,-2.0646,-1.9451,-1.7624,-1.6417,-1.7235,-1.7236,-1.7362,-1.8336,-1.7885,-1.7988,-1.9877,-1.9188,-1.9695,-2.3338,-2.3415,-2.3986,-2.6303,-2.6674,-2.6758,-2.6725,-2.7215,-2.7724,-2.8283,-2.9196,-2.9936,-3.04,-3.1362,-3.2116,-3.2614,-3.3946,-3.4597,-3.4399,-3.4855,-3.5388,-3.604,-3.6439,-3.7386,-3.8805,-3.7851,-3.7921,-3.8751,-3.7472,0.0,-3.7974,-3.8405,-3.9026,-3.9715,-3.9991,-4.0422,-4.0888,-4.0888,-4.0888,-4.0819,0.0,0.0,0.0,0.0,0.0,0.0,-0.1994,-0.3391,-0.4367,-0.4927,-0.5797,-0.6864,-0.8175,-0.8772,-0.9152,0.0,0.0,0.0,0.0,0.0,0.0,0.0,0.0,0.0,0.0,0.0,0.0,-0.9922,-1.0027,0.0,0.0,0.0,0.0,0.0,-0.9632,-0.9684,-0.9802,-0.9736,-0.9969,0.0,0.0,-1.0348,0.0,0.0,0.0,0.0,0.0,-1.0671,-1.0678,-1.1759,-1.1733,-1.1556,-1.3663,-1.5606,-1.7219,-1.7832,-1.9986,-2.2183,-2.2243,-2.3774,-2.4799,-2.228,-2.0607,-1.9335,-1.815,-1.6627,-1.581,-1.6979,-1.7313,-1.7638,-1.842,-1.7687,-1.7557,-1.9444,-1.8384,-1.8639,-2.2471,-2.2638,-2.3348,-2.5961,-2.6604,-2.6771,-2.6687,-2.742,0.0,-2.8228,-2.9462,-3.0483,-3.1166,-3.2051,-3.2696,-3.3012,-3.4046,-3.4546,-3.4546,-3.4758,-3.5103,-3.5662,-3.6549,-3.748,-3.8404,-3.7982,-3.7922,-3.8184,-3.7631,-3.7361,0.0,-3.8577,-3.9181,-3.9353,-3.9767,-4.0319,-4.0888,-4.0888,-4.0888,-4.0888,0.0,0.0,0.0,0.0,0.0,0.0,-0.3255,-0.4533,-0.5625,-0.6153,-0.7148,-0.8053,-0.8671,-0.8705,-0.8692,0.0,0.0,0.0,0.0,0.0,0.0,0.0,0.0,0.0,0.0,0.0,0.0,-1.0695,-1.0421,0.0,0.0,0.0,0.0,0.0,0.0,-0.9802,-1.0135,-0.9828,0.0,0.0,0.0,0.0,0.0,0.0,0.0,0.0,0.0,-1.0808,-1.0851,-1.0938,-1.1062,-1.1205,-1.1134,-1.237,-1.4287,-1.646,-1.8237,-1.979,-2.1318,-2.292,-2.3559,-2.1371,-1.9119,-1.7434,-1.7163,-1.5396,-1.4365,-1.6289,-1.7068,-1.7441,-1.7515,-1.7635,-1.7974,-1.8781,-1.9294,-2.0166,-2.1807,-2.3098,-2.4481,-2.6005,-2.6819,-2.7504,-2.8146,-2.8279,-2.8753,-2.9698,-3.0353,-3.1029,-3.1799,-3.195,-3.2398,-3.3048,-3.3795,-3.4151,-3.4151,-3.4799,-3.5172,-3.5289,-3.6615,-3.7497,-3.7959,-3.7248,-3.7686,-3.8897,-3.7546,-3.8305,0.0,-4.0612,-4.106,-4.1681,-4.1733,-4.1388,-4.0888,-4.0888,-4.0888,-4.0888,0.0,0.0,0.0,0.0,0.0,0.0,-0.3624,-0.4203,-0.5,-0.6247,-0.6655,-0.7326,-0.8546,-0.8839,-0.902,-0.9176,-0.9691,0.0,0.0,0.0,0.0,0.0,0.0,0.0,0.0,0.0,-1.0621,-1.0621,-1.0583,0.0,0.0,0.0,0.0,0.0,0.0,-0.9788,-0.9944,0.0,0.0,0.0,0.0,0.0,0.0,0.0,0.0,0.0,0.0,0.0,-1.0825,-1.0656,-1.0508,-1.0399,-1.0692,-1.081,-1.1304,-1.3509,-1.6289,-1.8696,-1.8976,-2.0873,-2.2173,-1.979,-1.8022,-1.6804,-1.6454,-1.5051,-1.4318,-1.6223,-1.6763,-1.7147,-1.7922,-1.7778,-1.7973,-1.9302,-1.8975,-1.932,-2.1595,-2.2368,-2.3585,-2.5922,-2.6849,-2.7599,0.0,0.0,-2.9364,-3.0256,-3.0784,-3.1401,-3.2095,-3.205,-3.2336,-3.3064,-3.3744,-3.4101,-3.4101,-3.4392,-3.4748,-3.5185,-3.5768,-3.6572,-3.7514,-3.6547,-3.6952,-3.832,-3.7515,-3.7824,0.0,-3.9306,-3.981,-4.0329,-4.1034,-4.1147,-4.0888,-4.0888,-4.0888,-4.0888,0.0,0.0,0.0,0.0,0.0,-0.359,-0.4025,-0.4311,-0.4987,-0.6452,-0.6522,-0.698,-0.8417,-0.8805,-0.9054,-0.9269,-0.9466,0.0,0.0,0.0,0.0,0.0,0.0,0.0,0.0,0.0,-1.0705,-1.0777,-1.0705,-1.0619,0.0,0.0,-0.997,-1.0008,0.0,0.0,0.0,0.0,0.0,0.0,0.0,0.0,0.0,0.0,0.0,0.0,0.0,0.0,0.0,0.0,0.0,-1.0076,-1.0449,-1.019,-1.0088,-1.1742,-1.4261,-1.6576,-1.6684,-1.8475,-1.9771,-1.7583,-1.6388,-1.5653,-1.54,-1.4444,-1.4166,-1.6082,-1.6543,-1.6897,-1.788,-1.7666,-1.7804,-1.9068,-1.8507,-1.8618,-2.0606,-2.1595,-2.2973,-2.5292,-2.6584,-2.7682,-2.8588,-2.9317,-2.9922,-3.0435,-3.1007,-3.1499,-3.1929,-3.2171,-3.2643,-3.3356,-3.3841,-3.4101,-3.4101,-3.4311,-3.457,-3.4862,-3.5509,-3.6238,-3.6999,-3.6405,-3.6793,-3.7903,-3.7668,-3.7603,0.0,-3.8556,-3.9009,-3.9359,-4.0197,-4.0614,-4.0745,-4.0888,-4.0776,-4.0662,0.0,0.0,0.0,0.0,0.0,-0.3853,-0.4677,-0.5343,-0.6106,-0.7068,-0.7198,-0.7511,-0.8404,-0.8449,-0.8523,-0.8789,-0.9227,0.0,0.0,0.0,0.0,0.0,0.0,0.0,-1.0681,-1.0825,-1.1062,-1.1399,-1.0849,-1.0632,-1.0681,-1.0085,-0.9905,-1.0072,0.0,0.0,0.0,0.0,0.0,0.0,0.0,0.0,0.0,0.0,0.0,0.0,0.0,0.0,0.0,0.0,0.0,0.0,0.0,-1.0508,-1.1198,-1.183,-1.2227,-1.2889,-1.4805,-1.5792,-1.5951,-1.4674,-1.3889,-1.3487,-1.3755,-1.3344,-1.3531,-1.5752,-1.6425,-1.6701,-1.6968,-1.7175,-1.7368,-1.7582,-1.8184,-1.8577,-1.8551,-2.1052,-2.3172,-2.3934,-2.5938,-2.7843,-2.9268,-3.0079,-3.0468,-3.0417,-3.0964,0.0,-3.1124,-3.2398,-3.3388,-3.4068,-3.4101,-3.4101,-3.4101,-3.4813,-3.4813,-3.4133,-3.627,-3.695,-3.6335,-3.6999,-3.7508,-3.792,-3.7887,-3.8131,0.0,-3.9292,-3.9594,-3.9594,-3.9594,-3.9901,-4.0337,-4.0728,-4.05,-4.0103,0.0,0.0,0.0,0.0,0.0,0.0,-0.4346,-0.4839,-0.5624,-0.6822,-0.6797,-0.7111,-0.8368,-0.8488,-0.8516,-0.86,-0.8871,0.0,0.0,0.0,0.0,0.0,0.0,0.0,-1.0148,-1.0409,-1.0691,-1.092,-1.0897,-1.0825,-1.0753,-1.0298,-1.0072,-1.0008,-0.9551,-0.9401,0.0,0.0,0.0,0.0,0.0,0.0,0.0,0.0,0.0,0.0,0.0,0.0,0.0,0.0,0.0,0.0,0.0,0.0,0.0,-1.1058,-1.1428,-1.2004,-1.3049,-1.3789,-1.4282,-1.424,-1.3751,-1.3469,-1.4243,-1.3893,-1.3965,-1.5817,-1.6277,-1.6382,-1.6633,-1.685,-1.7076,-1.7224,-1.8021,-1.876,-1.9197,-2.1367,-2.3553,-2.5309,-2.786,-2.9625,0.0,0.0,-3.0615,-3.0997,-3.1569,-3.2099,-3.2525,-3.3307,-3.3663,-3.342,-3.3858,-3.4101,-3.4101,-3.4327,-3.457,-3.4845,-3.5525,-3.6254,-3.6999,-3.674,-3.7199,-3.8186,-3.7485,-3.766,0.0,-3.7916,-3.8259,-3.9119,-3.8642,-3.9004,-3.9833,-3.9969,-3.9919,-3.9697,0.0,0.0,0.0,0.0,0.0,0.0,-0.4196,-0.4869,-0.5582,-0.6582,-0.6523,-0.6805,-0.7971,-0.8165,-0.8322,-0.8578,-0.8784,0.0,0.0,0.0,0.0,0.0,0.0,0.0,-0.9816,-1.0084,-1.0373,-1.0705,-1.0705,-1.0729,-1.0705,-1.0323,-1.0046,-0.9919,-0.9501,-0.9262,0.0,0.0,0.0,0.0,0.0,0.0,-0.9842,0.0,0.0,0.0,0.0,0.0,0.0,0.0,0.0,0.0,0.0,0.0,0.0,0.0,-1.0671,-1.0901,-1.1768,-1.2139,-1.2332,-1.2647,-1.2581,-1.2675,-1.3624,-1.3553,-1.3729,-1.5357,-1.5756,-1.5891,-1.6124,-1.6443,-1.6799,-1.7101,-1.7542,-1.8077,-1.8724,-2.0834,0.0,-2.6198,0.0,0.0,0.0,-3.0168,-3.0586,-3.1193,-3.1821,-3.2378,-3.2707,-3.3616,-3.3727,-3.295,-3.3595,-3.4,-3.4101,-3.3899,-3.4124,-3.4781,-3.4832,-3.5573,-3.6934,-3.6538,-3.7014,-3.8173,-3.7364,0.0,0.0,-3.7617,-3.7922,-3.8574,-3.8389,-3.8755,-3.9365,-3.9365,-3.9365,-3.9365,0.0,0.0,0.0,0.0,0.0,0.0,0.0,-0.5244,-0.5908,-0.6309,-0.6305,-0.6553,-0.7291,-0.7551,-0.7966,-0.8689,-0.8878,0.0,0.0,0.0,0.0,0.0,0.0,-0.9257,-0.9609,-0.9764,-1.0097,-1.0608,-1.0374,-1.0374,-1.0534,-1.0173,-0.9919,-0.9725,-0.9119,-0.8741,0.0,0.0,0.0,0.0,-0.8924,-0.9305,0.0,0.0,0.0,0.0,0.0,0.0,0.0,0.0,0.0,0.0,0.0,0.0,0.0,0.0,0.0,0.0,0.0,-1.0843,-1.032,-1.0357,-1.0753,-1.1381,-1.2188,-1.2531,0.0,-1.4509,-1.5038,-1.532,-1.5584,-1.6041,-1.6559,-1.7108,-1.6895,-1.6917,-1.7593,-2.0017,0.0,0.0,-2.7705,0.0,-2.9042,-2.9812,-3.0522,-3.1124,-3.1762,-3.2122,-3.2029,-3.3274,-3.3512,-3.2604,-3.3275,-3.3745,-3.405,-3.3555,-3.3555,-3.4066,-3.4224,-3.4924,-3.6131,-3.6294,-3.6848,0.0,-3.7456,0.0,0.0,-3.8124,-3.8197,-3.7985,-3.8623,-3.8914,-3.8914,-3.8914,-3.8914,-3.8969,0.0,0.0,0.0,0.0,0.0,0.0,0.0,0.0,0.0,0.0,-0.587,-0.6183,-0.7078,-0.7299,-0.7579,0.0,0.0,0.0,0.0,0.0,0.0,0.0,-0.8135,-0.8462,-0.8855,-0.9035,-0.9345,-0.9777,-0.988,-0.9957,-1.0046,-1.0072,-0.9867,-0.9475,-0.9289,-0.8927,0.0,0.0,0.0,0.0,-0.9007,-0.9248,0.0,0.0,0.0,0.0,-0.9434,-0.9286,0.0,0.0,0.0,0.0,0.0,0.0,0.0,0.0,-1.0511,-1.0832,-1.0804,0.0,-0.983,-1.0636,-1.094,-1.123,0.0,-1.2672,-1.351,-1.4519,-1.5294,-1.5823,-1.589,-1.6138,-1.6526,-1.7111,-1.7302,-1.7876,-1.9362,-2.2654,0.0,-2.6852,-2.8584,-2.9492,-2.9065,-3.0158,-3.1157,-3.1735,-3.1741,-3.1983,-3.253,-3.2668,-3.2628,-3.2368,-3.284,-3.3203,-3.3503,-3.3346,-3.3346,-3.3503,-3.4026,-3.4492,-3.4791,-3.5379,-3.602,-3.6727,0.0,0.0,-3.8042,-3.7551,-3.7711,-3.8157,-3.787,-3.7754,-3.7754,-3.7754,-3.7927,-3.8157,0.0,0.0,0.0,0.0,0.0,0.0,0.0,0.0,0.0,0.0,-0.6005,-0.6266,-0.7012,-0.7246,-0.7535,0.0,0.0,0.0,0.0,0.0,0.0,-0.7744,-0.7821,-0.8099,-0.86,-0.8717,-0.9008,-0.9502,-0.9607,-0.9724,-0.9802,-0.9854,-0.9698,-0.9354,-0.9074,-0.8745,-0.8445,-0.8186,-0.8246,-0.8473,-0.8688,0.0,0.0,0.0,0.0,0.0,-0.9381,-0.9232,0.0,-0.9351,-0.9765,-1.0164,0.0,0.0,0.0,0.0,-1.0748,-1.0897,-1.0777,-1.0436,-1.0305,-1.108,-1.1069,-1.12,-1.2495,-1.2844,-1.3231,-1.4355,-1.5107,-1.5543,-1.5543,-1.5869,-1.6366,-1.7128,-1.7207,-1.8095,0.0,0.0,-2.5036,-2.7208,-2.8404,-2.9153,0.0,-3.0076,-3.0778,-3.1338,-3.1229,-3.1374,-3.1962,-3.2178,-3.2215,-3.2096,-3.2591,-3.3005,-3.3309,-3.3027,-3.3011,-3.3309,-3.3701,-3.4015,-3.432,-3.4751,-3.5399,0.0,0.0,0.0,-3.7445,-3.7026,-3.7148,-3.7727,-3.7711,-3.7594,-3.7417,-3.7417,-3.7535,-3.7711,0.0,0.0,0.0,0.0,0.0,0.0,0.0,0.0,0.0,0.0,0.0,0.0,0.0,0.0,0.0,0.0,0.0,0.0,0.0,0.0,-0.7695,-0.7734,-0.7656,-0.7919,-0.8585,-0.8549,-0.8878,-0.958,-0.9578,-0.9622,-0.9753,-0.9739,-0.9557,-0.9193,-0.8651,-0.8372,-0.8248,-0.7735,-0.777,-0.822,-0.829,0.0,0.0,0.0,0.0,0.0,0.0,0.0,0.0,-0.9162,-0.9655,-1.024,-1.0166,0.0,0.0,0.0,0.0,0.0,-1.0705,-1.0825,-1.0986,-1.1318,-1.1023,-1.11,-1.2869,-1.2826,-1.2758,-1.412,-1.4748,-1.5098,0.0,-1.5495,0.0,0.0,0.0,0.0,-2.19,-2.2636,-2.4084,-2.7555,-2.7981,0.0,-2.9539,-2.9847,-3.01,-3.0495,-3.048,-3.0625,-3.0986,-3.1552,-3.1777,-3.1612,-3.2313,-3.2826,-3.3134,-3.2687,-3.2687,-3.3134,-3.3206,-3.3525,-3.3983,-3.4105,-3.4682,-3.5462,0.0,0.0,-3.6476,-3.6531,-3.6762,-3.7105,-3.7669,-3.7578,-3.7238,-3.7238,-3.7298,-3.7358,0.0,0.0,0.0,0.0,0.0,0.0,0.0,0.0,0.0,0.0,0.0,0.0,0.0,0.0,0.0,0.0,0.0,0.0,0.0,-0.747,-0.746,-0.7539,-0.7383,-0.7692,-0.8572,-0.8255,-0.8736,-0.9999,-0.9896,-0.9921,-1.0047,-1.0258,-0.9825,-0.8844,-0.8259,-0.7898,-0.7724,-0.755,-0.7656,-0.7908,-0.8252,0.0,0.0,0.0,0.0,0.0,0.0,0.0,0.0,-0.9432,-0.975,-1.0062,-1.0207,0.0,0.0,0.0,0.0,0.0,-1.0198,-1.0261,-1.0451,-1.0543,-1.0465,-1.0546,-1.1251,-1.2088,-1.2954,-1.3742,-1.4718,-1.5432,0.0,-1.555,-1.598,0.0,0.0,-2.1595,0.0,0.0,-2.6503,-2.7599,0.0,-2.9095,-2.8666,-2.9542,-3.0164,-3.0275,-3.0036,-2.997,-3.0016,-2.9909,-3.0083,-3.0603,-3.1266,-3.1921,-3.2563,-3.2453,-3.2453,-3.2563,-3.2561,-3.2607,-3.2717,-3.2715,-3.3131,-3.3809,0.0,-3.5245,-3.6405,-3.6489,-3.6859,-3.7298,-3.6892,-3.6723,-3.6662,-3.6662,-3.68,-3.7165,0.0,0.0,0.0,0.0,0.0,0.0,0.0,0.0,0.0,0.0,0.0,0.0,0.0,0.0,0.0,0.0,0.0,0.0,-0.7821,-0.7984,-0.8174,-0.8408,-0.842,-0.8548,-0.8746,-0.8993,-0.9518,-1.0264,-1.0219,-1.0229,-1.0351,-1.0132,-0.9511,-0.8568,-0.8184,-0.785,-0.7539,-0.7569,-0.7598,-0.7686,0.0,0.0,0.0,0.0,0.0,0.0,0.0,0.0,0.0,0.0,-0.9738,-1.0091,-1.0305,0.0,0.0,0.0,0.0,0.0,-1.0148,-1.011,-1.0085,-1.011,-1.0367,-1.087,-1.2036,-1.2593,-1.3193,-1.4381,-1.519,0.0,0.0,0.0,-1.6448,-1.7777,0.0,-2.2439,-2.4349,-2.5575,-2.6775,0.0,0.0,-2.8732,-2.8767,-2.9278,-2.9564,-2.9407,-2.9264,-2.9168,-2.9038,-2.9261,-2.955,-2.9874,-3.052,-3.1012,-3.1336,-3.1336,-3.169,-3.2398,-3.2767,-3.2752,-3.2398,-3.2782,-3.3106,-3.3398,0.0,-3.4326,-3.5879,-3.5535,-3.5997,-3.6892,-3.66,-3.6492,-3.6492,-3.6492,-3.6693,-3.706,0.0,0.0,0.0,0.0,0.0,0.0,0.0,0.0,0.0,0.0,0.0,0.0,0.0,0.0,0.0,0.0,0.0,0.0,-0.8362,-0.8538,-0.8802,-0.9221,-0.9625,-0.9667,-0.9298,-0.9799,-1.0299,-1.0731,-1.0651,-1.0603,-1.0596,-0.9928,-0.9204,-0.8421,-0.8166,-0.785,-0.7519,-0.7674,-0.7684,-0.7608,0.0,0.0,0.0,0.0,0.0,0.0,0.0,0.0,0.0,0.0,0.0,0.0,0.0,0.0,0.0,-1.0504,-1.0197,-0.971,-1.0097,-1.0135,-1.0067,-1.0041,-1.0381,-1.1115,-1.2592,-1.2966,-1.343,-1.4896,0.0,0.0,0.0,-1.6366,0.0,-1.8314,-2.0348,-2.2489,-2.4451,-2.5483,-2.6709,-2.851,-2.8389,-2.8369,-2.8935,-2.8936,-2.8842,-2.8653,-2.8653,-2.8573,-2.8411,-2.8839,-2.9193,-2.9346,-2.9817,-3.0155,-3.0308,-3.036,-3.0944,-3.2167,-3.269,-3.2736,-3.2413,-3.2936,-3.3167,-3.3152,-3.2782,-3.3537,-3.4968,-3.4614,-3.5183,-3.6261,-3.6261,-3.6353,-3.6492,-3.6492,-3.6693,-3.6877,0.0,0.0,0.0,0.0,0.0,0.0,0.0,0.0,0.0,0.0,0.0,0.0,0.0,0.0,0.0,0.0,0.0,0.0,-0.8972,-0.8746,-0.8824,-0.9368,-1.027,-1.0703,-1.0463,-1.0156,-1.0575,-1.1709,-1.1388,-1.1011,-1.0596,-0.9977,-0.9262,-0.8471,-0.808,-0.7763,-0.7538,-0.7969,-0.8025,-0.7832,-0.8511,0.0,0.0,0.0,0.0,0.0,0.0,0.0,0.0,0.0,0.0,0.0,0.0,0.0,-0.8872,-0.9788,-0.9773,-0.9487,-0.9841,-1.0229,-1.0532,-1.0488,-1.0485,-1.0669,-1.1307,-1.2423,-1.3646,-1.4713,0.0,0.0,0.0,-1.7362,-1.8006,-1.865,-2.0274,-2.2252,-2.4574,0.0,-2.711,-2.8839,-2.881,-2.867,-2.8732,-2.8573,-2.8444,-2.8396,-2.8396,-2.8396,-2.8411,-2.8345,-2.8587,-2.9164,-2.9139,-2.9407,-3.0,-3.0136,-3.0646,-3.1459,-3.1505,-3.1828,-3.2398,-3.2444,-3.2459,-3.249,-3.3075,-3.3413,-3.3598,-3.4214,-3.4906,-3.5553,-3.5553,-3.5938,-3.6492,-3.6492,-3.6492,-3.6554,0.0,0.0,0.0,0.0,0.0,0.0,0.0,0.0,0.0,0.0,0.0,0.0,0.0,0.0,0.0,0.0,0.0,-0.9372,-0.9701,-0.9799,-0.9998,-1.0303,-1.0927,-1.1253,-1.118,-1.1315,-1.1605,-1.2066,-1.1882,-1.1468,-1.0788,-1.0255,-0.9517,-0.8592,-0.8196,-0.7837,-0.7599,-0.8152,-0.8141,-0.7807,-0.8427,-0.8644,0.0,0.0,0.0,0.0,0.0,0.0,0.0,0.0,-0.8521,-0.8205,-0.8595,-0.8646,-0.8667,-0.9264,-0.9454,-0.9499,-0.9724,-1.0131,-1.0465,-1.0436,-1.0906,-1.1547,0.0,-1.3139,-1.4171,-1.5298,-1.6228,0.0,0.0,0.0,-1.7541,-1.8627,-2.06,-2.2414,-2.3789,-2.5331,-2.6548,-2.7209,-2.7674,-2.7891,-2.7891,-2.7812,-2.795,-2.8365,-2.8011,-2.7965,-2.8381,-2.8284,-2.811,-2.7941,-2.8206,-2.8293,-2.8145,-2.8586,-2.9185,-2.9907,-3.0929,-3.152,-3.1782,-3.2198,-3.2398,-3.2398,-3.2659,-3.3013,-3.3429,-3.369,-3.4229,-3.4906,-3.5322,-3.563,-3.5922,-3.6338,-3.6492,-3.6492,0.0,0.0,0.0,0.0,0.0,0.0,0.0,0.0,0.0,0.0,0.0,0.0,0.0,0.0,0.0,0.0,-1.0134,-1.0212,-1.027,-1.0312,-1.0402,-1.058,-1.0895,-1.1046,-1.0922,-1.1372,-1.1788,-1.2054,-1.1861,-1.1314,-1.0411,-0.9828,-0.9024,-0.807,-0.7694,-0.7427,-0.7328,-0.7965,-0.8023,-0.775,-0.8438,-0.8706,0.0,0.0,0.0,0.0,0.0,0.0,0.0,0.0,-0.8296,-0.7973,-0.8218,-0.8359,-0.8559,-0.9131,-0.9357,-0.9493,-0.9806,-1.0262,-1.0634,-1.0634,-1.1383,-1.2372,-1.3154,-1.3842,-1.4629,-1.5592,-1.6784,-1.772,-1.8035,0.0,0.0,0.0,-2.0189,-2.1754,-2.276,-2.4297,-2.5515,-2.5986,-2.6658,-2.7057,-2.7072,-2.7072,-2.7272,-2.7672,-2.7272,-2.7211,-2.7639,-2.7559,-2.7283,-2.6763,-2.7076,-2.7134,-2.6877,-2.7361,-2.7985,-2.8652,-3.0005,-3.0768,-3.1052,-3.1767,-3.2198,-3.2398,-3.2398,-3.2782,-3.3383,-3.3167,-3.3506,-3.4229,-3.5122,-3.5476,-3.5568,-3.6245,-3.6492,-3.6492,0.0,0.0,0.0,0.0,0.0,0.0,0.0,0.0,-1.0097,-1.0449,-1.0847,0.0,0.0,0.0,0.0,0.0,-1.0556,-1.0278,-1.0666,-1.0088,-0.9768,-0.9904,-1.006,-1.0021,-0.9679,-1.0138,-1.0836,-1.1774,-1.1313,-1.051,-0.9358,-0.8573,-0.765,-0.6687,-0.6427,-0.6404,-0.6629,-0.732,-0.7648,-0.7763,-0.8565,-0.8882,-0.8882,0.0,0.0,0.0,0.0,0.0,0.0,0.0,-0.8549,-0.7982,-0.7982,-0.8149,-0.8486,-0.9402,-0.9499,-0.9466,-1.012,-1.0749,-1.1191,-1.1142,-1.1938,-1.2961,-1.3789,-1.4475,-1.5057,-1.5522,-1.7167,-1.8503,-1.8517,-1.8517,0.0,-1.8517,-1.8997,-1.9977,-2.1614,-2.2746,-2.3956,-2.5575,-2.6062,-2.6273,-2.638,-2.638,-2.6319,-2.6229,-2.6244,-2.6183,-2.6016,-2.6016,-2.5909,-2.5802,-2.5693,-2.5914,-2.6557,-2.6748,-2.7127,-2.779,-2.8622,-2.9392,-3.0204,-3.1021,-3.1736,-3.2382,-3.2382,-3.2767,-3.3336,-3.2675,-3.2782,-3.3537,-3.4922,-3.5476,-3.5553,-3.6245,-3.6492,-3.6492,0.0,0.0,0.0,0.0,0.0,0.0,0.0,0.0,-0.766,-1.1114,-1.1084,0.0,0.0,0.0,0.0,0.0,0.0,0.0,-1.0396,-1.0039,-0.9675,-0.9284,-0.9253,-0.9124,-0.8947,-0.9138,-0.9769,-1.0799,-1.0214,-0.9502,-0.8686,-0.7714,-0.7029,-0.6533,-0.6147,-0.6043,-0.6253,-0.7128,-0.7361,-0.7236,-0.818,-0.8557,-0.8485,0.0,0.0,0.0,0.0,0.0,0.0,0.0,0.0,0.0,-0.7646,-0.7982,-0.8443,-0.8761,-0.9299,-0.985,-1.0208,-1.0903,-1.1658,-1.2109,-1.2758,-1.3434,-1.4069,-1.4573,0.0,0.0,-1.7543,-1.8012,-1.8433,-1.8166,0.0,-1.8447,-1.8997,-1.9557,-2.0075,-2.0995,-2.1987,-2.2864,-2.3733,-2.4521,-2.5227,-2.5272,-2.5515,-2.6138,-2.5785,-2.5664,-2.5986,-2.5894,-2.5621,-2.5138,-2.5407,-2.548,-2.5211,-2.6186,-2.6741,-2.6999,-2.7775,-2.8642,-2.9516,-3.0105,-3.0639,-3.1028,-3.1382,-3.1704,-3.1997,-3.2275,-3.2505,-3.2829,-3.4229,-3.4783,-3.4906,-3.6061,-3.6492,-3.6492,0.0,0.0,0.0,0.0,0.0,0.0,0.0,0.0,-0.8263,-1.1168,-0.9994,-0.8024,0.0,0.0,0.0,0.0,0.0,0.0,-1.0108,-0.9609,-0.9102,-0.8504,-0.8341,-0.8121,-0.7859,-0.7941,-0.8204,-0.8656,-0.8528,-0.8109,-0.7375,-0.6453,-0.582,-0.546,-0.5296,-0.5427,-0.5862,-0.6537,-0.6949,-0.7215,-0.7834,-0.8175,-0.8329,0.0,0.0,0.0,0.0,0.0,0.0,0.0,0.0,0.0,-0.77,-0.7986,-0.839,-0.8773,-0.9229,-0.9732,-1.0295,-1.0921,-1.1604,-1.2412,-1.3059,-1.3698,-1.4393,0.0,0.0,0.0,-1.7885,-1.8082,-1.8447,-1.8208,0.0,-1.8461,-1.8787,-1.9123,-1.9362,-2.0069,-2.079,-2.1354,-2.2336,-2.3155,-2.3643,-2.3673,-2.3925,-2.4536,-2.4277,-2.4275,-2.4684,-2.4911,-2.4822,-2.4341,-2.4642,-2.4747,-2.4582,-2.542,-2.5944,-2.6213,-2.6699,-2.7403,-2.8282,-2.921,-2.9892,-3.0354,-3.129,-3.1589,-3.1428,-3.2105,-3.2398,-3.2505,-3.3614,-3.4214,-3.4599,-3.5691,-3.6261,-3.6492,0.0,0.0,-0.854,-0.4798,0.0,0.0,0.0,0.0,-1.0379,-1.0972,-0.8116,-0.5937,0.0,0.0,0.0,0.0,0.0,0.0,-0.964,-0.878,-0.8111,-0.7538,-0.7328,-0.6985,-0.6556,-0.6598,-0.6386,-0.5916,-0.6609,-0.6536,-0.5741,-0.4879,-0.426,-0.3888,-0.4169,-0.4694,-0.5437,-0.5709,-0.6441,-0.7412,-0.7534,-0.7833,-0.8193,-0.7979,0.0,0.0,0.0,0.0,0.0,0.0,0.0,0.0,-0.7979,-0.8077,-0.8391,-0.9188,-0.9249,-0.9305,-1.043,-1.0891,-1.1307,-1.2377,-1.3165,-1.3937,-1.4857,-1.5768,-1.6665,-1.7491,0.0,-1.8433,-1.8433,-1.8433,-1.8461,-1.8503,-1.8517,-1.8675,-1.9235,-1.9644,-2.0073,-2.0664,-2.1535,-2.1984,-2.1902,-2.1873,-2.1915,-2.1945,-2.2184,-2.2367,-2.2536,-2.3215,-2.3588,-2.3505,-2.352,-2.3849,-2.4477,-2.4552,-2.4926,-2.5525,-2.5585,-2.5976,-2.6766,-2.8132,-2.927,-3.0173,-3.1605,-3.1905,-3.1428,-3.2105,-3.2398,-3.2459,-3.3136,-3.3844,-3.4552,-3.523,-3.5907,-3.6492,0.0,0.0,-0.8074,-0.4381,0.0,0.0,0.0,0.0,0.0,-1.1543,0.0,0.0,0.0,0.0,0.0,0.0,0.0,0.0,-0.7847,-0.7419,-0.6803,-0.6167,-0.5787,-0.5529,-0.5443,-0.5658,-0.5662,-0.5434,-0.5601,-0.5316,-0.4635,-0.4084,-0.3717,-0.353,-0.3954,-0.4304,-0.4709,-0.5689,-0.6289,-0.6622,-0.7203,-0.7515,-0.7579,-0.7314,-0.7148,0.0,0.0,0.0,0.0,0.0,0.0,0.0,-0.7753,-0.8044,-0.8398,-0.8665,-0.9159,-0.9828,-1.0631,-1.1122,-1.1767,-1.3362,-1.4552,-1.5336,-1.5576,-1.6089,-1.6497,-1.6531,-1.7227,-1.7801,-1.7801,-1.7801,-1.7955,-1.8433,-1.8517,-1.8574,-1.8661,-1.8753,-1.9058,-1.9625,-1.9891,-2.0244,-2.0841,-2.0884,-2.0912,-2.094,-2.126,-2.1465,-2.1454,-2.1902,-2.2394,-2.2862,-2.2877,-2.3176,-2.3819,-2.4358,-2.4657,0.0,-2.536,-2.5689,-2.5901,-2.6744,-2.7916,-2.9316,-3.0265,-3.0937,-3.1428,-3.2105,-3.2398,-3.2459,-3.3136,-3.3844,-3.4552,-3.523,-3.5907,-3.6492,0.0,0.0,0.0,0.0,0.0,0.0,0.0,0.0,0.0,0.0,0.0,0.0,0.0,0.0,0.0,0.0,-0.1917,-0.4934,-0.6402,-0.595,-0.5417,-0.5038,-0.5048,-0.4966,-0.4787,-0.5331,-0.5445,-0.5153,-0.5337,-0.5127,-0.4566,-0.4292,-0.4059,-0.3816,-0.4307,-0.4662,-0.4971,-0.5658,-0.6215,-0.6605,-0.695,-0.7083,-0.7139,-0.7009,-0.6847,-0.68,-0.7281,0.0,0.0,0.0,0.0,0.0,0.0,0.0,-0.8088,-0.8222,-0.8744,-0.9445,-1.0062,-1.078,-1.1722,-1.3273,0.0,-1.5024,-1.5317,-1.5514,-1.5718,-1.5883,-1.6863,-1.7661,-1.7609,-1.7843,-1.8138,-1.8461,-1.8439,-1.8361,-1.8361,-1.8282,-1.8367,-1.8792,-1.9003,-1.9252,-1.9642,-1.9641,-1.9641,-1.9698,-1.9921,-2.0142,-2.028,-2.0787,-2.1376,-2.2017,-2.226,-2.2655,-2.3246,-2.3822,-2.4133,-2.4148,-2.4477,-2.4822,-2.5181,-2.6201,-2.7353,-2.845,-2.9322,-3.0134,-3.086,-3.1643,-3.2105,-3.2459,-3.3136,-3.3844,-3.4552,-3.523,-3.5907,-3.6492,0.0,0.0,0.0,0.0,0.0,0.0,0.0,0.0,0.0,0.0,0.0,0.0,0.0,0.0,0.1384,0.0,0.0,0.0,-0.5132,-0.4687,-0.438,-0.4349,-0.4741,-0.4759,-0.4442,-0.5245,-0.5479,-0.5063,-0.549,-0.5479,-0.5151,-0.4898,-0.4609,-0.4353,-0.4807,-0.5208,-0.5548,-0.5717,-0.6173,-0.6829,-0.6751,-0.6783,-0.6927,-0.6886,-0.6748,-0.6594,-0.747,-0.7456,-0.709,-0.7881,0.0,0.0,0.0,0.0,-0.7859,-0.8023,-0.8451,-0.8977,-0.9422,-1.0465,-1.1661,-1.2787,-1.3533,0.0,-1.4618,-1.4696,-1.4819,-1.5334,-1.6545,-1.7499,-1.7398,-1.7859,-1.8313,-1.8333,-1.8242,-1.8163,-1.8163,-1.8003,-1.7963,-1.8123,-1.844,-1.8601,-1.8476,-1.8376,-1.8347,-1.8448,-1.856,-1.8769,-1.9098,-1.9753,-2.0345,-2.0965,-2.1341,-2.1874,-2.26,-2.295,-2.3283,-2.3445,-2.355,-2.3969,-2.4627,-2.5978,-2.6992,-2.7655,-2.8693,-2.9577,-3.0234,-3.1052,-3.1782,-3.2444,-3.3013,-3.3737,-3.4537,-3.5106,-3.5814,-3.6492,0.0,0.0,0.0,0.0,0.0,0.0,0.0,0.0,0.0,0.0,-0.3082,-0.008,0.0,0.3473,0.4739,0.1717,0.0615,-0.1171,-0.4176,0.0,0.0,-0.4461,-0.461,-0.4646,-0.4597,-0.5247,-0.5547,-0.5362,-0.6103,-0.6316,-0.6069,-0.5135,-0.4786,-0.4914,-0.4923,-0.5204,-0.5692,-0.6017,-0.6307,-0.6568,-0.6666,-0.6855,-0.7071,-0.6961,-0.6859,-0.6924,-0.7589,-0.7586,-0.7497,-0.8442,-0.8569,0.0,0.0,0.0,-0.8324,-0.835,-0.8729,-0.9236,-0.9649,-1.0925,-1.2206,-1.2371,-1.3235,-1.4016,0.0,0.0,-1.4245,0.0,-1.5593,-1.6356,-1.6388,-1.6989,-1.7504,-1.7599,-1.7828,-1.7922,-1.7922,-1.7922,-1.7922,-1.7922,-1.799,-1.7909,-1.7677,-1.7636,-1.7553,-1.7387,-1.7705,-1.795,-1.799,-1.846,-1.9035,-1.9654,-1.971,-2.0269,-2.1333,-2.1415,-2.1916,-2.2843,-2.334,-2.3969,-2.4612,-2.5405,-2.6204,-2.7007,-2.841,-2.9474,-3.0234,-3.1052,-3.1782,-3.2398,-3.249,-3.3321,-3.4491,-3.4568,-3.5414,-3.6492,0.0,0.0,0.0,0.0,0.0,0.0,0.0,0.0,0.0,0.0,0.0,-0.1907,-0.1985,0.0336,0.1267,-0.0215,-0.0559,-0.1475,-0.3243,-0.3707,-0.3889,-0.3939,-0.4282,-0.4519,-0.4662,-0.5388,-0.5844,-0.5946,-0.6293,-0.6573,-0.6717,-0.5954,-0.5649,-0.5714,-0.5751,-0.5872,-0.6099,-0.6078,-0.6227,-0.652,-0.6538,-0.6613,-0.6768,-0.6834,-0.688,-0.7087,-0.7996,-0.8077,-0.7874,-0.8805,-0.8693,-0.8175,-0.8246,0.0,0.0,0.0,-0.856,-0.9113,-0.9743,-1.0175,-1.066,-1.1444,-1.202,-1.2646,-1.3673,-1.3404,-1.3388,-1.4833,-1.5199,-1.544,-1.6074,-1.6692,-1.7169,-1.7216,-1.7297,-1.7393,-1.7393,-1.7447,-1.7529,-1.7652,-1.7584,-1.7502,-1.7516,-1.7393,-1.7323,-1.7199,-1.7352,-1.7475,-1.7475,-1.7679,-1.8031,-1.8638,-1.8934,-1.9475,-2.033,-2.0571,-2.1097,-2.1903,-2.2164,-2.2775,-2.3687,-2.4403,-2.5414,-2.6744,-2.7871,-2.8758,-2.9596,-3.0409,-3.1175,-3.1905,-3.2659,-3.3336,-3.3921,-3.4321,-3.5091,-3.5922,0.0,0.0,0.0,0.0,0.0,0.0,0.0,0.0,0.0,0.0,0.0,-0.3293,-0.3334,0.0,0.0,0.0,-0.2142,-0.2502,-0.2996,-0.3392,-0.361,-0.3657,-0.4221,-0.4591,-0.4751,-0.5522,-0.5977,-0.6203,-0.6374,-0.6595,-0.6816,-0.655,-0.6396,-0.6339,-0.6381,-0.639,-0.6464,-0.6219,-0.6249,-0.6477,-0.6331,-0.6422,-0.66,-0.6653,-0.6793,-0.7108,-0.8182,-0.8297,-0.8066,-0.9027,-0.8871,-0.8242,-0.8336,-0.8139,0.0,0.0,0.0,-0.8958,-0.9554,-0.9393,-0.9337,-1.0475,-1.0899,-1.1395,0.0,0.0,-1.2686,0.0,-1.4612,-1.47,-1.5636,-1.6411,-1.6824,-1.6697,-1.6752,-1.6837,-1.6909,-1.7005,-1.7144,-1.7393,-1.7282,-1.7282,-1.7393,-1.7282,-1.7199,-1.7199,-1.7199,-1.7199,-1.7199,-1.7199,-1.7408,-1.7852,-1.8225,-1.8681,-1.9228,-1.9823,-2.0387,-2.0838,-2.1163,-2.1723,-2.2507,-2.339,-2.4547,-2.5973,-2.6935,-2.778,-2.8607,-2.9463,-3.0273,-3.1095,-3.2338,-3.2959,-3.3288,-3.3824,-3.457,-3.5245,0.0,0.0,0.0,0.0,0.0,0.0,0.0,0.0,0.0,0.0,0.0,-0.3075,-0.3202,-0.2937,-0.2586,-0.2144,-0.2724,-0.3347,-0.3792,-0.4039,-0.4181,-0.4181,-0.4626,0.0,-0.4997,-0.5581,-0.5798,-0.5621,-0.6344,-0.6448,-0.6083,-0.6481,-0.6571,-0.6374,-0.6319,-0.6428,-0.6667,-0.6476,-0.6375,-0.6392,-0.6119,-0.6325,-0.6756,-0.6526,-0.658,-0.6922,-0.7795,-0.7939,-0.79,0.0,-0.9299,-0.9003,-0.919,-0.8964,-0.8635,0.0,0.0,0.0,-0.8958,-0.9066,-0.931,-0.976,-1.0363,-1.0917,0.0,0.0,-1.2311,-1.3012,-1.3516,-1.4052,-1.4683,-1.5752,-1.6392,-1.5913,-1.61,-1.6362,-1.668,-1.671,-1.685,-1.7199,-1.7199,-1.7199,-1.7199,-1.7199,-1.7199,-1.7199,-1.7199,-1.7199,-1.7199,-1.7199,-1.7212,-1.7251,-1.728,-1.75,-1.7882,-1.8933,-1.9486,-1.9487,-2.0696,-2.1318,-2.1433,-2.263,-2.3498,-2.4225,-2.5501,-2.6503,-2.7269,-2.8262,-2.9055,-2.9769,-3.0734,-3.1781,-3.2732,-3.2777,-3.3541,-3.4614,0.0,0.0,0.0,0.0,0.0,0.0,0.0,0.0,0.0,0.0,0.0,0.0,0.0,-0.4231,-0.3938,-0.3527,-0.352,-0.3612,-0.388,-0.3943,-0.4077,-0.4314,-0.4481,-0.4672,-0.4931,-0.5275,-0.5529,-0.5657,-0.5908,-0.6126,-0.6261,-0.6272,-0.632,-0.639,-0.6213,-0.6229,-0.637,-0.6214,-0.6186,-0.6264,-0.6259,-0.638,-0.6544,-0.6453,-0.6802,-0.7459,-0.8019,0.0,0.0,0.0,0.0,0.0,-0.8724,-0.8634,-0.8529,-0.8643,-0.8677,-0.8703,-0.8821,-0.8703,-0.8681,-0.9173,-0.9877,-1.0658,-1.1295,-1.1796,-1.2344,-1.3196,-1.3559,-1.3836,-1.441,-1.5183,-1.5659,-1.5525,-1.5659,-1.5856,-1.5976,-1.6219,-1.6479,-1.685,-1.6892,-1.6976,-1.7199,-1.7199,-1.7199,-1.7199,-1.7199,-1.7199,-1.7199,-1.7199,-1.7157,-1.7086,-1.7086,-1.7157,-1.7282,-1.7688,-1.8106,-1.8594,-1.9373,-2.0121,-2.0804,-2.1686,-2.2363,-2.2912,-2.3458,-2.4736,-2.6477,-2.7269,-2.7948,-2.8531,-2.9652,-3.0455,-3.114,-3.179,-3.2609,-3.345,0.0,0.0,0.0,0.0,0.0,-0.5009,-0.4801,-0.4622,-0.4661,-0.5183,0.0,0.0,0.0,0.0,-0.4812,-0.442,-0.4062,-0.385,-0.384,-0.3897,-0.4004,-0.418,-0.4336,-0.4491,-0.4779,-0.5066,-0.5341,-0.5545,-0.5742,-0.5916,-0.6153,-0.6062,-0.6067,-0.6148,-0.5981,-0.5999,-0.6207,-0.6174,-0.618,-0.6215,-0.6265,-0.6409,-0.6605,-0.6517,-0.7043,-0.795,0.0,0.0,0.0,0.0,0.0,0.0,-0.8594,-0.8626,-0.8594,-0.8615,-0.8655,-0.8664,-0.8545,-0.8414,-0.8397,-0.8774,-0.9427,-1.0221,-1.1053,-1.1578,-1.2113,-1.2938,-1.3225,-1.3501,-1.4029,-1.4621,-1.507,-1.5187,-1.5334,-1.5457,-1.5591,-1.5824,-1.6132,-1.6479,-1.6522,-1.6637,-1.6976,-1.7018,-1.7073,-1.7199,-1.7199,0.0,-1.7199,-1.7199,-1.7157,-1.7002,-1.696,-1.696,-1.696,-1.696,-1.7196,-1.7713,-1.8273,-1.9061,-1.9967,-2.0641,-2.1336,-2.2028,-2.2062,-2.3232,-2.5122,-2.5925,-2.6526,-2.7102,-2.8568,-2.9377,-2.9827,-3.0836,-3.1706,-3.2475,0.0,0.0,-0.4514,-0.4909,-0.4787,-0.4879,-0.5588,-0.4932,-0.4709,-0.5663,0.0,0.0,0.0,0.0,0.0,-0.4548,-0.4313,-0.4061,-0.3755,-0.4039,-0.4057,-0.3707,-0.4172,-0.4413,-0.4508,-0.4947,-0.5224,-0.5285,-0.5766,-0.59,-0.5685,-0.5906,-0.589,-0.568,-0.5723,-0.5897,-0.6207,-0.6339,-0.6325,-0.6204,-0.6066,-0.6401,-0.6987,-0.6707,-0.7328,0.0,-0.8367,-0.8853,0.0,-0.9248,0.0,0.0,0.0,-0.9115,-0.8964,-0.8617,-0.8733,-0.8862,0.0,0.0,0.0,-0.8599,-0.9007,-0.9639,-1.0478,-1.1093,-1.159,-1.2004,-1.2502,-1.3018,-1.3478,-1.4006,-1.4522,-1.5005,-1.5096,-1.5187,-1.5522,-1.5579,-1.5724,-1.6144,-1.62,-1.6318,-1.6637,-1.668,-1.685,-1.7157,-1.7199,-1.7199,-1.7199,-1.7199,-1.7115,-1.7002,-1.6918,-1.6876,-1.6876,-1.6876,-1.6876,-1.6888,-1.757,-1.8196,-1.8838,-1.9504,-2.0414,-2.1485,-2.1485,-2.2126,-2.321,-2.4169,-2.4927,-2.5627,-2.7454,-2.8456,-2.9007,-2.9918,-3.0837,-3.1862,0.0,-0.3885,-0.4073,-0.4496,-0.4881,-0.5198,-0.5371,-0.5371,-0.5415,0.0,0.0,0.0,-0.5743,-0.5415,-0.5046,-0.4591,-0.4438,-0.4241,-0.3983,-0.4134,-0.4149,-0.398,-0.4268,-0.4367,-0.4368,-0.4816,-0.5086,-0.5072,-0.5569,-0.5744,-0.5723,-0.5744,-0.5739,-0.5723,-0.5755,-0.5831,-0.5941,-0.6034,-0.6162,-0.6221,-0.66,-0.6822,-0.7014,-0.73,0.0,0.0,0.0,-0.87,-0.9106,0.0,-0.8848,-0.8873,0.0,-0.9205,-0.919,-0.8933,-0.8939,-0.8973,-0.8767,0.0,0.0,0.0,0.0,0.0,-0.9824,-1.0463,-1.118,-1.159,-1.2063,-1.2541,-1.3002,-1.3478,-1.3983,-1.4499,-1.4878,-1.5027,-1.4769,-1.5012,-1.5379,-1.5724,-1.578,-1.5913,-1.6318,-1.6552,-1.6765,0.0,-1.706,-1.7199,-1.7199,-1.7086,-1.696,-1.6918,-1.6735,-1.6663,-1.6761,-1.6761,-1.6803,-1.6888,-1.757,-1.8196,-1.8838,-1.9504,-2.0205,-2.0948,-2.0948,-2.1302,-2.206,-2.3165,-2.4199,-2.5216,-2.6194,-2.7183,-2.8262,-2.9287,-3.0102,-3.0776,-0.3967,-0.4106,-0.428,-0.4577,-0.5028,-0.5328,-0.5458,-0.5593,-0.5761,0.0,0.0,0.0,-0.5794,-0.5577,-0.5232,-0.4758,-0.4641,-0.4482,-0.4221,-0.4443,-0.4501,-0.433,-0.4392,-0.4403,-0.439,-0.467,-0.4845,-0.4845,-0.5285,-0.555,-0.555,-0.5636,-0.568,-0.5723,-0.5761,-0.5798,-0.5884,-0.5976,-0.619,-0.6526,-0.7063,-0.7398,-0.7614,-0.7897,-0.8328,0.0,0.0,0.0,-0.9352,-0.8972,-0.9113,0.0,0.0,-0.9139,-0.9602,-0.9504,-0.9444,-0.941,-0.9298,-0.9333,-0.9358,-0.8985,0.0,0.0,-0.924,-1.0106,-1.0894,-1.0291,-1.1014,-1.1804,-1.1994,-1.2552,-1.3104,-1.3374,-1.4017,-1.4522,-1.4672,-1.4752,-1.4967,-1.5344,-1.5367,-1.5546,-1.5913,-1.6262,-1.6552,-1.668,-1.7018,-1.7199,-1.7199,-1.7044,-1.6918,-1.6876,-1.6705,-1.6577,-1.662,-1.662,-1.6663,-1.6748,-1.7209,-1.7714,-1.8384,-1.9045,-1.9712,-2.0358,-2.0607,-2.0976,-2.1577,-2.2492,-2.3477,-2.4552,-2.5503,-2.6455,-2.7365,-2.8649,-2.9428,-3.0055,0.0,-0.4651,-0.4716,-0.4952,-0.5203,-0.542,-0.568,-0.5701,-0.5837,0.0,-0.6097,-0.6002,-0.5926,-0.5814,-0.5547,-0.4965,-0.4876,-0.4759,-0.4443,-0.4843,-0.4952,-0.4622,-0.4586,-0.455,-0.4572,-0.464,-0.4684,-0.4768,-0.5179,-0.5389,-0.5363,-0.5657,-0.5728,-0.5723,-0.575,-0.5831,-0.6019,-0.6062,-0.6404,-0.6999,-0.7482,-0.8002,0.0,0.0,-0.8773,-0.918,-0.884,-0.9204,-0.9787,-0.9212,-0.943,0.0,0.0,-0.9063,-1.0052,-1.01,-1.0047,-0.9979,-0.9708,-0.9853,-0.9975,-0.9538,-0.9975,0.0,-0.9012,-1.0028,-1.0755,-0.9004,-0.9961,-1.1034,-1.0886,-1.1456,-1.1979,-1.2036,-1.2837,-1.3781,-1.4729,-1.4534,-1.4488,-1.497,-1.5028,-1.5174,-1.5501,-1.5913,-1.6275,-1.6552,-1.6934,-1.7144,-1.7144,-1.7031,-1.696,-1.6876,-1.6761,-1.6633,-1.6522,-1.6522,-1.6522,-1.6522,-1.6683,-1.7117,-1.7747,-1.8526,-1.9235,-1.9839,-2.0463,-2.0949,-2.1459,-2.2034,-2.2867,-2.3901,-2.5243,-2.6106,-2.6701,-2.811,-2.8961,-2.959,-0.4557,-0.4539,-0.4569,-0.4932,-0.5333,-0.5636,-0.568,-0.5836,-0.597,-0.6019,-0.6196,-0.6192,-0.5941,-0.6052,-0.5916,-0.5225,-0.5279,-0.52,-0.4763,-0.4958,-0.4999,-0.4767,-0.4918,-0.5006,-0.5048,-0.5066,-0.5284,-0.5706,-0.5763,-0.582,-0.5869,-0.6159,-0.6051,-0.5734,-0.5968,-0.608,-0.6019,-0.6392,-0.6859,-0.7335,-0.7599,-0.8139,-0.8824,-0.884,-0.8855,-0.8815,-0.8749,-0.8845,-0.9078,-0.9335,-0.9542,-0.9647,0.0,0.0,-0.9675,-0.9994,-0.9802,-0.9549,-0.9908,-1.0041,0.0,0.0,-1.0294,0.0,-1.0319,-1.0665,-1.0969,-1.0908,-1.0915,-1.1024,-1.1321,-1.1257,-1.1259,-1.1659,-1.2121,-1.2658,-1.3243,-1.357,-1.3937,-1.4465,-1.4534,-1.4727,-1.5152,-1.5501,-1.5724,-1.5812,-1.6423,-1.6808,-1.6808,-1.6947,-1.696,-1.6876,-1.6761,-1.6633,-1.6522,-1.6522,-1.6522,-1.6522,-1.7049,-1.746,-1.776,-1.8926,-1.9564,-1.9839,-2.0463,-2.0764,-2.0922,-2.1433,-2.2591,-2.4096,-2.4883,-2.6125,-2.7549,-2.786,-2.8637,-2.9586,-0.4884,-0.5014,-0.5058,-0.5154,-0.5551,-0.5852,-0.5852,-0.6051,-0.6245,-0.6315,-0.6589,-0.6581,-0.6113,-0.6118,-0.5868,-0.5212,-0.5238,-0.5194,-0.4946,-0.5113,-0.5173,-0.5032,-0.508,-0.519,-0.5347,-0.5106,-0.53,-0.5834,-0.5634,-0.5724,-0.6002,-0.6155,-0.6078,-0.5857,-0.6021,-0.6029,-0.5927,-0.613,-0.6848,-0.7797,-0.7595,0.0,-0.8646,-0.8511,-0.851,-0.8611,-0.8611,-0.8785,-0.8982,-0.867,-0.9242,0.0,-0.9366,-0.9526,-1.0061,0.0,-1.031,-0.9963,-1.055,0.0,0.0,-1.062,0.0,0.0,0.0,-1.0693,-1.1214,-1.0115,-1.0481,-1.0928,-1.0785,-1.0924,-1.1203,-1.1418,-1.2063,-1.2519,-1.2489,-1.3148,-1.3788,-1.4327,-1.4155,-1.4281,-1.5039,-1.5178,-1.5437,-1.5844,-1.6262,-1.6436,-1.6436,-1.6534,-1.6491,-1.625,-1.6423,-1.638,-1.6151,-1.638,-1.6522,-1.6522,-1.6829,-1.7111,-1.7324,-1.8228,-1.8908,-1.9394,-1.9969,-2.0437,-2.0777,-2.1577,-2.2645,-2.377,-2.4313,-2.5494,-2.6877,-2.7186,-2.7888,-2.8745,-0.5096,-0.5415,-0.555,-0.5328,-0.5653,-0.5954,-0.5954,-0.6164,-0.6423,-0.6646,-0.6902,-0.6817,-0.6367,-0.6226,-0.5868,-0.5185,-0.51,-0.5044,-0.5023,-0.5077,-0.5206,-0.5297,-0.5214,-0.5291,-0.5553,-0.514,-0.5211,-0.5912,-0.5542,-0.5668,-0.6139,-0.6198,-0.6153,-0.6019,-0.5922,-0.5842,-0.5782,-0.5694,-0.65,-0.7794,0.0,-0.7774,-0.8624,-0.8122,-0.8171,-0.8453,-0.8423,-0.8761,-0.9065,-0.8281,-0.9103,-1.0221,-0.9254,-0.9541,0.0,0.0,0.0,0.0,0.0,0.0,0.0,0.0,0.0,-1.1261,0.0,0.0,0.0,-0.9446,0.0,0.0,0.0,0.0,0.0,0.0,0.0,0.0,0.0,-1.2764,0.0,-1.4186,-1.3792,-1.3891,-1.505,-1.5037,-1.527,-1.5988,-1.6057,-1.61,-1.61,-1.6156,-1.6013,-1.5591,-1.5976,-1.61,-1.5945,-1.6212,-1.6535,-1.6848,-1.6848,-1.6916,-1.7068,-1.7849,-1.8461,-1.8937,-1.9656,-2.0231,-2.0777,-2.1708,-2.2538,-2.3348,-2.4042,-2.5012,-2.6132,-2.6624,-2.7214,-2.7846,-0.4544,-0.5062,-0.5328,-0.5285,-0.5527,-0.5717,-0.5717,-0.5916,-0.6223,-0.6625,-0.6705,-0.6697,-0.6627,-0.6627,-0.6234,-0.5206,-0.5063,-0.4934,-0.4761,-0.4652,-0.4809,-0.5293,-0.5281,-0.5433,-0.576,-0.5412,-0.5666,-0.6572,-0.6279,-0.6288,-0.6646,-0.688,-0.6627,-0.6003,-0.5577,-0.5533,-0.5765,-0.5296,-0.5682,0.0,-0.6533,-0.7813,0.0,-0.8508,-0.8236,-0.8353,-0.8052,-0.8495,-0.9197,0.0,-0.9607,-1.0123,0.0,-1.0015,-0.9569,-1.0913,0.0,0.0,0.0,0.0,0.0,0.0,-1.0981,0.0,0.0,0.0,-1.1846,-1.1718,0.0,0.0,0.0,0.0,0.0,0.0,0.0,0.0,-1.1126,-1.2111,-1.3112,-1.3619,-1.3268,-1.3564,-1.5116,-1.5254,-1.5287,-1.539,-1.5558,-1.568,-1.568,-1.6013,-1.6013,-1.5591,-1.5635,-1.5939,-1.6486,-1.6074,-1.6598,-1.8016,-1.8016,-1.789,-1.7683,-1.9185,-1.9523,-1.8963,-2.0122,-2.0646,-2.0712,-2.0843,-2.1859,-2.3402,-2.4462,-2.5659,-2.6722,-2.6778,-2.7214,-2.779,-0.4299,-0.4797,-0.5145,-0.5145,-0.5562,-0.5927,-0.6073,-0.6401,-0.6708,-0.6912,-0.6939,-0.6866,-0.6696,-0.6534,-0.6159,-0.5572,-0.5022,-0.4782,0.0,-0.4698,-0.4737,-0.5289,-0.5297,-0.5513,-0.6,-0.5736,-0.6005,-0.6918,-0.6468,-0.6476,-0.6934,-0.6896,-0.6654,-0.6229,-0.603,-0.588,-0.5755,-0.5695,-0.6083,0.0,0.0,-0.769,0.0,-0.7834,-0.7721,-0.8098,-0.8191,-0.8404,-0.8626,0.0,-0.8651,0.0,0.0,0.0,0.0,-1.0608,0.0,0.0,0.0,0.0,0.0,0.0,0.0,0.0,-1.1469,0.0,-1.1927,0.0,0.0,0.0,0.0,0.0,0.0,0.0,-1.1997,0.0,0.0,0.0,-1.2986,0.0,0.0,0.0,-1.4699,-1.5126,-1.5357,0.0,-1.5334,-1.5334,-1.5435,-1.5513,-1.5424,-1.5108,-1.5232,-1.537,-1.5522,-1.6016,-1.6466,-1.6806,-1.7738,-1.7831,-1.7155,-1.861,-1.9111,-1.8884,-1.9799,-2.0398,-2.0725,-2.1015,-2.1705,-2.26,-2.342,-2.4751,-2.6287,-2.6287,-2.668,-2.7214,-0.3825,-0.4399,-0.4836,-0.4966,-0.5455,-0.5919,-0.6358,-0.6681,-0.6918,-0.6977,-0.6972,-0.6935,-0.6804,-0.6372,-0.6078,-0.611,-0.5111,-0.4748,0.0,-0.4938,-0.4892,-0.5403,-0.5462,-0.5622,-0.6105,-0.595,-0.6277,-0.6977,-0.6596,-0.6649,-0.7079,-0.6912,-0.6708,-0.6482,-0.6288,-0.604,-0.5777,0.0,-0.6237,-0.6678,-0.6834,-0.7396,-0.7953,-0.7363,-0.7434,-0.7883,-0.7976,-0.8209,-0.8293,-0.7279,-0.8166,0.0,-0.8194,0.0,-0.9976,0.0,0.0,0.0,-1.0702,0.0,0.0,0.0,0.0,0.0,0.0,0.0,0.0,0.0,0.0,0.0,0.0,0.0,-1.2039,-1.1929,0.0,-1.2453,0.0,-1.2301,0.0,0.0,0.0,0.0,0.0,-1.4842,-1.5198,-1.5435,0.0,-1.5153,-1.5255,-1.5153,-1.4971,-1.4708,-1.4834,-1.4937,-1.4957,-1.5649,-1.5997,-1.6039,-1.737,-1.7638,-1.6979,-1.8342,-1.9012,-1.9037,-1.9703,-2.027,-2.0738,-2.1106,-2.1587,-2.2043,-2.2444,-2.3796,-2.5532,-2.5532,-2.5979,-2.6554,-0.2932,-0.3704,-0.4447,-0.4923,-0.5191,-0.5546,-0.631,-0.6406,-0.6498,-0.6668,-0.663,-0.6751,0.0,0.0,0.0,0.0,0.0,-0.4735,-0.5804,0.0,-0.5214,-0.5786,-0.5795,-0.5795,-0.5795,-0.6055,-0.6372,-0.6701,-0.6696,-0.6804,-0.7085,-0.7074,-0.695,-0.6646,-0.6008,-0.5814,-0.5981,-0.5524,-0.5475,-0.5804,-0.6455,-0.6875,-0.7192,0.0,-0.7706,-0.7658,-0.7295,0.0,0.0,-0.8383,-0.8705,0.0,0.0,0.0,0.0,0.0,0.0,0.0,0.0,0.0,0.0,-1.0403,0.0,0.0,0.0,0.0,-1.1578,0.0,0.0,0.0,0.0,-1.2076,-1.1957,-1.1572,-1.1877,0.0,0.0,0.0,0.0,0.0,0.0,0.0,0.0,-1.4496,-1.4755,0.0,-1.5165,-1.5108,-1.5108,-1.5108,-1.4971,-1.4708,-1.4512,-1.478,-1.5581,-1.4849,-1.5213,-1.6668,-1.7266,-1.7533,-1.7617,-1.9221,-1.9799,-1.9633,-2.0189,-2.0549,-2.0699,-2.0725,-2.1231,-2.2003,-2.203,-2.3105,-2.4637,-2.4637,-2.5173,-2.5921,-0.2904,-0.3203,-0.3582,-0.4077,-0.4542,-0.5114,-0.5925,-0.6545,-0.688,0.0,-0.6945,0.0,0.0,-0.681,-0.646,0.0,0.0,-0.5333,-0.6073,-0.5579,0.0,-0.6041,-0.6055,-0.6164,-0.6381,-0.6485,-0.6647,-0.6972,-0.6972,-0.7031,-0.7085,-0.7085,-0.6961,-0.6673,-0.6482,-0.6245,0.0,0.0,0.0,0.0,0.0,-0.7015,-0.7122,0.0,-0.7156,-0.73,-0.7139,-0.7354,0.0,-0.7687,-0.8156,-0.8732,-0.8461,-0.8778,-0.9295,-0.9145,-0.919,0.0,0.0,0.0,-0.951,-1.0241,0.0,0.0,0.0,0.0,0.0,0.0,0.0,0.0,0.0,-1.2026,-1.208,-1.1902,-1.1994,-1.203,0.0,0.0,0.0,0.0,0.0,0.0,0.0,0.0,0.0,0.0,-1.3993,0.0,-1.5141,-1.5165,-1.4971,-1.4708,-1.4512,-1.446,-1.4529,-1.5094,-1.5472,-1.5608,-1.7576,-1.8123,-1.746,-1.9221,-1.9787,-1.9487,-2.0215,-2.0562,-2.0699,-2.0699,-2.0867,-2.1152,-2.1152,-2.1832,-2.3051,-2.4145,-2.5145,-2.5893,-0.2985,-0.3091,-0.3277,-0.3648,-0.4145,-0.493,-0.6134,-0.6396,-0.6534,0.0,-0.6426,0.0,-0.6647,0.0,-0.6192,0.0,-0.5873,-0.5882,-0.6588,-0.6128,0.0,-0.6367,-0.6372,-0.648,0.0,-0.6815,-0.6918,-0.7085,-0.7085,-0.7085,-0.7085,-0.7085,-0.7004,-0.6859,-0.6859,-0.6595,-0.618,-0.6668,-0.6651,0.0,0.0,-0.6939,0.0,0.0,-0.688,-0.7085,0.0,-0.7198,-0.7365,-0.7365,-0.7788,-0.8262,-0.7889,-0.8362,-0.8935,-0.8573,-0.8732,-0.9047,-0.9249,-0.9086,0.0,-0.9873,-0.9911,0.0,-1.0785,0.0,0.0,0.0,0.0,0.0,0.0,0.0,-1.1968,-1.1751,-1.1918,-1.2076,0.0,-1.2353,0.0,0.0,0.0,0.0,0.0,0.0,-1.3103,-1.5184,-1.3974,-1.3771,0.0,0.0,-1.4891,-1.4708,-1.443,-1.4226,-1.4275,-1.4789,-1.5064,-1.5006,-1.6962,-1.7697,-1.739,-1.8939,-1.9686,-1.9707,-2.0192,-2.0498,-2.0699,-2.0699,-2.0699,-2.0699,-2.0699,-2.1218,-2.2175,-2.3603,-2.491,-2.5893,-0.3197,-0.3314,-0.349,-0.3732,-0.4073,-0.492,0.0,0.0,-0.5445,0.0,-0.5167,-0.5003,-0.5778,-0.5066,-0.5374,-0.7406,-0.6638,-0.6454,-0.7306,-0.6994,0.0,0.0,-0.6707,-0.6707,-0.6707,0.0,0.0,-0.7085,-0.7085,-0.7085,-0.7085,-0.7085,-0.7085,-0.7085,-0.7085,-0.6826,-0.6412,-0.6649,-0.6438,-0.6094,-0.6336,-0.6692,-0.7063,-0.6837,-0.6891,-0.7085,-0.7085,-0.7246,-0.7521,-0.7521,-0.7681,-0.7901,-0.7901,-0.7901,-0.7901,-0.7901,-0.7901,-0.8002,-0.862,-0.8778,-0.8883,-0.9406,0.0,0.0,0.0,0.0,-1.0684,0.0,0.0,0.0,0.0,0.0,-1.166,-1.1124,-1.1651,-1.2076,-1.2076,-1.2076,-1.2076,0.0,0.0,0.0,0.0,-1.381,-1.3893,-1.496,-1.4971,-1.5005,0.0,0.0,-1.4708,-1.4662,-1.4244,-1.4196,-1.4673,-1.3997,-1.4138,-1.5028,-1.5674,-1.6472,-1.7433,-1.8536,-1.9396,-2.0118,-2.0182,-2.0334,-2.0649,-2.0649,-2.0699,-2.0699,-2.0699,-2.1218,-2.2121,-2.3051,-2.4445,-2.5893,-0.3213,-0.3243,-0.3346,-0.3591,-0.4107,-0.4457,0.0,0.0,0.0,0.0,-0.4838,-0.4893,-0.5391,-0.5504,-0.6023,-0.7143,-0.6965,0.0,0.0,0.0,0.0,-0.6977,-0.6977,-0.6977,-0.6977,-0.7085,-0.7085,-0.7085,-0.7085,-0.7085,-0.7085,-0.7085,-0.7085,-0.7085,-0.7085,-0.6826,-0.6423,-0.6826,-0.6923,-0.6816,-0.688,-0.6977,-0.7079,0.0,-0.7031,-0.7085,-0.7085,-0.7246,-0.7521,-0.7521,-0.7681,-0.7901,-0.7901,-0.7901,-0.7901,-0.7901,-0.7901,-0.7955,-0.8109,-0.8109,-0.8262,-0.8883,-0.9042,-0.9235,0.0,0.0,0.0,0.0,0.0,0.0,0.0,0.0,0.0,-1.176,-1.1968,-1.2076,-1.2076,0.0,0.0,-1.2076,0.0,0.0,-1.316,-1.2108,-1.2278,-1.4402,-1.3501,-1.3431,-1.471,0.0,0.0,-1.4197,-1.4067,-1.4148,-1.4403,-1.4582,-1.4935,-1.5515,-1.6428,-1.7016,-1.729,-1.8478,-1.9016,-1.9097,-1.954,-1.9914,-2.0156,-2.0156,-2.0372,-2.0699,-2.0699,-2.1369,-2.2481,-2.3777,-2.4966,-2.5893,-0.3368,-0.3379,-0.3422,-0.3561,0.0,0.0,-0.3638,-0.4132,0.0,-0.4952,-0.4787,0.0,-0.5776,-0.6063,-0.6457,-0.7186,-0.7246,0.0,-0.709,0.0,0.0,-0.7085,-0.7085,-0.7085,-0.7085,-0.6977,0.0,-0.7085,0.0,-0.6977,-0.7085,-0.7085,-0.7085,-0.7085,-0.7085,-0.688,-0.6557,-0.6821,-0.6993,-0.7085,-0.7085,-0.7085,0.0,-0.7085,-0.7085,-0.7085,-0.7144,-0.7306,-0.7521,-0.7568,-0.7735,-0.7901,-0.7901,-0.7901,-0.7901,-0.7901,-0.7901,-0.7901,-0.7901,-0.7901,-0.8032,-0.846,-0.86,-0.8708,-0.93,-0.9461,-0.9507,0.0,0.0,0.0,0.0,0.0,0.0,-1.1995,-1.2076,-1.2076,0.0,0.0,0.0,0.0,-1.2076,0.0,0.0,-1.2143,-1.2513,-1.3961,-1.3658,-1.3693,-1.4354,0.0,0.0,-1.402,-1.4068,-1.4296,-1.4604,-1.4863,-1.5328,-1.5991,-1.6356,-1.6795,-1.7202,-1.7929,-1.8309,-1.8555,-1.9214,-1.9631,-1.9825,-2.0156,-2.0485,-2.0699,-2.0699,-2.1319,-2.2326,-2.3313,-2.4413,-2.55,-0.3564,-0.3585,0.0,0.0,0.0,0.0,0.0,-0.3585,0.0,-0.4952,0.0,-0.4897,-0.6285,-0.6417,-0.6704,-0.729,0.0,-0.7311,-0.7095,-0.7085,-0.7085,-0.7031,-0.7085,-0.7085,-0.6977,-0.6756,-0.6756,0.0,-0.6756,-0.6756,-0.6918,-0.6972,-0.6923,-0.6864,-0.6972,-0.6866,0.0,-0.6694,-0.6817,-0.6972,-0.7085,-0.7085,-0.7085,-0.7085,-0.7085,-0.7139,-0.7257,-0.7365,-0.7521,-0.767,-0.7783,-0.7901,-0.7901,-0.7901,-0.7901,-0.7901,-0.7901,-0.7901,-0.7901,-0.7901,-0.7955,-0.8183,-0.8237,-0.8404,-0.8903,-0.9013,-0.9026,-0.9095,-0.9432,-0.9501,0.0,0.0,0.0,-1.179,0.0,0.0,0.0,0.0,0.0,0.0,0.0,0.0,0.0,-1.2939,-1.3515,-1.3515,-1.4362,-1.4593,-1.3978,0.0,0.0,-1.3962,-1.4174,-1.4531,-1.4997,0.0,-1.5525,-1.6374,-1.5908,-1.6185,-1.7101,-1.7081,-1.7467,-1.8135,-1.8886,-1.9319,-1.9515,-2.0233,-2.0599,-2.0699,-2.0699,-2.1178,-2.1883,-2.2187,-2.3344,-2.4868,-0.358,-0.3585,0.0,0.0,0.0,-0.3585,-0.3585,-0.3585,-0.3694,-0.386,-0.3805,-0.4196,-0.5376,-0.5546,-0.5986,-0.704,-0.7149,0.0,0.0,0.0,0.0,-0.6756,-0.6977,-0.6864,-0.6372,-0.6317,-0.6317,0.0,0.0,-0.6209,-0.6046,-0.6263,-0.6095,-0.5664,-0.6154,-0.6352,-0.6304,-0.6608,0.0,-0.6426,-0.6918,-0.7085,-0.7085,-0.7085,-0.7144,-0.7257,-0.7317,-0.7365,-0.7521,-0.767,-0.7783,-0.7901,-0.7901,-0.7901,-0.7901,-0.7783,-0.7788,-0.7901,-0.7783,-0.7842,-0.7913,-0.7955,-0.7967,-0.8021,-0.8081,-0.8129,-0.819,-0.841,-0.8509,-0.8802,-0.9425,0.0,0.0,0.0,0.0,0.0,0.0,0.0,0.0,0.0,0.0,-1.1619,0.0,0.0,-1.2967,-1.2967,-1.3399,-1.3705,0.0,0.0,0.0,0.0,-1.4066,0.0,0.0,0.0,-1.5835,-1.6374,-1.5908,-1.5984,-1.6524,-1.6612,-1.6809,-1.7134,-1.7929,-1.8417,-1.859,-1.9303,-2.0042,-2.0699,-2.0699,-2.0914,-2.1206,-2.1488,-2.2547,-2.4034,-0.3585,0.0,0.0,0.0,0.0,0.0,0.0,-0.3585,-0.3749,-0.4128,-0.4132,-0.4435,-0.5406,-0.5806,-0.6197,-0.6814,-0.7102,-0.7164,-0.6928,-0.6918,-0.6815,-0.6701,-0.681,-0.681,-0.6647,-0.615,-0.5987,-0.6209,0.0,-0.5441,-0.5555,-0.5664,-0.555,-0.5336,-0.5605,-0.5714,0.0,0.0,0.0,-0.6263,-0.6864,-0.7085,-0.7085,-0.7085,-0.7139,-0.7198,-0.7257,-0.7365,-0.7521,-0.767,-0.7783,-0.7901,-0.7842,-0.7783,-0.7783,-0.7723,-0.7729,-0.7783,-0.7783,-0.7842,-0.7931,-0.8069,-0.8003,-0.7973,-0.8243,-0.8201,-0.8177,-0.8441,-0.8597,-0.8964,-0.986,-1.0086,0.0,0.0,0.0,0.0,0.0,0.0,-1.0525,0.0,0.0,0.0,0.0,0.0,0.0,0.0,0.0,0.0,0.0,0.0,0.0,0.0,0.0,0.0,0.0,0.0,0.0,-1.6384,-1.6156,-1.6167,-1.6431,-1.6416,-1.6493,-1.6648,-1.7567,-1.8007,-1.817,-1.9279,-1.9965,-2.0372,-2.0599,-2.0749,-2.0898,-2.1277,-2.1888,-2.2679,0.0,-0.3602,0.0,0.0,-0.3583,0.0,-0.3583,-0.3583,-0.3747,-0.4343,-0.4349,-0.456,-0.5239,-0.5823,-0.6163,-0.6219,-0.6736,-0.6839,-0.6332,-0.6317,-0.6317,-0.6263,-0.6317,-0.6426,-0.648,-0.5655,-0.5437,0.0,0.0,0.0,0.0,-0.5058,-0.5113,0.0,0.0,0.0,0.0,0.0,-0.6209,-0.6263,-0.6864,-0.7085,-0.7085,-0.7085,-0.7139,-0.7144,-0.7257,-0.7365,-0.7515,-0.7568,-0.7729,-0.7842,-0.7723,-0.767,-0.767,-0.7622,-0.7616,-0.7676,-0.7788,-0.7842,-0.7895,-0.8159,-0.8051,-0.8009,-0.8417,-0.8357,-0.8279,-0.8543,-0.8801,-0.9223,-0.9827,-0.9737,0.0,0.0,0.0,0.0,0.0,0.0,0.0,0.0,0.0,0.0,-1.0956,0.0,0.0,0.0,0.0,0.0,-1.2578,0.0,0.0,0.0,0.0,-1.4556,-1.4892,0.0,-1.6384,-1.6384,-1.628,-1.628,-1.6374,-1.628,-1.6291,-1.6431,-1.7357,-1.7909,-1.8182,-1.9279,-1.9798,-1.9901,-2.0283,-2.0498,-2.0699,-2.1131,-2.1442,-2.1882,0.0,0.0,0.0,0.0,0.0,0.0,-0.3583,-0.3469,-0.3355,-0.3411,-0.3469,-0.3691,-0.4135,-0.4477,-0.4812,-0.503,-0.5521,-0.5567,-0.5117,-0.5167,-0.5164,-0.4889,-0.5109,-0.4999,-0.4508,-0.4284,-0.4177,0.0,0.0,-0.4012,0.0,-0.4181,-0.4401,0.0,0.0,0.0,0.0,-0.5937,-0.6209,-0.6263,-0.6864,-0.7085,-0.7085,-0.7085,-0.7198,-0.7257,-0.7144,-0.7306,-0.7467,-0.7365,-0.7521,-0.7723,-0.7723,-0.7622,-0.7521,-0.7365,-0.7419,-0.7521,-0.7521,-0.7622,-0.7735,-0.7925,-0.7919,-0.7913,-0.7961,-0.7955,-0.8009,-0.8273,-0.8531,-0.8834,-0.9063,-0.9285,-0.9373,0.0,0.0,0.0,0.0,0.0,-0.9061,-0.9458,0.0,0.0,-1.0123,-1.1049,0.0,0.0,-1.1318,0.0,0.0,0.0,0.0,-1.2569,0.0,-1.444,-1.444,-1.5741,-1.6384,-1.6374,-1.5949,-1.597,-1.6363,-1.5949,-1.598,-1.6441,-1.7032,-1.7799,-1.8744,-1.8851,-1.9105,-1.9473,-1.9525,-1.9875,-2.0472,-2.0759,-2.1587,-2.2636,0.0,0.0,0.0,0.0,0.0,0.0,0.0,-0.3299,-0.3244,-0.3188,-0.3188,-0.3299,-0.3574,-0.363,-0.3685,-0.3793,-0.4398,-0.467,-0.4512,-0.4618,-0.4677,-0.4567,-0.4677,-0.4677,-0.4622,-0.4125,-0.3901,0.0,0.0,0.0,0.0,0.0,0.0,0.0,0.0,-0.4846,-0.4842,-0.5445,-0.5878,-0.6263,-0.6864,-0.7085,-0.7085,-0.7085,-0.7139,-0.7198,-0.7139,-0.7198,-0.7365,-0.7311,-0.7419,-0.7568,-0.7467,-0.7419,-0.7365,-0.7311,-0.7311,-0.7419,-0.7467,-0.7622,-0.7723,-0.7783,-0.7842,-0.7943,-0.8099,-0.8135,-0.8165,-0.8267,-0.8375,-0.8552,-0.8768,-0.9001,-0.9179,0.0,0.0,0.0,0.0,0.0,0.0,-0.9008,0.0,-0.9347,0.0,-1.0182,0.0,0.0,0.0,0.0,0.0,0.0,0.0,-1.248,0.0,-1.4005,-1.3961,-1.5563,-1.6259,-1.5961,-1.6074,-1.6198,-1.6374,-1.6187,-1.6423,-1.6864,-1.7088,-1.7634,-1.841,-1.8691,-1.8905,-1.9052,-1.9316,-1.9617,-2.0016,-2.0597,-2.1189,-2.1749,-0.2899,0.0,-0.3471,0.0,-0.3413,-0.3299,-0.3244,-0.319,-0.3079,-0.3021,-0.2965,-0.3021,-0.3135,-0.3021,-0.2965,-0.2965,-0.3463,-0.3738,-0.3738,-0.3907,-0.4021,-0.4021,-0.4021,0.0,-0.4294,-0.3741,-0.3519,-0.3624,-0.3263,0.0,0.0,0.0,0.0,0.0,-0.4231,-0.4615,-0.4739,-0.5171,-0.5661,-0.6263,-0.6647,-0.6756,-0.6593,-0.6593,-0.6593,-0.6593,-0.6593,-0.6647,-0.6707,-0.6707,-0.6761,-0.6918,-0.7203,-0.7257,-0.7257,-0.7257,-0.7257,-0.7257,-0.7413,-0.7515,-0.767,-0.767,-0.7783,-0.7949,-0.8135,-0.8237,-0.8291,-0.8291,-0.8291,-0.8345,-0.8531,-0.8734,-0.8907,-0.9074,0.0,0.0,0.0,-0.8938,0.0,-0.8745,-0.8791,-0.889,-0.9047,-0.951,0.0,0.0,0.0,0.0,0.0,0.0,0.0,0.0,0.0,0.0,0.0,-1.5352,-1.6029,-1.574,-1.6202,-1.6384,-1.6384,-1.6488,-1.6761,-1.719,-1.7301,-1.7645,-1.8139,-1.8464,-1.8583,-1.8625,-1.8893,-1.9251,-1.9656,-2.0346,-2.0845,-2.1237,-0.3551,-0.34,-0.3188,-0.3527,-0.3244,-0.313,-0.3527,-0.3081,-0.2691,-0.2691,-0.2691,-0.2691,-0.2691,-0.2691,-0.2691,-0.2691,-0.2691,-0.2691,-0.2691,-0.286,-0.2916,0.0,0.0,-0.2916,-0.2916,-0.2802,-0.2691,-0.2691,0.0,0.0,-0.2919,0.0,-0.3962,-0.3644,-0.4276,-0.4883,-0.5289,-0.5413,-0.578,-0.6209,-0.6209,-0.5882,-0.5336,-0.5336,-0.5336,-0.5336,-0.5336,-0.5336,-0.5336,-0.5336,-0.5332,-0.5555,-0.6874,-0.7198,-0.7085,-0.7085,-0.7085,-0.7139,-0.7257,-0.7419,-0.7515,-0.767,-0.7783,-0.7901,-0.7907,-0.8105,-0.8291,-0.8291,-0.8291,-0.8291,-0.8291,-0.8459,-0.8627,-0.8788,0.0,0.0,0.0,0.0,0.0,-0.8626,-0.9047,-0.9099,-0.8268,-0.9197,0.0,0.0,0.0,0.0,0.0,0.0,0.0,-1.1833,-1.3064,0.0,-1.3702,-1.5042,-1.574,-1.574,-1.6202,-1.6384,-1.6431,-1.6648,-1.692,-1.719,-1.7534,-1.7877,-1.8084,-1.8096,-1.8084,-1.8084,-1.8084,-1.8655,-1.9475,-2.0029,-2.0696,-2.1471,-0.1446,-0.1513,-0.162,-0.2237,-0.2293,-0.235,-0.2914,-0.2802,-0.2691,-0.2691,-0.2691,-0.2691,-0.2691,-0.2691,-0.2691,0.0,-0.2691,-0.2691,0.0,-0.2747,-0.2747,-0.2747,-0.2747,-0.2747,-0.2747,-0.2747,-0.2691,-0.2691,0.0,0.0,0.0,-0.4041,-0.4095,-0.3754,-0.4276,-0.4622,-0.4837,-0.4836,-0.5112,-0.5609,-0.5609,-0.5496,-0.5277,-0.5277,-0.5277,-0.5277,-0.5277,-0.5277,-0.5277,-0.5277,-0.5277,-0.5391,-0.5828,-0.6209,-0.648,-0.648,-0.6756,-0.7139,-0.7257,-0.7419,-0.7515,-0.767,-0.7783,-0.7901,-0.7901,-0.7967,-0.8027,-0.8027,-0.8027,-0.8027,-0.8027,-0.8226,-0.8509,-0.8726,-0.9003,0.0,0.0,0.0,-0.9342,-0.9173,-0.9046,-0.8867,-0.8496,-0.8844,0.0,0.0,0.0,0.0,0.0,0.0,0.0,0.0,-1.3017,0.0,-1.3203,-1.452,-1.5128,-1.5137,-1.5672,-1.6087,-1.6431,-1.6705,-1.6976,-1.719,-1.7534,-1.7877,-1.8084,-1.8084,-1.8084,-1.8084,-1.8084,-1.8398,-1.8922,-1.9475,-2.0144,-2.0908,-0.0711,-0.0359,-0.0296,-0.141,-0.1902,-0.1959,-0.1455,-0.2128,-0.2691,-0.2691,-0.2691,-0.2691,-0.2691,-0.2691,0.0,-0.2691,-0.2691,-0.2691,-0.2691,-0.2691,-0.2691,-0.2691,-0.2691,-0.2691,-0.2691,-0.2691,0.0,-0.2691,-0.2858,-0.306,-0.3295,-0.3689,-0.3826,-0.3698,-0.407,-0.442,-0.4632,-0.4646,-0.4819,-0.5046,-0.5046,-0.4934,-0.4755,-0.4702,-0.468,-0.468,-0.468,-0.468,-0.468,-0.468,-0.468,-0.468,-0.468,-0.5104,-0.5643,-0.5795,-0.6154,-0.6445,-0.6588,-0.6944,-0.729,-0.7383,-0.78,-0.814,-0.8195,-0.8068,-0.8026,-0.8171,-0.8195,-0.8165,-0.8069,-0.8177,-0.8367,-0.8538,-0.8719,-0.8946,-0.9233,0.0,-0.9223,0.0,0.0,0.0,0.0,-0.8837,-0.9166,0.0,0.0,0.0,0.0,0.0,0.0,-1.2261,-1.3138,0.0,-1.3177,-1.4173,-1.4656,-1.4666,-1.5381,-1.5846,-1.6144,-1.6694,-1.7032,-1.7245,-1.7645,-1.7931,-1.8084,-1.8084,-1.8084,-1.8084,-1.8084,-1.8302,-1.8655,-1.9214,-1.9786,-2.0409,-0.0971,0.0062,0.0643,0.0,-0.1853,0.0,0.0561,-0.1008,-0.2465,-0.2465,-0.2465,-0.2475,-0.2441,-0.2614,-0.2721,-0.2591,0.0,0.0,0.0,-0.2697,-0.2701,-0.2701,-0.2705,-0.2709,-0.2709,-0.2703,-0.2697,-0.2691,-0.2697,-0.2753,-0.2916,-0.3028,-0.3251,-0.3472,-0.3745,-0.4091,-0.4529,-0.4784,-0.4742,-0.4555,-0.4555,-0.4207,-0.3787,-0.3626,-0.3585,-0.3585,-0.3585,-0.3585,-0.3585,-0.3585,-0.3591,-0.3593,-0.3588,-0.4011,-0.467,-0.5116,-0.5297,-0.5345,-0.549,-0.612,-0.6759,-0.6889,-0.7661,-0.8387,-0.8557,-0.8322,-0.8165,-0.8627,-0.8681,-0.8597,-0.8339,-0.8291,-0.8257,-0.8211,-0.824,-0.83,-0.8553,0.0,-0.8594,0.0,0.0,0.0,0.0,-0.898,-0.9434,0.0,0.0,0.0,0.0,0.0,-1.2603,-1.2971,-1.3322,-1.3511,-1.3511,-1.3941,-1.4189,-1.4189,-1.5205,-1.5672,-1.573,-1.6684,-1.7134,-1.7245,-1.781,-1.8084,-1.8084,-1.8084,-1.8084,-1.8084,-1.8139,-1.8302,-1.8667,-1.9174,-1.954,-1.9952,0.0,0.0,0.0827,0.0541,0.0232,0.0224,0.0785,0.0392,0.0056,0.0056,0.0056,0.0058,0.0192,-0.1741,-0.271,-0.1773,-0.2341,-0.2691,-0.2691,-0.2756,-0.2795,-0.2795,-0.2856,-0.2951,-0.2951,-0.2828,-0.276,-0.2691,-0.276,-0.2817,-0.2919,-0.2987,-0.3147,-0.3348,-0.3287,-0.3467,-0.3759,-0.3779,-0.3786,-0.3848,-0.3848,-0.3736,-0.3621,-0.3593,-0.3585,-0.3585,-0.3585,-0.3585,-0.3585,-0.3585,-0.3642,-0.3757,-0.361,-0.3842,-0.4148,-0.4594,-0.5129,-0.5568,-0.551,-0.5821,-0.6134,-0.6142,-0.6529,-0.7066,-0.7596,-0.7742,-0.796,-0.8551,-0.8681,-0.8597,-0.8339,-0.8291,-0.8257,-0.8211,-0.8396,-0.8582,-0.8735,-0.8927,0.0,0.0,-0.9116,-0.898,-0.9071,-0.8913,-0.9259,0.0,0.0,0.0,0.0,-1.2843,-1.2877,-1.2971,-1.3322,-1.3511,-1.3511,-1.3631,-1.3881,-1.4189,-1.4775,-1.5313,-1.574,-1.6181,-1.6684,-1.719,-1.7645,-1.792,-1.8084,-1.8084,-1.8084,-1.8139,-1.8259,-1.8464,-1.8614,-1.8839,-1.9303,-1.985,0.084,0.0869,0.0908,0.0941,0.092,0.0898,0.0898,0.0944,0.0979,0.0979,0.0979,0.1003,0.1069,-0.0268,-0.0991,-0.0316,-0.1792,-0.2768,-0.2754,-0.2836,-0.2885,-0.2885,-0.299,-0.3015,-0.3015,-0.2909,-0.286,-0.2811,-0.286,-0.292,-0.293,-0.3038,-0.3206,-0.3369,-0.3266,-0.3337,-0.3557,-0.3495,-0.3589,-0.3706,-0.3706,-0.3733,-0.3738,-0.3683,-0.3629,-0.3585,-0.3585,-0.3585,-0.3585,-0.3585,-0.3716,-0.3801,-0.3738,-0.3825,-0.4044,-0.4207,-0.449,-0.4834,-0.4796,-0.5129,-0.5642,-0.6124,-0.6218,-0.6358,-0.6965,-0.7075,-0.7215,-0.7864,-0.8193,-0.8389,-0.8257,-0.8375,-0.8438,-0.8288,-0.8263,-0.833,-0.8488,-0.8727,0.0,-0.916,-0.9106,-0.9084,-0.9295,-0.913,-0.9583,-1.0892,-1.1011,0.0,-1.3152,-1.322,-1.322,-1.322,-1.3408,-1.3511,-1.3511,-1.3511,-1.3631,-1.3881,-1.4359,-1.4725,-1.502,-1.5536,-1.6036,-1.6482,-1.7123,-1.7523,-1.7733,-1.7963,-1.8084,-1.8084,-1.8205,-1.841,-1.8614,-1.8679,-1.904,-1.9448,0.0901,0.0898,0.0898,0.0898,0.0898,0.0898,0.0898,0.0984,0.1049,0.1049,0.1065,0.1076,0.1076,0.1076,0.1074,0.0936,-0.1199,-0.2481,-0.2385,-0.2622,-0.2784,-0.2664,-0.2801,-0.2869,-0.2869,-0.2981,-0.303,-0.3015,-0.303,-0.303,-0.3015,-0.3153,-0.3261,-0.3323,-0.3365,-0.3437,-0.3521,-0.3521,-0.3636,-0.3743,-0.3743,-0.375,-0.3777,-0.3795,-0.3705,-0.3637,-0.3637,-0.3637,-0.3637,-0.3637,-0.3713,-0.3865,-0.3845,-0.3947,-0.4121,-0.3998,-0.389,-0.3827,-0.3912,-0.4372,-0.5126,-0.6116,-0.6092,-0.5986,-0.6552,-0.6423,-0.6419,-0.7033,-0.7573,-0.7996,-0.7959,-0.8248,-0.8474,-0.8214,-0.8015,-0.7955,-0.8115,0.0,-0.8444,-0.8878,-0.9029,-0.9172,-0.946,-0.9484,-1.004,-1.1274,-1.1454,-1.2012,-1.326,-1.345,-1.3511,-1.3511,-1.3511,-1.3511,-1.3511,-1.3511,-1.3511,-1.3511,-1.3942,-1.4192,-1.4249,-1.4949,-1.54,-1.5613,-1.6539,-1.7,-1.7202,-1.7854,-1.8084,-1.8096,-1.8139,-1.8356,-1.8625,-1.8762,-1.8947,-1.9172,0.0917,0.0898,0.0898,0.0898,0.0898,0.0898,0.0898,0.0913,0.0925,0.0925,0.1013,0.1076,0.1076,0.1076,0.0865,0.0325,-0.0393,-0.0716,-0.0629,-0.1384,-0.1647,-0.1214,-0.1962,-0.2318,-0.2318,-0.2847,-0.3032,-0.3015,-0.3032,-0.303,-0.3018,-0.3097,-0.3099,-0.3036,-0.3083,-0.3149,-0.3288,-0.3288,-0.3299,-0.3399,-0.3399,-0.3389,-0.3431,-0.3533,-0.3577,-0.3706,-0.3821,-0.3879,-0.3879,-0.3879,-0.396,-0.4042,-0.3939,-0.4075,-0.4249,-0.4124,-0.4075,-0.4042,-0.3958,-0.4072,-0.4313,-0.4593,-0.4812,-0.519,-0.5902,-0.6205,-0.6582,-0.72,-0.7404,-0.7481,-0.7308,-0.7588,-0.7768,-0.7518,-0.7729,-0.7901,-0.7955,0.0,-0.8387,-0.8703,-0.8969,-0.9172,-0.946,-0.9484,-0.9798,-1.0604,-1.1149,-1.1819,-1.2634,-1.3191,-1.3511,-1.3511,-1.3511,-1.3511,-1.3511,-1.3511,-1.3511,-1.3511,-1.3915,-1.4145,-1.4198,-1.4705,-1.5093,-1.5459,-1.6255,-1.6775,-1.7112,-1.7799,-1.8084,-1.8139,-1.8398,-1.856,-1.8672,-1.9383,-1.966,-1.9775,0.0921,0.0949,0.1118,0.1553,0.1242,0.1118,0.1553,0.1616,0.1616,0.1616,0.1302,0.1076,0.1076,0.1076,0.1003,0.066,0.0467,0.0467,0.0525,-0.0654,-0.1246,-0.0989,-0.1401,-0.1813,-0.2214,-0.2452,-0.2747,-0.3101,-0.3142,-0.3142,-0.3101,-0.3144,-0.3142,-0.3099,-0.305,-0.3118,-0.3228,-0.3177,-0.3223,-0.3421,-0.3421,-0.3451,-0.3463,-0.3584,-0.3704,-0.3699,-0.3758,-0.3816,-0.3755,-0.3691,-0.3765,-0.3913,-0.3859,-0.4024,-0.4289,-0.4232,-0.417,-0.4105,-0.4047,-0.4075,-0.4148,-0.427,-0.4498,-0.4761,-0.515,-0.5481,-0.5807,-0.6071,-0.6531,-0.6833,-0.6746,-0.7082,-0.7421,-0.748,-0.7531,0.0,0.0,-0.8333,-0.8597,-0.8855,-0.9124,-0.934,-0.9472,-0.9484,-0.9798,-1.0421,-1.0793,-1.1399,-1.2443,-1.2818,-1.313,-1.3502,-1.3511,-1.3511,-1.3511,-1.3511,-1.3511,-1.3511,-1.3913,-1.4132,-1.4145,-1.432,-1.4613,-1.4981,-1.579,-1.6312,-1.6719,-1.7689,-1.8084,-1.8139,-1.841,-1.8694,-1.9085,-1.9531,-1.9917,-2.0273,0.0957,0.1139,0.1547,0.2087,0.1748,0.1547,0.2087,0.2221,0.2221,0.2221,0.1681,0.1277,0.1143,0.1076,0.1076,0.1076,0.1143,0.1143,0.1143,0.0134,-0.0538,-0.0605,-0.0739,-0.1209,-0.1946,-0.1946,-0.2216,-0.2688,-0.2688,-0.2688,-0.2688,-0.2688,-0.2822,-0.2954,-0.2888,-0.3027,-0.3222,-0.3152,-0.3216,-0.3396,-0.3396,-0.3418,-0.3478,-0.3668,-0.3697,-0.365,-0.3713,-0.3713,-0.3713,-0.3523,-0.3636,-0.3831,-0.3831,-0.4025,-0.43,-0.43,-0.4235,-0.4159,-0.4159,-0.4159,-0.4183,-0.4276,-0.4431,-0.4625,-0.4628,-0.4891,-0.5087,-0.5156,-0.5683,-0.6141,-0.6141,-0.6519,-0.6968,-0.7234,0.0,0.0,0.0,-0.8545,-0.8843,-0.9101,-0.9316,-0.9484,-0.9484,-0.9484,-0.9734,-1.0238,-1.0421,-1.0982,-1.1958,-1.2205,-1.2573,-1.326,-1.3442,-1.3511,-1.3511,-1.3511,-1.3511,-1.3511,-1.3913,-1.405,-1.3964,-1.405,-1.4238,-1.4453,-1.5243,-1.5786,-1.614,-1.7224,-1.7733,-1.7909,-1.8084,-1.8611,-1.9274,-1.961,-2.0136,-2.0646,0.1064,0.1673,0.2154,0.2221,0.2154,0.2154,0.2221,0.2221,0.2221,0.2221,0.2154,0.1884,0.1143,0.1076,0.1076,0.1076,0.1277,0.1345,0.1345,0.1412,0.1277,0.0941,0.0269,-0.0403,-0.1143,-0.121,-0.121,-0.1277,-0.1277,-0.1277,-0.1277,-0.1277,-0.1612,-0.2281,-0.2277,-0.2613,-0.3226,-0.322,-0.3173,-0.3101,-0.3101,-0.3161,-0.3155,-0.335,-0.3468,-0.3542,-0.3737,-0.3803,-0.3803,-0.3801,-0.3875,-0.4015,-0.4015,-0.4156,-0.43,-0.43,-0.4295,-0.4287,-0.4287,-0.4287,-0.4289,-0.4298,-0.4431,-0.4628,-0.4761,-0.4957,-0.5156,-0.5359,-0.5428,-0.5495,-0.5495,-0.5811,-0.6069,-0.612,0.0,0.0,-0.7763,-0.8512,-0.9108,-0.9126,-0.9316,-0.9484,-0.9484,-0.9484,-0.9548,-0.9548,-1.0174,-1.0548,-1.0611,-1.1212,-1.1888,-1.2573,-1.3199,-1.3511,-1.3511,-1.3511,-1.3511,-1.3511,-1.3913,-1.3905,-1.3562,-1.393,-1.4029,-1.3925,-1.4638,-1.5099,-1.5342,-1.614,-1.6754,-1.7257,-1.7435,-1.7963,-1.879,-1.9939,-2.0459,-2.0754,0.1725,0.2018,0.2221,0.2221,0.2221,0.2221,0.2221,0.2221,0.2221,0.2221,0.2221,0.2031,0.1582,0.1289,0.1242,0.1518,0.1686,0.173,0.1623,0.1542,0.1427,0.141,0.1143,0.0672,-0.0067,-0.0202,-0.047,-0.0941,-0.1008,-0.1076,-0.1076,-0.1076,-0.1277,-0.1545,-0.1545,-0.1679,-0.1882,-0.1882,-0.187,-0.1917,-0.2378,-0.251,-0.2578,-0.3243,-0.3465,-0.3498,-0.3563,-0.3629,-0.3629,-0.3493,-0.356,-0.3696,-0.3825,-0.3961,-0.4164,-0.4233,-0.43,-0.43,-0.43,-0.43,-0.43,-0.43,-0.4431,-0.4625,-0.4694,-0.4891,-0.5153,-0.5223,-0.5292,-0.5428,-0.5428,-0.5508,-0.5693,-0.5966,0.0,-0.678,-0.7277,-0.8025,-0.8567,-0.8719,-0.9157,-0.9484,-0.9484,-0.9484,-0.9484,-0.9484,-0.9734,-1.0047,-1.0485,-1.1149,-1.1633,-1.1888,-1.2512,-1.307,-1.3511,-1.3511,-1.3511,-1.3511,-1.3913,-1.4016,-1.3879,-1.4024,-1.4079,-1.4109,-1.468,-1.5031,-1.5284,-1.6026,-1.6415,-1.6641,-1.6765,-1.7455,-1.8453,-1.908,-1.9841,-2.0543,0.2173,0.2221,0.2221,0.2221,0.2221,0.2221,0.2221,0.2221,0.2221,0.2221,0.2221,0.2127,0.1823,0.1517,0.1419,0.1754,0.1905,0.1917,0.1747,0.1674,0.1578,0.1589,0.1606,0.1345,0.0874,0.0739,0.047,-0.0067,-0.02,-0.0333,-0.0336,-0.0333,-0.0467,-0.0739,-0.0739,-0.0874,-0.1076,-0.1076,-0.1076,-0.1143,-0.1679,-0.1879,-0.1946,-0.2487,-0.2757,-0.2757,-0.2757,-0.2757,-0.2757,-0.2554,-0.2822,-0.3159,-0.3288,-0.3625,-0.4028,-0.4164,-0.4233,-0.43,-0.43,-0.43,-0.43,-0.43,-0.4431,-0.4495,-0.4558,-0.4758,-0.4957,-0.5087,-0.5223,-0.5292,-0.5362,-0.5428,-0.5522,-0.5796,-0.5965,-0.6281,-0.6799,-0.7429,-0.8054,-0.8468,-0.8888,-0.9285,-0.9484,-0.9484,-0.9484,-0.9484,-0.9484,-0.967,-1.0174,-1.085,-1.1212,-1.1212,-1.1826,-1.2389,-1.2879,-1.3321,-1.3511,-1.3511,-1.3785,-1.3913,-1.3913,-1.3913,-1.4037,-1.4206,-1.4519,-1.4756,-1.501,-1.5517,-1.5864,-1.6026,-1.6151,-1.6785,-1.7726,-1.835,-1.9091,-1.9957,0.2172,0.2221,0.2221,0.2224,0.2224,0.2224,0.2224,0.2224,0.2224,0.2221,0.2221,0.2128,0.1826,0.18,0.18,0.1797,0.1905,0.1955,0.1917,0.195,0.1873,0.1542,0.1588,0.1613,0.1614,0.1614,0.1614,0.1614,0.1503,0.1438,0.1276,0.1309,0.0852,0.0,0.0,-0.0403,-0.1076,-0.1076,-0.1076,-0.1076,-0.1076,-0.1076,-0.1076,-0.1076,-0.1076,-0.1076,-0.1076,-0.1076,-0.1076,-0.1076,-0.1679,-0.2417,-0.2417,-0.3153,-0.3961,-0.3961,-0.4164,-0.43,-0.43,-0.43,-0.43,-0.43,-0.43,-0.4364,-0.4561,-0.4625,-0.4691,-0.502,-0.5087,-0.5156,-0.5359,-0.5428,-0.5428,-0.5428,-0.5947,-0.6396,-0.6396,-0.699,-0.7647,-0.8425,-0.849,-0.8753,-0.9414,-0.9484,-0.9484,-0.9484,-0.9484,-0.9484,-0.9484,-1.011,-1.0485,-1.0485,-1.1149,-1.1509,-1.1509,-1.2818,-1.3502,-1.3502,-1.3511,-1.3511,-1.3511,-1.3511,-1.37,-1.401,-1.401,-1.4198,-1.4515,-1.4515,-1.4843,-1.541,-1.541,-1.5864,-1.6658,-1.7748,-1.8395,-1.8828,0.5039,0.5153,0.5277,0.5828,0.3968,0.2405,0.2405,0.2405,0.2343,0.2244,0.2221,0.2193,0.212,0.2112,0.198,0.1812,0.188,0.1905,0.1837,0.188,0.1856,0.1813,0.1869,0.1917,0.1958,0.1828,0.1763,0.1763,0.1553,0.1473,0.1395,0.1411,0.1295,0.1044,0.1133,0.0941,0.0605,0.0605,0.0538,0.0403,-0.0134,-0.0336,-0.0403,-0.0874,-0.1076,-0.1076,-0.1076,-0.1076,-0.1076,-0.1076,-0.1277,-0.1478,-0.1609,-0.1944,-0.2414,-0.3082,-0.3351,-0.3553,-0.4164,-0.43,-0.43,-0.43,-0.43,-0.4364,-0.4561,-0.4625,-0.4625,-0.4827,-0.5024,-0.5087,-0.5156,-0.5156,-0.5223,-0.5362,-0.5422,-0.555,-0.5686,-0.6272,-0.6793,-0.6985,-0.7897,-0.8554,-0.8753,-0.9221,-0.9484,-0.9484,-0.9484,-0.9484,-0.9484,-0.967,-0.9798,-0.9798,-1.0478,-1.0787,-1.0787,-1.2143,-1.2818,-1.2818,-1.326,-1.3511,-1.3511,-1.364,-1.3769,-1.389,-1.4079,-1.4267,-1.4396,-1.4455,-1.4625,-1.4793,-1.4793,-1.5245,-1.5951,-1.642,-1.6977,-1.7633,0.6716,0.6806,0.6953,0.741,0.5805,0.4489,0.4489,0.4489,0.3963,0.2375,0.2221,0.2221,0.2221,0.2221,0.2083,0.1906,0.2041,0.2098,0.2104,0.2136,0.2086,0.1883,0.1916,0.1965,0.2089,0.1964,0.1899,0.1899,0.1752,0.1612,0.1543,0.1552,0.1504,0.1459,0.1485,0.144,0.1387,0.1373,0.1252,0.1142,0.0664,0.0466,0.0403,-0.0067,-0.0267,-0.0265,-0.0265,-0.0265,-0.0265,-0.0265,-0.0466,-0.0739,-0.1074,-0.1408,-0.1743,-0.2278,-0.2546,-0.2748,-0.3288,-0.3625,-0.3892,-0.3892,-0.4097,-0.43,-0.4431,-0.4495,-0.4561,-0.4764,-0.4827,-0.4954,-0.5087,-0.5024,-0.5024,-0.5226,-0.5156,-0.5156,-0.5362,-0.5752,-0.6075,-0.64,-0.7181,-0.7772,-0.8032,-0.8431,-0.8759,-0.9087,-0.935,-0.9484,-0.9484,-0.9484,-0.9484,-0.9484,-0.9919,-1.011,-1.011,-1.1156,-1.1834,-1.2135,-1.2757,-1.307,-1.313,-1.3511,-1.3761,-1.389,-1.4079,-1.4267,-1.4396,-1.4455,-1.4515,-1.4515,-1.4515,-1.4793,-1.5294,-1.5642,-1.6161,-1.6729,0.7521,0.7521,0.7545,0.7621,0.7574,0.7521,0.7521,0.7521,0.633,0.3086,0.2554,0.2488,0.2423,0.2356,0.2321,0.2242,0.2501,0.259,0.253,0.253,0.2314,0.195,0.1884,0.1907,0.1963,0.1963,0.1963,0.1963,0.1909,0.1847,0.171,0.1669,0.1557,0.1416,0.1481,0.1504,0.1537,0.1441,0.1407,0.1271,0.1309,0.1248,0.1072,0.1072,0.1056,0.0969,0.1031,0.1031,0.0969,0.0969,0.0591,0.0,-0.0671,-0.1141,-0.1408,-0.1475,-0.1677,-0.1946,-0.2079,-0.2547,-0.3082,-0.3082,-0.3623,-0.4164,-0.43,-0.43,-0.4367,-0.4697,-0.4694,-0.4691,-0.502,-0.4894,-0.4827,-0.5024,-0.509,-0.5156,-0.5359,-0.5362,-0.562,-0.6268,-0.6334,-0.6662,-0.7256,-0.7386,-0.7712,-0.8361,-0.9022,-0.9414,-0.9414,-0.9484,-0.9484,-0.9484,-0.9484,-0.9484,-0.9484,-1.011,-1.0787,-1.1454,-1.2135,-1.2451,-1.2451,-1.3199,-1.3631,-1.395,-1.401,-1.4198,-1.4515,-1.4515,-1.4515,-1.4515,-1.4515,-1.4556,-1.4765,-1.5303,-1.571,-1.6114,0.7521,0.7521,0.7731,0.8316,0.7891,0.7521,0.7521,0.7521,0.719,0.6461,0.5533,0.468,0.3897,0.3689,0.3737,0.4169,0.3799,0.3202,0.2528,0.253,0.2337,0.2015,0.1906,0.1887,0.1901,0.1901,0.1901,0.1901,0.1887,0.1865,0.1778,0.181,0.1831,0.1785,0.1831,0.1794,0.1682,0.1711,0.1545,0.1305,0.1326,0.1189,0.1043,0.1043,0.1039,0.1031,0.1007,0.1014,0.0969,0.0969,0.0908,0.0785,0.0668,0.0605,0.0403,-0.0336,-0.0604,-0.0873,-0.1744,-0.2079,-0.2213,-0.228,-0.2482,-0.2885,-0.403,-0.43,-0.43,-0.4367,-0.4498,-0.4625,-0.4691,-0.4691,-0.4694,-0.4827,-0.4894,-0.496,-0.5156,-0.5292,-0.5425,-0.5624,-0.6075,-0.6465,-0.6597,-0.712,-0.7451,-0.7647,-0.8296,-0.8689,-0.8689,-0.9215,-0.9484,-0.9484,-0.9484,-0.9484,-0.9484,-0.967,-1.011,-1.0982,-1.1608,-1.1981,-1.2166,-1.2964,-1.339,-1.3511,-1.4139,-1.4446,-1.4515,-1.4515,-1.4515,-1.4515,-1.4515,-1.4556,-1.4715,-1.4834,-1.5137,-1.5498,0.7886,0.7962,0.8188,0.8623,0.834,0.8051,0.8051,0.7716,0.7521,0.7521,0.6924,0.64,0.5881,0.5209,0.4809,0.5011,0.4234,0.3658,0.353,0.3277,0.2937,0.2519,0.248,0.238,0.2167,0.2133,0.2044,0.1841,0.1841,0.1839,0.1837,0.1839,0.1871,0.1925,0.1928,0.1899,0.1889,0.1892,0.1797,0.1581,0.145,0.1318,0.112,0.112,0.1175,0.1159,0.1141,0.1083,0.1035,0.1049,0.1054,0.1057,0.1071,0.1009,0.0875,0.0337,0.0135,-0.0135,-0.0672,-0.1209,-0.1544,-0.1612,-0.1879,-0.2415,-0.3489,-0.3758,-0.3892,-0.4361,-0.4431,-0.4495,-0.4561,-0.4495,-0.4564,-0.4764,-0.4831,-0.4897,-0.5226,-0.5359,-0.5428,-0.5428,-0.5686,-0.5947,-0.5947,-0.6531,-0.6924,-0.6924,-0.7577,-0.7967,-0.7967,-0.8624,-0.9017,-0.9017,-0.935,-0.9484,-0.9484,-0.9484,-0.9798,-1.0428,-1.0926,-1.1303,-1.1428,-1.2228,-1.2658,-1.285,-1.358,-1.395,-1.407,-1.4387,-1.4515,-1.4515,-1.4515,-1.4556,-1.4715,-1.4834,-1.502,-1.5371,0.8636,0.8772,0.8932,0.8932,0.878,0.8703,0.8703,0.8075,0.765,0.7602,0.7617,0.7631,0.7631,0.6668,0.5922,0.5593,0.4697,0.4287,0.4688,0.4289,0.385,0.3439,0.329,0.3054,0.2733,0.2591,0.2279,0.1812,0.1812,0.1835,0.188,0.1843,0.1879,0.197,0.1918,0.1952,0.2109,0.2005,0.1981,0.1867,0.1635,0.151,0.1335,0.1335,0.1381,0.1352,0.1344,0.1216,0.103,0.1125,0.1135,0.1069,0.1074,0.101,0.0876,0.0876,0.0672,0.0402,0.0337,-0.0201,-0.0869,-0.0873,-0.1344,-0.1946,-0.2681,-0.2948,-0.3215,-0.4023,-0.4159,-0.4161,-0.4359,-0.4295,-0.4367,-0.4697,-0.4764,-0.4894,-0.5226,-0.5296,-0.5359,-0.5359,-0.5362,-0.5428,-0.5428,-0.5881,-0.6203,-0.6203,-0.6863,-0.7251,-0.7251,-0.7902,-0.8361,-0.849,-0.9017,-0.9414,-0.9484,-0.9484,-0.967,-0.9919,-1.0238,-1.0548,-1.0807,-1.1428,-1.1926,-1.2174,-1.2842,-1.3199,-1.3381,-1.407,-1.4327,-1.4327,-1.4455,-1.4556,-1.4715,-1.4911,-1.5137,-1.5362,0.9712,0.9739,0.9765,0.9765,0.9155,0.8703,0.8703,0.8411,0.8103,0.7853,0.7924,0.7995,0.7995,0.7753,0.7336,0.6644,0.6392,0.6009,0.5279,0.5147,0.4938,0.4593,0.4094,0.3776,0.3697,0.3164,0.2591,0.1869,0.1869,0.1873,0.1882,0.1928,0.1956,0.1971,0.1963,0.1969,0.1988,0.2095,0.1996,0.1818,0.1858,0.1717,0.1556,0.1556,0.1552,0.154,0.1502,0.1365,0.1249,0.1284,0.1167,0.1044,0.1068,0.1076,0.1076,0.1076,0.0992,0.085,0.0536,0.0397,0.0196,-0.0067,-0.0202,-0.0471,-0.121,-0.1812,-0.228,-0.2414,-0.2948,-0.3351,-0.3418,-0.3892,-0.43,-0.4367,-0.4498,-0.4628,-0.4694,-0.4957,-0.5156,-0.5156,-0.5292,-0.5428,-0.5428,-0.5495,-0.5557,-0.5557,-0.6141,-0.6531,-0.6531,-0.7186,-0.7842,-0.849,-0.8619,-0.8888,-0.9484,-0.9484,-0.9548,-0.9548,-0.9804,-1.018,-1.0624,-1.124,-1.1553,-1.167,-1.2336,-1.2634,-1.2696,-1.3381,-1.364,-1.3692,-1.4258,-1.4506,-1.4565,-1.4862,-1.5029,-1.5088,0.9922,0.9997,1.0148,1.0148,0.9846,0.9387,0.878,0.86,0.8481,0.8354,0.8259,0.8404,0.9076,0.9036,0.8771,0.8049,0.773,0.7216,0.6412,0.6071,0.5741,0.5418,0.5157,0.4922,0.4655,0.4402,0.3998,0.3454,0.2855,0.2436,0.2293,0.2285,0.2198,0.2137,0.2102,0.2106,0.214,0.2168,0.2114,0.1984,0.1941,0.187,0.1782,0.1782,0.1782,0.178,0.1757,0.1555,0.1299,0.1315,0.1189,0.1059,0.1072,0.1076,0.1076,0.1076,0.1001,0.0863,0.0739,0.0534,0.0332,0.0202,0.0067,-0.0067,-0.0404,-0.074,-0.1143,-0.1946,-0.2347,-0.2681,-0.3149,-0.3487,-0.3825,-0.4361,-0.4561,-0.4625,-0.4694,-0.4827,-0.4957,-0.5087,-0.5292,-0.5428,-0.5428,-0.5428,-0.5428,-0.5428,-0.5686,-0.5815,-0.5815,-0.6465,-0.699,-0.7312,-0.7707,-0.8037,-0.8301,-0.8759,-0.8947,-0.9075,-0.9536,-0.9989,-1.0308,-1.0681,-1.0863,-1.1052,-1.1663,-1.1965,-1.1965,-1.2642,-1.3139,-1.3511,-1.3821,-1.4249,-1.4803,-1.498,-1.5088,-1.5245]}]]